[[{"header":{"parameterUnit":"m.s-1","parameterCategory":1,"la1":31.0,"la2":29.5877,"lo1":-88.7671,"lo2":-86.6584,"dy":0.0162,"dx":0.0185,"nx":115,"ny":88,"refTime":"2023-11-20T06:00:00:Z","depth":0,"parameterNumber":2,"parameterNumberName":"U-component_of_WINDS"},"data":[0.0,0.0,0.0,0.0,0.0,0.0,0.0,0.0,0.0,0.0,0.0,0.0,0.0,0.0,0.0,0.0,0.0,0.0,0.0,0.0,0.0,0.0,0.0,0.0,0.0,0.0,0.0,0.0,0.0,0.0,0.0,0.0,0.0,0.0,0.0,0.0,0.0,0.0,0.0,0.0,0.0,0.0,0.0,0.0,0.0,0.0,0.0,0.0,0.0,0.0,0.0,0.0,0.0,0.0,0.0,0.0,0.0,0.0,0.0,0.0,0.0,0.0,0.0,0.0,0.0,0.0,0.0,0.0,0.0,0.0,0.0,0.0,0.0,0.0,0.0,0.0,0.0,0.0,0.0,0.0,0.0,0.0,0.0,0.0,0.0,0.0,0.0,0.0,0.0,0.0,0.0,0.0,0.0,0.0,0.0,0.0,0.0,0.0,0.0,0.0,0.0,0.0,0.0,0.0,0.0,0.0,0.0,0.0,0.0,0.0,0.0,0.0,0.0,0.0,0.0,0.0,0.0,0.0,0.0,0.0,0.0,0.0,0.0,0.0,0.0,0.0,0.0,0.0,0.0,0.0,0.0,0.0,0.0,0.0,0.0,0.0,0.0,0.0,0.0,0.0,0.0,0.0,0.0,0.0,0.0,0.0,0.0,0.0,0.0,0.0,0.0,0.0,0.0,0.0,0.0,0.0,0.0,0.0,0.0,0.0,0.0,0.0,0.0,0.0,0.0,0.0,0.0,0.0,0.0,0.0,0.0,0.0,0.0,0.0,0.0,0.0,0.0,0.0,0.0,0.0,0.0,0.0,0.0,0.0,0.0,0.0,0.0,0.0,0.0,0.0,0.0,0.0,0.0,0.0,0.0,0.0,0.0,0.0,0.0,0.0,0.0,0.0,0.0,0.0,0.0,0.0,0.0,0.0,0.0,0.0,0.0,0.0,0.0,0.0,0.0,0.0,0.0,0.0,0.0,0.0,0.0,0.0,0.0,0.0,0.0,0.0,0.0,0.0,0.0,0.0,0.0,0.0,0.0,0.0,0.0,0.0,0.0,0.0,0.0,0.0,0.0,0.0,0.0,0.0,0.0,0.0,0.0,0.0,0.0,0.0,0.0,0.0,0.0,0.0,0.0,0.0,0.0,0.0,0.0,0.0,0.0,0.0,0.0,0.0,0.0,0.0,0.0,0.0,0.0,0.0,0.0,0.0,0.0,0.0,0.0,0.0,0.0,0.0,0.0,0.0,0.0,0.0,0.0,0.0,0.0,0.0,0.0,0.0,0.0,0.0,0.0,0.0,0.0,0.0,0.0,0.0,0.0,0.0,0.0,0.0,0.0,0.0,0.0,0.0,0.0,0.0,0.0,0.0,0.0,0.0,0.0,0.0,0.0,0.0,0.0,0.0,0.0,0.0,0.0,0.0,0.0,0.0,0.0,0.0,0.0,0.0,0.0,0.0,0.0,0.0,0.0,0.0,0.0,0.0,0.0,0.0,0.0,0.0,0.0,0.0,0.0,0.0,0.0,0.0,0.0,0.0,0.0,0.0,0.0,0.0,0.0,0.0,0.0,0.0,0.0,0.0,0.0,0.0,0.0,0.0,0.0,0.0,0.0,0.0,0.0,0.0,0.0,0.0,0.0,0.0,0.0,0.0,0.0,0.0,0.0,0.0,0.0,0.0,0.0,0.0,0.0,0.0,0.0,0.0,0.0,0.0,0.0,0.0,0.0,0.0,0.0,0.0,0.0,0.0,0.0,0.0,0.0,0.0,0.0,0.0,0.0,0.0,0.0,0.0,0.0,0.0,0.0,0.0,0.0,0.0,0.0,0.0,0.0,0.0,0.0,0.0,0.0,0.0,0.0,0.0,0.0,0.0,0.0,0.0,0.0,0.0,0.0,0.0,0.0,0.0,0.0,0.0,0.0,0.0,0.0,0.0,0.0,0.0,0.0,0.0,0.0,0.0,0.0,0.0,0.0,0.0,0.0,0.0,0.0,0.0,0.0,0.0,0.0,0.0,0.0,0.0,0.0,0.0,0.0,0.0,0.0,0.0,0.0,0.0,0.0,0.0,0.0,0.0,0.0,0.0,0.0,0.0,0.0,0.0,0.0,0.0,0.0,0.0,0.0,0.0,0.0,0.0,0.0,0.0,0.0,0.0,0.0,0.0,0.0,0.0,0.0,0.0,0.0,0.0,0.0,0.0,0.0,0.0,0.0,0.0,0.0,0.0,0.0,0.0,0.0,0.0,0.0,0.0,0.0,0.0,0.0,0.0,0.0,0.0,0.0,0.0,0.0,0.0,0.0,0.0,0.0,0.0,0.0,0.0,0.0,0.0,0.0,0.0,0.0,0.0,0.0,0.0,0.0,0.0,0.0,0.0,0.0,0.0,0.0,0.0,0.0,0.0,0.0,0.0,0.0,0.0,0.0,0.0,0.0,0.0,0.0,0.0,0.0,0.0,0.0,0.0,0.0,0.0,0.0,0.0,0.0,0.0,0.0,0.0,0.0,0.0,0.0,0.0,0.0,0.0,0.0,0.0,0.0,0.0,0.0,0.0,0.0,0.0,0.0,0.0,0.0,0.0,0.0,0.0,0.0,0.0,0.0,0.0,0.0,0.0,0.0,0.0,0.0,0.0,0.0,0.0,0.0,0.0,0.0,0.0,0.0,0.0,0.0,0.0,0.0,0.0,0.0,0.0,0.0,0.0,0.0,0.0,0.0,0.0,0.0,0.0,0.0,0.0,0.0,0.0,0.0,0.0,0.0,0.0,0.0,0.0,0.0,0.0,0.0,0.0,0.0,0.0,0.0,0.0,0.0,0.0,0.0,0.0,0.0,0.0,0.0,0.0,0.0,0.0,0.0,0.0,0.0,0.0,0.0,0.0,0.0,0.0,0.0,0.0,0.0,0.0,0.0,0.0,0.0,0.0,0.0,0.0,0.0,0.0,0.0,0.0,0.0,0.0,0.0,0.0,0.0,0.0,0.0,0.0,0.0,0.0,0.0,0.0,0.0,0.0,0.0,0.0,0.0,0.0,0.0,0.0,0.0,0.0,0.0,0.0,0.0,0.0,0.0,0.0,0.0,0.0,0.0,0.0,0.0,0.0,0.0,0.0,0.0,0.0,0.0,0.0,0.0,0.0,0.0,0.0,0.0,0.0,0.0,0.0,0.0,0.0,0.0,0.0,0.0,0.0,0.0,0.0,0.0,0.0,0.0,0.0,0.0,0.0,0.0,0.0,0.0,0.0,0.0,0.0,0.0,0.0,0.0,0.0,0.0,0.0,0.0,0.0,0.0,0.0,0.0,0.0,0.0,0.0,0.0,0.0,0.0,0.0,0.0,0.0,0.0,0.0,0.0,0.0,0.0,0.0,0.0,0.0,0.0,0.0,0.0,0.0,0.0,0.0,0.0,0.0,0.0,0.0,0.0,0.0,0.0,0.0,0.0,0.0,0.0,0.0,0.0,0.0,0.0,0.0,0.0,0.0,0.0,0.0,0.0,0.0,0.0,0.0,0.0,0.0,0.0,0.0,0.0,0.0,0.0,0.0,0.0,0.0,0.0,0.0,0.0,0.0,0.0,0.0,0.0,0.0,0.0,0.0,0.0,0.0,0.0,0.0,0.0,0.0,0.0,0.0,0.0,0.0,0.0,0.0,0.0,0.0,0.0,0.0,0.0,0.0,0.0,0.0,0.0,0.0,0.0,0.0,0.0,0.0,0.0,0.0,0.0,0.0,0.0,0.0,0.0,0.0,0.0,0.0,0.0,0.0,0.0,0.0,0.0,0.0,0.0,0.0,0.0,0.0,0.0,0.0,0.0,0.0,0.0,0.0,0.0,0.0,0.0,0.0,0.0,0.0,0.0,0.0,0.0,0.0,0.0,0.0,0.0,0.0,0.0,0.0,0.0,0.0,0.0,0.0,0.0,0.0,0.0,0.0,0.0,0.0,0.0,0.0,0.0,0.0,0.0,0.0,0.0,0.0,0.0,0.0,0.0,0.0,0.0,0.0,0.0,0.0,0.0,0.0,0.0,0.0,0.0,0.0,0.0,0.0,0.0,0.0,0.0,0.0,0.0,0.0,0.0,0.0,0.0,0.0,0.0,0.0,0.0,0.0,0.0,0.0,0.0,0.0,0.0,0.0,0.0,0.0,0.0,0.0,0.0,0.0,0.0,0.0,0.0,0.0,0.0,0.0,0.0,0.0,0.0,0.0,0.0,0.0,0.0,0.0,0.0,0.0,0.0,0.0,0.0,0.0,0.0,0.0,0.0,0.0,0.0,0.0,2.5687,0.0,0.0,0.0,0.0,0.0,0.0,0.0,0.0,0.0,0.0,0.0,0.0,0.0,0.0,0.0,0.0,0.0,0.0,0.0,0.0,0.0,0.0,0.0,0.0,0.0,0.0,0.0,0.0,0.0,0.0,0.0,0.0,0.0,0.0,0.0,0.0,0.0,0.0,0.0,0.0,0.0,0.0,0.0,0.0,0.0,0.0,0.0,0.0,0.0,0.0,0.0,0.0,0.0,0.0,0.0,0.0,0.0,0.0,0.0,0.0,0.0,0.0,0.0,0.0,0.0,0.0,0.0,0.0,0.0,0.0,0.0,0.0,0.0,0.0,0.0,0.0,0.0,0.0,0.0,0.0,0.0,0.0,0.0,0.0,0.0,0.0,0.0,0.0,0.0,0.0,0.0,0.0,0.0,0.0,0.0,0.0,0.0,0.0,0.0,0.0,0.0,0.0,0.0,0.0,0.0,0.0,0.0,0.0,0.0,0.0,2.5687,2.5687,2.5687,2.5687,2.5687,0.0,0.0,0.0,0.0,0.0,0.0,0.0,0.0,0.0,0.0,0.0,0.0,0.0,0.0,0.0,0.0,0.0,0.0,0.0,0.0,0.0,0.0,0.0,0.0,0.0,0.0,0.0,0.0,0.0,0.0,0.0,0.0,0.0,0.0,0.0,0.0,0.0,0.0,0.0,0.0,0.0,0.0,0.0,0.0,0.0,0.0,0.0,0.0,0.0,0.0,0.0,0.0,0.0,0.0,0.0,0.0,0.0,0.0,0.0,0.0,0.0,0.0,0.0,0.0,0.0,0.0,0.0,0.0,0.0,0.0,0.0,0.0,0.0,0.0,0.0,0.0,0.0,0.0,0.0,0.0,0.0,0.0,0.0,0.0,0.0,0.0,0.0,0.0,0.0,0.0,0.0,0.0,0.0,0.0,0.0,0.0,0.0,0.0,0.0,0.0,0.0,0.0,0.0,0.0,0.0,0.0,0.0,0.0,0.0,0.0,0.0,0.0,2.5687,2.5687,2.5687,0.0,0.0,0.0,0.0,0.0,0.0,0.0,0.0,0.0,0.0,0.0,0.0,0.0,0.0,0.0,0.0,0.0,0.0,0.0,0.0,0.0,0.0,0.0,0.0,0.0,0.0,0.0,0.0,0.0,0.0,0.0,0.0,0.0,0.0,0.0,0.0,0.0,0.0,0.0,0.0,0.0,0.0,0.0,0.0,0.0,0.0,0.0,0.0,0.0,0.0,0.0,0.0,0.0,0.0,0.0,0.0,0.0,0.0,0.0,0.0,0.0,0.0,0.0,0.0,0.0,0.0,0.0,0.0,0.0,0.0,0.0,0.0,0.0,0.0,0.0,0.0,0.0,0.0,0.0,0.0,0.0,0.0,0.0,0.0,0.0,0.0,0.0,0.0,0.0,0.0,0.0,0.0,0.0,0.0,0.0,0.0,0.0,0.0,0.0,0.0,0.0,0.0,0.0,0.0,0.0,0.0,0.0,0.0,0.0,0.0,2.5687,2.5687,2.5687,0.0,2.5687,0.0,0.0,0.0,0.0,0.0,0.0,0.0,0.0,0.0,0.0,0.0,0.0,0.0,0.0,0.0,0.0,0.0,0.0,0.0,0.0,0.0,0.0,0.0,0.0,0.0,0.0,0.0,0.0,0.0,0.0,0.0,0.0,0.0,0.0,0.0,0.0,0.0,0.0,0.0,0.0,0.0,0.0,0.0,0.0,0.0,0.0,0.0,0.0,0.0,0.0,0.0,0.0,0.0,0.0,0.0,0.0,0.0,0.0,0.0,0.0,0.0,0.0,0.0,0.0,0.0,0.0,0.0,0.0,0.0,0.0,0.0,0.0,0.0,0.0,0.0,0.0,0.0,0.0,0.0,0.0,0.0,0.0,0.0,0.0,0.0,0.0,0.0,0.0,0.0,0.0,0.0,0.0,0.0,0.0,0.0,0.0,0.0,0.0,0.0,0.0,0.0,0.0,0.0,0.0,0.0,0.0,0.0,0.0,0.0,0.0,2.5687,2.5687,2.5687,2.5687,0.0,0.0,0.0,0.0,0.0,0.0,0.0,0.0,0.0,0.0,0.0,0.0,0.0,0.0,0.0,0.0,0.0,0.0,0.0,0.0,0.0,0.0,0.0,0.0,0.0,0.0,0.0,0.0,0.0,0.0,0.0,0.0,0.0,0.0,0.0,0.0,0.0,0.0,0.0,0.0,0.0,0.0,0.0,0.0,0.0,0.0,0.0,0.0,0.0,0.0,0.0,0.0,0.0,0.0,0.0,0.0,0.0,0.0,0.0,0.0,0.0,0.0,0.0,0.0,0.0,0.0,0.0,0.0,0.0,0.0,0.0,0.0,0.0,0.0,0.0,0.0,0.0,0.0,0.0,0.0,0.0,0.0,0.0,0.0,0.0,0.0,0.0,0.0,0.0,0.0,0.0,0.0,0.0,0.0,0.0,0.0,0.0,0.0,0.0,0.0,0.0,0.0,0.0,0.0,0.0,0.0,0.0,0.0,0.0,0.0,2.5687,2.5687,2.5687,2.5687,2.5687,2.5687,0.0,0.0,0.0,0.0,0.0,0.0,0.0,0.0,0.0,0.0,0.0,0.0,0.0,0.0,0.0,0.0,0.0,0.0,0.0,0.0,0.0,0.0,0.0,0.0,0.0,0.0,0.0,0.0,0.0,0.0,0.0,0.0,0.0,0.0,0.0,0.0,0.0,0.0,0.0,0.0,0.0,0.0,0.0,0.0,0.0,0.0,0.0,0.0,0.0,0.0,0.0,0.0,0.0,0.0,0.0,0.0,0.0,0.0,0.0,0.0,0.0,0.0,0.0,0.0,0.0,0.0,0.0,0.0,0.0,0.0,0.0,0.0,0.0,0.0,0.0,0.0,0.0,0.0,0.0,0.0,0.0,0.0,0.0,0.0,0.0,0.0,0.0,0.0,0.0,0.0,0.0,0.0,0.0,0.0,0.0,0.0,0.0,0.0,0.0,0.0,0.0,0.0,0.0,0.0,0.0,0.0,0.0,0.0,2.5707,2.5726,2.5707,2.5726,2.5707,2.5707,0.0,0.0,0.0,0.0,0.0,0.0,0.0,0.0,0.0,0.0,0.0,0.0,0.0,0.0,0.0,0.0,0.0,0.0,0.0,0.0,0.0,0.0,0.0,0.0,0.0,0.0,0.0,0.0,0.0,0.0,0.0,0.0,0.0,0.0,0.0,0.0,0.0,0.0,0.0,0.0,0.0,0.0,0.0,0.0,0.0,0.0,0.0,0.0,0.0,0.0,0.0,0.0,0.0,0.0,0.0,0.0,0.0,0.0,0.0,0.0,0.0,0.0,0.0,0.0,0.0,0.0,0.0,0.0,0.0,0.0,0.0,0.0,0.0,0.0,0.0,0.0,0.0,0.0,0.0,0.0,0.0,0.0,0.0,0.0,0.0,0.0,0.0,0.0,0.0,0.0,0.0,0.0,0.0,0.0,0.0,0.0,0.0,0.0,0.0,0.0,0.0,0.0,0.0,0.0,0.0,0.0,0.0,0.0,0.0,2.6507,2.7073,2.7093,2.6566,2.6544,2.6273,0.0,0.0,0.0,0.0,0.0,0.0,0.0,0.0,0.0,0.0,0.0,0.0,0.0,0.0,0.0,0.0,0.0,0.0,0.0,0.0,0.0,0.0,0.0,0.0,0.0,0.0,0.0,0.0,0.0,0.0,0.0,0.0,0.0,0.0,0.0,0.0,0.0,0.0,0.0,0.0,0.0,0.0,0.0,0.0,0.0,0.0,0.0,0.0,0.0,0.0,0.0,0.0,0.0,0.0,0.0,0.0,0.0,0.0,0.0,0.0,0.0,0.0,0.0,0.0,0.0,0.0,0.0,0.0,0.0,0.0,0.0,0.0,0.0,0.0,0.0,0.0,0.0,0.0,0.0,0.0,0.0,0.0,0.0,0.0,0.0,0.0,0.0,0.0,0.0,0.0,0.0,0.0,0.0,0.0,0.0,0.0,0.0,0.0,0.0,0.0,0.0,0.0,0.0,0.0,0.0,0.0,0.0,0.0,0.0,2.7386,0.0,2.801,2.7442,2.713,2.672,0.0,0.0,0.0,0.0,0.0,0.0,0.0,0.0,0.0,0.0,0.0,0.0,0.0,0.0,0.0,0.0,0.0,0.0,0.0,0.0,0.0,0.0,0.0,0.0,0.0,0.0,0.0,0.0,0.0,0.0,0.0,0.0,0.0,0.0,0.0,0.0,0.0,0.0,0.0,0.0,0.0,0.0,0.0,0.0,0.0,0.0,0.0,0.0,0.0,0.0,0.0,0.0,0.0,0.0,0.0,0.0,0.0,0.0,0.0,0.0,0.0,0.0,0.0,0.0,0.0,0.0,0.0,0.0,0.0,0.0,0.0,0.0,0.0,0.0,0.0,0.0,0.0,0.0,0.0,0.0,0.0,0.0,0.0,0.0,0.0,0.0,0.0,0.0,0.0,0.0,0.0,0.0,0.0,0.0,0.0,0.0,0.0,0.0,0.0,0.0,0.0,0.0,0.0,0.0,0.0,0.0,0.0,0.0,2.7462,2.8283,2.8401,2.8459,2.8303,2.7581,2.7073,0.0,0.0,0.0,0.0,0.0,0.0,0.0,0.0,0.0,0.0,0.0,0.0,0.0,0.0,0.0,0.0,0.0,0.0,0.0,0.0,0.0,0.0,0.0,0.0,0.0,0.0,0.0,0.0,0.0,0.0,0.0,0.0,0.0,0.0,0.0,0.0,0.0,0.0,0.0,0.0,0.0,0.0,0.0,0.0,0.0,0.0,0.0,0.0,0.0,0.0,0.0,0.0,0.0,0.0,0.0,0.0,0.0,0.0,0.0,0.0,0.0,0.0,0.0,0.0,0.0,0.0,0.0,0.0,0.0,0.0,0.0,0.0,0.0,0.0,0.0,0.0,0.0,0.0,0.0,0.0,0.0,0.0,0.0,0.0,0.0,0.0,0.0,0.0,0.0,0.0,0.0,0.0,0.0,0.0,0.0,0.0,0.0,0.0,0.0,0.0,0.0,0.0,0.0,0.0,0.0,0.0,0.0,0.0,0.0,3.0021,3.0606,3.0665,3.0099,2.9833,2.8842,0.0,0.0,0.0,0.0,0.0,0.0,0.0,0.0,0.0,0.0,0.0,0.0,0.0,0.0,0.0,0.0,0.0,0.0,0.0,0.0,0.0,0.0,0.0,0.0,0.0,0.0,0.0,0.0,0.0,0.0,0.0,0.0,0.0,0.0,0.0,0.0,0.0,0.0,0.0,0.0,0.0,0.0,0.0,0.0,0.0,0.0,0.0,0.0,0.0,0.0,0.0,0.0,0.0,0.0,0.0,0.0,0.0,0.0,0.0,0.0,0.0,0.0,0.0,0.0,0.0,0.0,0.0,0.0,0.0,0.0,0.0,0.0,0.0,0.0,0.0,0.0,0.0,0.0,0.0,0.0,0.0,0.0,0.0,0.0,0.0,0.0,0.0,0.0,0.0,0.0,0.0,0.0,0.0,0.0,0.0,0.0,0.0,0.0,0.0,0.0,0.0,0.0,0.0,0.0,0.0,0.0,0.0,0.0,0.0,3.2246,3.2461,3.2343,3.1836,3.1241,2.9979,2.8066,0.0,0.0,0.0,0.0,0.0,0.0,0.0,0.0,0.0,0.0,0.0,0.0,0.0,0.0,0.0,0.0,0.0,0.0,0.0,0.0,0.0,0.0,0.0,0.0,0.0,0.0,0.0,0.0,0.0,0.0,0.0,0.0,0.0,0.0,0.0,0.0,0.0,0.0,0.0,0.0,0.0,0.0,0.0,0.0,0.0,0.0,0.0,0.0,0.0,0.0,0.0,0.0,0.0,0.0,0.0,0.0,0.0,0.0,0.0,0.0,0.0,0.0,0.0,0.0,0.0,0.0,0.0,0.0,0.0,0.0,0.0,0.0,0.0,0.0,0.0,0.0,0.0,0.0,0.0,0.0,0.0,0.0,0.0,0.0,0.0,0.0,0.0,0.0,0.0,0.0,0.0,0.0,0.0,0.0,0.0,0.0,0.0,0.0,0.0,0.0,0.0,0.0,0.0,0.0,0.0,0.0,0.0,0.0,3.4744,3.4022,3.3571,3.3437,3.1924,3.0603,0.0,0.0,0.0,0.0,0.0,0.0,0.0,0.0,0.0,0.0,0.0,0.0,0.0,0.0,0.0,0.0,0.0,0.0,0.0,0.0,0.0,0.0,0.0,0.0,0.0,0.0,0.0,0.0,0.0,0.0,0.0,0.0,0.0,0.0,0.0,0.0,0.0,0.0,0.0,0.0,0.0,0.0,0.0,0.0,0.0,0.0,0.0,0.0,0.0,0.0,0.0,0.0,0.0,0.0,0.0,0.0,0.0,0.0,0.0,0.0,0.0,0.0,0.0,0.0,0.0,0.0,0.0,0.0,0.0,0.0,0.0,0.0,0.0,0.0,0.0,0.0,0.0,0.0,0.0,0.0,0.0,0.0,0.0,0.0,0.0,0.0,0.0,0.0,0.0,0.0,0.0,0.0,0.0,0.0,0.0,0.0,0.0,0.0,0.0,0.0,0.0,0.0,0.0,0.0,0.0,0.0,0.0,0.0,0.0,3.5642,3.6052,3.5662,3.441,3.3319,3.2061,0.0,0.0,0.0,0.0,0.0,0.0,0.0,0.0,0.0,0.0,0.0,0.0,0.0,0.0,0.0,0.0,0.0,0.0,0.0,0.0,0.0,0.0,0.0,0.0,0.0,0.0,0.0,0.0,0.0,0.0,0.0,0.0,0.0,0.0,0.0,0.0,0.0,0.0,0.0,0.0,0.0,0.0,0.0,0.0,0.0,0.0,0.0,0.0,0.0,0.0,0.0,0.0,0.0,0.0,0.0,0.0,0.0,0.0,0.0,0.0,0.0,0.0,0.0,0.0,0.0,0.0,0.0,0.0,0.0,0.0,0.0,0.0,0.0,0.0,0.0,0.0,0.0,0.0,0.0,0.0,0.0,0.0,0.0,0.0,0.0,0.0,0.0,0.0,0.0,0.0,0.0,0.0,0.0,0.0,0.0,0.0,0.0,0.0,0.0,0.0,0.0,0.0,0.0,0.0,0.0,0.0,0.0,0.0,3.6362,3.7067,3.7594,3.7184,3.5835,3.4605,3.3156,0.0,0.0,0.0,0.0,0.0,0.0,0.0,0.0,0.0,0.0,0.0,0.0,0.0,0.0,0.0,0.0,0.0,0.0,0.0,0.0,0.0,0.0,0.0,0.0,0.0,0.0,0.0,0.0,0.0,0.0,0.0,0.0,0.0,0.0,0.0,0.0,0.0,0.0,0.0,0.0,0.0,0.0,0.0,0.0,0.0,0.0,0.0,0.0,0.0,0.0,0.0,0.0,0.0,0.0,0.0,0.0,0.0,0.0,0.0,0.0,0.0,0.0,0.0,0.0,0.0,0.0,0.0,0.0,0.0,0.0,0.0,0.0,0.0,0.0,0.0,0.0,0.0,0.0,0.0,0.0,0.0,0.0,0.0,0.0,0.0,0.0,0.0,0.0,0.0,0.0,0.0,0.0,0.0,0.0,0.0,0.0,0.0,0.0,0.0,0.0,0.0,0.0,0.0,0.0,0.0,0.0,0.0,0.0,3.7084,3.8687,3.8726,3.8277,3.7301,3.5681,3.402,0.0,0.0,0.0,0.0,0.0,0.0,0.0,0.0,0.0,0.0,0.0,0.0,0.0,0.0,0.0,0.0,0.0,0.0,0.0,0.0,0.0,0.0,0.0,0.0,0.0,0.0,0.0,0.0,0.0,0.0,0.0,0.0,0.0,0.0,0.0,0.0,0.0,0.0,0.0,0.0,0.0,0.0,0.0,0.0,0.0,0.0,0.0,0.0,0.0,0.0,0.0,0.0,0.0,0.0,0.0,0.0,0.0,0.0,0.0,0.0,0.0,0.0,0.0,0.0,0.0,0.0,0.0,0.0,0.0,0.0,0.0,0.0,0.0,0.0,0.0,0.0,0.0,0.0,0.0,0.0,0.0,0.0,0.0,0.0,0.0,0.0,0.0,0.0,0.0,0.0,0.0,0.0,0.0,0.0,0.0,0.0,0.0,0.0,0.0,0.0,0.0,0.0,0.0,0.0,0.0,0.0,0.0,0.0,3.8551,3.9585,3.9644,3.8882,3.734,3.6283,3.4902,0.0,0.0,0.0,0.0,0.0,0.0,0.0,0.0,0.0,0.0,0.0,0.0,0.0,0.0,0.0,0.0,0.0,0.0,0.0,0.0,0.0,0.0,0.0,0.0,0.0,0.0,0.0,0.0,0.0,0.0,0.0,0.0,0.0,0.0,0.0,0.0,0.0,0.0,0.0,0.0,0.0,0.0,0.0,0.0,0.0,0.0,0.0,0.0,2.8189,0.0,0.0,0.0,0.0,0.0,0.0,0.0,0.0,0.0,0.0,0.0,0.0,0.0,0.0,0.0,0.0,0.0,0.0,0.0,0.0,0.0,0.0,0.0,0.0,0.0,0.0,0.0,0.0,0.0,0.0,0.0,0.0,0.0,0.0,0.0,0.0,0.0,0.0,0.0,0.0,0.0,0.0,0.0,0.0,0.0,0.0,0.0,0.0,0.0,0.0,0.0,0.0,0.0,0.0,0.0,0.0,0.0,0.0,0.0,3.9624,4.0424,4.0464,3.9852,3.8555,3.7693,3.6009,0.0,0.0,0.0,0.0,0.0,0.0,0.0,0.0,0.0,0.0,0.0,0.0,0.0,0.0,0.0,0.0,0.0,0.0,0.0,0.0,0.0,0.0,0.0,0.0,0.0,0.0,0.0,0.0,0.0,0.0,0.0,0.0,0.0,0.0,0.0,0.0,0.0,0.0,0.0,0.0,0.0,0.0,0.0,0.0,0.0,0.0,0.0,0.0,0.0,0.0,0.0,0.0,0.0,0.0,0.0,0.0,0.0,0.0,0.0,0.0,0.0,0.0,0.0,0.0,0.0,0.0,0.0,0.0,0.0,0.0,0.0,0.0,0.0,0.0,0.0,0.0,0.0,0.0,0.0,0.0,0.0,0.0,0.0,0.0,0.0,0.0,0.0,0.0,0.0,0.0,0.0,0.0,0.0,0.0,0.0,0.0,0.0,0.0,0.0,0.0,0.0,0.0,0.0,0.0,0.0,0.0,0.0,3.9022,4.0294,4.1077,4.1099,4.0722,3.992,3.9039,3.7036,3.3763,0.0,0.0,0.0,0.0,0.0,0.0,0.0,0.0,0.0,0.0,0.0,0.0,0.0,0.0,0.0,0.0,0.0,0.0,0.0,0.0,0.0,0.0,0.0,0.0,0.0,0.0,0.0,0.0,0.0,0.0,0.0,0.0,0.0,0.0,0.0,0.0,0.0,0.0,2.7443,2.946,0.0,0.0,0.0,0.0,0.0,0.0,0.0,0.0,3.0579,0.0,0.0,0.0,0.0,0.0,0.0,0.0,0.0,0.0,0.0,0.0,0.0,0.0,0.0,0.0,0.0,0.0,0.0,0.0,0.0,0.0,0.0,0.0,0.0,0.0,0.0,0.0,0.0,0.0,0.0,0.0,0.0,0.0,0.0,0.0,0.0,0.0,0.0,0.0,0.0,0.0,0.0,0.0,0.0,0.0,0.0,0.0,0.0,0.0,0.0,0.0,0.0,0.0,0.0,0.0,0.0,3.7279,3.9032,4.0308,4.1171,4.1129,4.0709,3.9917,3.9058,3.7304,3.4649,0.0,0.0,0.0,0.0,0.0,0.0,0.0,0.0,0.0,0.0,0.0,0.0,0.0,0.0,0.0,0.0,0.0,0.0,0.0,0.0,0.0,0.0,0.0,0.0,0.0,0.0,0.0,0.0,0.0,0.0,0.0,0.0,0.0,0.0,0.0,0.0,0.0,0.0,0.0,3.1072,3.2018,0.0,0.0,0.0,0.0,0.0,0.0,0.0,0.0,3.2455,0.0,0.0,0.0,0.0,0.0,0.0,0.0,0.0,0.0,0.0,0.0,0.0,0.0,0.0,0.0,0.0,0.0,0.0,0.0,0.0,0.0,0.0,0.0,0.0,0.0,0.0,0.0,0.0,0.0,0.0,0.0,0.0,0.0,0.0,0.0,0.0,0.0,0.0,0.0,0.0,0.0,0.0,0.0,0.0,0.0,0.0,0.0,0.0,0.0,0.0,0.0,0.0,0.0,0.0,0.0,3.7946,3.9662,4.0722,4.1126,4.1103,4.0918,4.0512,3.9227,3.7546,0.0,0.0,0.0,0.0,0.0,0.0,0.0,0.0,0.0,0.0,0.0,0.0,0.0,0.0,0.0,0.0,0.0,0.0,0.0,0.0,0.0,0.0,0.0,0.0,0.0,0.0,0.0,0.0,0.0,0.0,0.0,0.0,0.0,0.0,0.0,0.0,0.0,0.0,0.0,0.0,3.3157,3.4112,3.4528,0.0,0.0,0.0,0.0,0.0,0.0,3.4752,3.4459,0.0,0.0,0.0,0.0,0.0,0.0,0.0,0.0,0.0,0.0,0.0,0.0,0.0,0.0,0.0,0.0,0.0,0.0,0.0,0.0,0.0,0.0,0.0,0.0,0.0,0.0,0.0,0.0,0.0,0.0,0.0,0.0,0.0,0.0,0.0,0.0,0.0,0.0,0.0,0.0,0.0,0.0,0.0,0.0,0.0,0.0,0.0,0.0,0.0,0.0,0.0,0.0,0.0,0.0,0.0,3.8586,4.0253,4.111,4.1104,4.1116,4.1114,4.1085,3.9408,3.7706,0.0,0.0,0.0,0.0,0.0,0.0,0.0,0.0,0.0,0.0,0.0,0.0,0.0,0.0,0.0,0.0,0.0,0.0,0.0,0.0,0.0,0.0,0.0,0.0,0.0,0.0,0.0,0.0,0.0,0.0,0.0,0.0,0.0,0.0,0.0,0.0,0.0,0.0,0.0,0.0,0.0,3.5962,3.63,3.7001,0.0,0.0,0.0,0.0,3.6746,3.6635,0.0,0.0,0.0,0.0,0.0,0.0,0.0,0.0,0.0,0.0,0.0,0.0,0.0,0.0,0.0,0.0,0.0,0.0,0.0,0.0,0.0,0.0,0.0,0.0,0.0,0.0,0.0,0.0,0.0,0.0,0.0,0.0,0.0,0.0,0.0,0.0,0.0,0.0,0.0,0.0,0.0,0.0,0.0,0.0,0.0,0.0,0.0,0.0,0.0,0.0,0.0,0.0,0.0,0.0,0.0,0.0,3.858,4.0233,4.1107,4.11,4.1109,4.1105,4.1086,3.9429,3.7669,0.0,0.0,0.0,0.0,0.0,0.0,0.0,0.0,0.0,0.0,0.0,0.0,0.0,0.0,0.0,0.0,0.0,0.0,0.0,0.0,0.0,0.0,0.0,0.0,0.0,0.0,0.0,0.0,0.0,0.0,0.0,0.0,0.0,0.0,0.0,0.0,0.0,0.0,0.0,0.0,0.0,3.6437,3.7968,3.8266,3.8594,0.0,0.0,3.8482,3.925,3.8765,0.0,0.0,0.0,0.0,0.0,0.0,0.0,0.0,0.0,0.0,0.0,0.0,0.0,0.0,0.0,0.0,0.0,0.0,0.0,0.0,0.0,0.0,0.0,0.0,0.0,0.0,0.0,0.0,0.0,0.0,0.0,0.0,0.0,0.0,0.0,0.0,0.0,0.0,0.0,0.0,0.0,0.0,0.0,0.0,0.0,0.0,0.0,0.0,0.0,0.0,0.0,0.0,0.0,0.0,0.0,3.6852,3.8589,4.0264,4.1108,4.1115,4.1111,4.1081,4.1045,3.9351,3.7624,0.0,0.0,0.0,0.0,0.0,0.0,0.0,0.0,0.0,0.0,0.0,0.0,0.0,0.0,0.0,0.0,0.0,0.0,0.0,0.0,0.0,0.0,0.0,0.0,0.0,0.0,0.0,0.0,0.0,0.0,0.0,0.0,0.0,0.0,0.0,0.0,0.0,0.0,0.0,0.0,0.0,0.0,4.0499,4.1106,0.0,0.0,0.0,4.1592,4.1967,0.0,0.0,0.0,0.0,0.0,0.0,0.0,0.0,0.0,0.0,0.0,0.0,0.0,0.0,0.0,0.0,0.0,0.0,0.0,0.0,0.0,0.0,0.0,0.0,0.0,0.0,0.0,0.0,0.0,0.0,0.0,0.0,0.0,0.0,0.0,0.0,0.0,0.0,0.0,0.0,0.0,0.0,0.0,0.0,0.0,0.0,0.0,0.0,0.0,0.0,0.0,0.0,0.0,0.0,0.0,0.0,0.0,3.8592,4.0249,4.1081,4.1086,4.1075,4.1039,4.0981,3.931,0.0,0.0,0.0,0.0,0.0,0.0,0.0,0.0,0.0,0.0,0.0,0.0,0.0,0.0,0.0,0.0,0.0,0.0,0.0,0.0,0.0,0.0,0.0,0.0,0.0,0.0,0.0,2.3776,0.0,0.0,0.0,0.0,0.0,0.0,0.0,0.0,0.0,0.0,0.0,0.0,0.0,0.0,4.1476,4.251,4.3446,4.404,0.0,0.0,4.4036,4.4036,4.3274,4.2435,0.0,0.0,0.0,0.0,0.0,0.0,0.0,0.0,0.0,0.0,0.0,0.0,0.0,0.0,0.0,0.0,0.0,0.0,0.0,0.0,0.0,0.0,0.0,0.0,0.0,0.0,0.0,0.0,0.0,0.0,0.0,0.0,0.0,0.0,0.0,0.0,0.0,0.0,0.0,0.0,0.0,0.0,0.0,0.0,0.0,0.0,0.0,0.0,0.0,0.0,0.0,0.0,0.0,0.0,0.0,3.8593,4.0258,4.1072,4.1013,4.0994,4.102,4.0964,3.933,3.7964,0.0,0.0,0.0,0.0,0.0,0.0,0.0,0.0,0.0,0.0,0.0,0.0,0.0,0.0,0.0,0.0,0.0,0.0,0.0,0.0,0.0,0.0,0.0,0.0,0.0,0.0,0.0,0.0,0.0,0.0,0.0,0.0,0.0,0.0,0.0,0.0,0.0,0.0,0.0,0.0,0.0,4.1705,4.3372,4.4352,4.4922,0.0,0.0,4.4914,4.4914,4.4192,4.3313,4.2454,0.0,0.0,0.0,0.0,0.0,0.0,0.0,0.0,0.0,0.0,0.0,0.0,0.0,0.0,0.0,0.0,0.0,0.0,0.0,0.0,0.0,0.0,0.0,0.0,0.0,0.0,0.0,0.0,0.0,0.0,0.0,0.0,0.0,0.0,0.0,0.0,0.0,0.0,0.0,0.0,0.0,0.0,0.0,0.0,0.0,0.0,0.0,0.0,0.0,0.0,0.0,0.0,0.0,3.7315,3.8528,4.0199,4.1019,4.0999,4.0991,4.0988,4.0935,3.9238,3.7948,0.0,0.0,0.0,0.0,0.0,0.0,0.0,0.0,0.0,0.0,0.0,0.0,0.0,0.0,0.0,0.0,0.0,0.0,0.0,0.0,0.0,0.0,0.0,0.0,0.0,0.0,0.0,0.0,2.7308,2.7308,2.7308,0.0,0.0,0.0,0.0,0.0,0.0,0.0,0.0,0.0,0.0,4.4555,4.5223,4.6491,0.0,0.0,4.7354,4.7354,4.7354,4.6202,4.5187,4.4836,4.3196,0.0,0.0,0.0,0.0,0.0,0.0,0.0,0.0,0.0,0.0,0.0,0.0,0.0,0.0,0.0,0.0,0.0,0.0,0.0,0.0,0.0,0.0,0.0,0.0,0.0,0.0,0.0,0.0,0.0,0.0,0.0,0.0,0.0,0.0,0.0,0.0,0.0,0.0,0.0,0.0,0.0,0.0,0.0,0.0,0.0,0.0,0.0,0.0,0.0,0.0,0.0,0.0,3.7761,3.8861,4.0524,4.1376,4.1369,4.1352,4.1334,4.1247,3.9587,3.8266,0.0,0.0,0.0,0.0,0.0,0.0,0.0,0.0,0.0,0.0,0.0,0.0,0.0,0.0,0.0,0.0,0.0,0.0,0.0,0.0,0.0,0.0,0.0,0.0,0.0,0.0,0.0,0.0,2.8283,2.85,2.9012,0.0,0.0,0.0,0.0,0.0,0.0,0.0,0.0,0.0,0.0,4.6475,4.6983,4.8291,4.9091,4.8837,4.9032,4.9111,4.8837,4.7803,4.6963,4.6729,0.0,0.0,0.0,0.0,0.0,0.0,0.0,0.0,0.0,0.0,0.0,0.0,0.0,0.0,0.0,0.0,0.0,0.0,0.0,0.0,0.0,0.0,0.0,0.0,0.0,0.0,0.0,0.0,0.0,0.0,3.0784,0.0,0.0,0.0,0.0,0.0,0.0,0.0,0.0,0.0,0.0,0.0,0.0,0.0,0.0,0.0,0.0,0.0,0.0,0.0,0.0,0.0,0.0,3.8059,3.9779,4.1396,4.2225,4.2189,4.218,4.216,4.211,4.0408,3.9077,3.8205,0.0,0.0,0.0,0.0,0.0,0.0,0.0,0.0,0.0,0.0,0.0,0.0,0.0,0.0,0.0,0.0,0.0,0.0,0.0,0.0,0.0,0.0,0.0,0.0,0.0,0.0,2.842,2.8342,2.9051,0.0,0.0,0.0,0.0,0.0,0.0,0.0,0.0,0.0,0.0,4.573,4.6924,4.8525,4.952,4.9852,4.8993,4.9579,4.9813,4.9052,4.8837,4.8486,0.0,0.0,0.0,0.0,0.0,0.0,0.0,0.0,0.0,0.0,0.0,0.0,0.0,0.0,0.0,0.0,0.0,0.0,0.0,0.0,0.0,0.0,0.0,0.0,0.0,0.0,0.0,3.4264,3.4248,0.0,0.0,0.0,0.0,0.0,0.0,0.0,0.0,0.0,0.0,0.0,3.7728,3.7728,0.0,0.0,0.0,0.0,0.0,0.0,0.0,0.0,0.0,0.0,0.0,0.0,3.8889,4.0559,4.1673,4.2507,4.3053,4.3024,4.2712,4.2136,4.0986,3.9162,3.6654,0.0,0.0,0.0,0.0,0.0,0.0,0.0,0.0,0.0,0.0,0.0,0.0,0.0,0.0,0.0,0.0,0.0,0.0,0.0,0.0,0.0,0.0,0.0,0.0,0.0,3.0467,0.0,0.0,0.0,0.0,0.0,0.0,0.0,0.0,0.0,0.0,0.0,4.4445,4.6472,4.7939,4.9052,4.9599,5.0906,5.1726,0.0,0.0,0.0,0.0,0.0,0.0,0.0,0.0,0.0,0.0,0.0,0.0,0.0,0.0,4.3177,4.1439,4.0659,4.0268,4.0249,0.0,0.0,0.0,0.0,0.0,0.0,0.0,0.0,0.0,0.0,0.0,0.0,0.0,0.0,3.7773,0.0,3.7405,0.0,0.0,0.0,0.0,0.0,0.0,0.0,0.0,4.0812,4.0912,4.0385,4.0382,4.0336,0.0,3.9178,3.8022,0.0,0.0,0.0,0.0,0.0,0.0,0.0,0.0,4.0042,4.1401,4.25,4.3355,4.3885,4.3854,4.3548,4.2981,4.1563,3.9596,3.7096,3.6168,3.4679,0.0,0.0,0.0,0.0,0.0,0.0,0.0,0.0,0.0,0.0,0.0,0.0,0.0,0.0,0.0,0.0,0.0,0.0,0.0,0.0,0.0,0.0,0.0,3.2204,0.0,0.0,0.0,0.0,0.0,0.0,0.0,0.0,0.0,4.3349,4.5067,4.6963,4.8697,5.0126,5.1102,5.1414,0.0,0.0,0.0,0.0,0.0,0.0,0.0,5.3151,5.3151,5.2683,5.1921,5.0809,4.9696,4.8974,4.8974,0.0,0.0,4.4367,4.3294,4.2903,4.2903,4.4075,4.5051,4.5051,4.6183,4.7256,0.0,0.0,0.0,0.0,0.0,0.0,0.0,0.0,4.1203,4.1154,0.0,4.0262,0.0,0.0,0.0,0.0,0.0,4.0813,0.0,0.0,4.329,4.3723,4.3645,4.3615,4.3669,4.3591,4.1939,4.1154,4.0901,3.6986,0.0,0.0,0.0,0.0,0.0,0.0,4.1432,4.2317,4.3843,4.4702,4.473,4.4686,4.4621,4.4517,4.2157,4.0435,3.9507,3.7154,3.5781,3.5646,3.3286,0.0,0.0,0.0,0.0,0.0,0.0,0.0,0.0,0.0,0.0,0.0,0.0,0.0,0.0,0.0,0.0,0.0,0.0,0.0,0.0,3.25,0.0,0.0,0.0,0.0,0.0,0.0,0.0,0.0,0.0,0.0,4.5473,4.7428,4.956,5.1254,0.0,0.0,0.0,0.0,5.4049,5.4088,5.4108,5.4166,5.4205,5.4186,5.4147,5.4147,0.0,0.0,5.401,5.399,5.3815,5.3932,5.3093,5.1433,4.7354,4.6554,4.6456,4.6456,4.7178,4.7744,4.7822,4.8525,4.9325,4.6513,0.0,0.0,0.0,0.0,4.4708,4.4384,4.3797,4.3791,4.3485,4.2929,4.2629,0.0,0.0,0.0,0.0,0.0,0.0,4.3655,4.3383,4.4168,4.4265,4.37,4.3695,4.3695,4.3675,4.3183,4.2949,4.2871,4.105,3.9207,3.7453,0.0,0.0,0.0,0.0,4.1944,4.3871,4.4446,4.4994,4.5557,4.5544,4.5241,4.462,4.2686,4.1255,4.0455,3.9127,3.756,3.5781,3.4988,0.0,0.0,0.0,0.0,0.0,0.0,0.0,0.0,0.0,0.0,0.0,0.0,0.0,0.0,0.0,0.0,0.0,0.0,0.0,3.3398,3.4608,3.5506,0.0,0.0,0.0,0.0,0.0,0.0,0.0,0.0,0.0,5.0371,5.1121,5.1999,0.0,0.0,5.3717,5.3971,5.4537,5.5142,5.5747,5.6333,0.0,5.7543,5.7113,5.6704,5.6704,5.5728,5.4908,5.4927,5.442,5.399,5.401,5.3795,5.319,5.2117,5.077,5.0008,4.9989,5.0633,5.1219,5.1277,5.1902,5.2546,5.0452,4.8949,4.763,4.7097,4.7105,4.7159,4.6882,4.6417,4.6403,4.613,4.5657,4.5285,4.4814,4.43,4.3916,0.0,0.0,0.0,4.5859,4.5696,4.6195,4.6187,4.5738,4.5733,4.5532,4.5201,4.4844,4.4507,4.4169,4.3273,4.2045,4.0532,0.0,0.0,4.1478,4.2092,4.3164,4.4639,4.5022,4.5422,4.5852,4.5866,4.546,4.462,4.3247,4.2125,4.1293,4.0145,3.8779,3.727,3.6535,3.5306,0.0,0.0,0.0,0.0,0.0,0.0,0.0,0.0,0.0,0.0,0.0,2.9823,3.1015,0.0,0.0,0.0,3.2519,3.3534,3.5096,3.6599,0.0,0.0,0.0,0.0,0.0,0.0,0.0,4.9525,5.0897,5.2308,5.4006,5.4537,5.4674,5.4537,5.5083,5.5513,5.5513,0.0,5.6996,5.7523,5.7992,5.8499,5.9007,5.8656,5.8324,5.8324,5.7523,5.684,5.6801,5.6352,5.604,5.602,5.602,5.602,5.602,5.5142,5.3932,5.2722,5.2839,5.319,5.3229,5.3639,5.4068,5.3751,5.3449,5.0289,4.9021,4.9031,4.9071,4.9061,4.9012,4.8992,4.8934,4.8739,4.7932,4.7573,4.7427,4.6649,0.0,4.7495,4.7559,4.7954,4.8702,4.8776,4.8794,4.8788,4.8776,4.8379,4.7561,4.6787,4.5986,4.5212,4.4406,4.3973,4.3898,4.3112,4.2605,4.251,4.3918,4.473,4.48,4.5498,4.586,4.58,4.58,4.5432,4.4717,4.3866,4.2995,4.2106,4.0539,3.9642,3.9468,3.7967,3.6709,3.582,0.0,0.0,0.0,0.0,0.0,0.0,0.0,0.0,0.0,0.0,0.0,0.0,0.0,0.0,0.0,3.5232,0.0,3.6284,3.859,0.0,0.0,0.0,4.4367,4.532,4.758,4.977,5.1492,0.0,0.0,5.6484,5.7387,5.7328,5.5806,5.6938,5.7894,5.7914,5.8499,5.9124,5.9124,5.9202,5.9241,5.9436,5.9315,5.9158,5.9046,5.9124,5.8968,5.8929,5.8948,5.9046,5.889,5.9085,5.9026,5.9085,5.8773,5.8128,5.5005,5.4498,5.4478,5.4576,5.4674,5.4947,5.5176,5.4463,5.3014,5.2428,5.2496,5.2558,5.2202,5.1609,5.159,5.0889,4.9673,4.9401,4.8943,4.83,4.8105,4.8135,4.8312,4.8331,4.8476,4.8697,4.8713,4.8713,4.8733,4.8713,4.8619,4.8407,4.8193,4.799,4.7795,4.7543,4.7408,4.7378,4.7112,4.6025,4.42,4.4497,4.5008,4.5606,4.5756,4.5814,4.58,4.58,4.5722,4.551,4.4717,4.3885,4.3015,4.197,4.0829,3.9584,3.91,3.8191,3.6693,3.5831,0.0,0.0,0.0,0.0,0.0,0.0,0.0,0.0,0.0,3.4234,3.529,0.0,3.5671,0.0,3.734,3.8219,3.8863,4.1222,0.0,0.0,4.5109,4.7276,4.8736,5.0028,5.1726,5.4108,5.5318,5.6372,5.7382,5.8265,5.8656,5.8246,5.8538,5.8792,5.8812,5.8948,5.9358,5.9944,6.008,6.0334,6.0861,6.051,5.9885,5.9222,5.9124,5.9124,5.9124,5.9124,5.9124,5.9124,5.9124,5.9124,5.9163,5.9124,5.8909,5.807,5.7894,5.7894,5.7894,5.7855,5.7914,5.6989,5.6507,5.6017,5.585,5.5782,5.4343,5.3487,5.3032,5.3025,5.2511,5.1655,5.1606,5.1342,5.0872,5.0853,5.0853,5.0872,5.0906,5.0927,5.0918,5.0549,5.0393,5.0373,5.0003,4.9624,4.9284,4.9284,4.9061,4.8662,4.8603,4.8593,4.8561,4.8526,4.7796,4.6399,4.6344,4.6565,4.698,4.6593,4.638,4.6361,4.5993,4.58,4.578,4.5007,4.4388,4.3885,4.2686,4.1564,4.0655,3.9901,3.9062,3.8102,3.7251,3.6613,0.0,0.0,0.0,0.0,0.0,0.0,0.0,0.0,0.0,0.0,0.0,3.8472,3.8944,4.0135,4.1052,4.1498,4.3899,4.5578,4.5987,4.7978,4.9794,5.1121,5.237,5.3834,5.565,5.6626,5.7601,5.8788,5.9378,5.9846,6.0198,6.0256,6.0119,5.9807,5.9983,6.0451,6.09,6.0978,6.1115,6.1642,6.1291,6.0822,6.0393,6.0256,6.0256,6.0256,6.0256,6.0256,6.0256,6.0256,6.0256,6.0256,6.0256,6.0256,6.0256,6.0276,5.9963,5.928,5.9124,5.9124,5.8681,5.8604,5.8598,5.8596,5.8363,5.5535,5.4264,5.4161,5.4052,5.396,5.3851,5.3734,5.3676,5.3676,5.3676,5.3683,5.3695,5.3747,5.374,5.365,5.2958,5.266,5.2621,5.1881,5.1162,5.0481,5.0364,4.9887,4.9079,4.8982,4.8891,4.8825,4.8832,4.8787,4.8722,4.8709,4.8623,4.8392,4.7657,4.727,4.725,4.6419,4.5955,4.5916,4.5181,4.4717,4.4581,4.315,4.228,4.2125,4.0771,3.9997,3.9966,3.9166,3.8694,0.0,3.8584,0.0,0.0,0.0,0.0,0.0,0.0,0.0,0.0,4.1188,4.1757,4.1785,4.3244,4.424,4.4377,4.6602,4.8434,4.9309,5.077,5.2117,5.3112,5.4556,5.5845,5.6805,5.7641,5.8734,6.0095,6.049,6.0881,6.1447,6.1544,6.1291,6.0783,6.1154,6.1603,6.1701,6.1701,6.1622,6.1701,6.1701,6.1642,6.1661,6.1583,6.1701,6.1603,6.1622,6.1661,6.1642,6.1583,6.1622,6.1701,6.1661,6.1661,6.1583,6.1564,6.1134,5.9944,5.9592,5.9436,5.9224,5.8606,5.8604,5.8602,5.8544,5.7918,5.7308,5.6645,5.601,5.5331,5.4619,5.394,5.3615,5.3629,5.3615,5.3615,5.3635,5.3649,5.3657,5.3676,5.3545,5.3499,5.3552,5.3377,5.3199,5.2974,5.2282,5.1855,5.168,5.0977,5.0622,5.061,5.0577,5.053,5.0505,0.0,0.0,0.0,4.8237,4.8159,4.8121,4.7308,4.6844,4.6844,4.6013,0.0,4.4639,4.4291,4.3788,4.3092,4.2744,0.0,0.0,0.0,0.0,0.0,0.0,0.0,0.0,0.0,0.0,0.0,4.4396,4.4245,4.3118,4.441,4.5312,4.5351,4.6249,4.7167,4.7849,4.9588,5.1033,5.1906,5.2889,5.4108,5.563,5.6177,5.6918,5.8445,5.9378,6.0002,6.0368,6.0998,6.1505,6.1661,6.1701,6.1642,6.1466,6.1564,6.1701,6.1701,6.1701,6.1701,6.1701,6.1701,6.1701,6.1701,6.1701,6.1701,6.1701,6.1701,6.1701,6.1701,6.1701,6.1701,6.1701,6.1701,6.1701,6.1701,6.1701,6.1603,6.1291,6.1193,6.1213,6.0248,0.0,5.9841,5.9822,0.0,5.9413,5.9005,5.8557,5.7784,5.6936,5.6114,5.568,5.5249,5.4881,5.4881,5.4866,5.4831,5.4866,5.4876,5.4871,5.4477,5.431,5.4349,5.3941,5.3747,5.3689,5.3249,5.3062,5.3023,5.2557,5.2122,5.1701,5.1659,5.1412,5.0966,5.0902,5.0484,4.9633,4.9243,4.9049,4.901,4.8198,4.7753,4.7715,4.6883,0.0,0.0,0.0,0.0,0.0,0.0,0.0,0.0,4.2873,0.0,4.3247,4.2905,4.306,4.3892,4.4436,4.5084,4.5979,4.7707,4.8002,4.6342,4.7425,4.8174,4.8211,4.9346,5.0307,5.0761,5.1933,5.3203,5.4452,5.5015,5.5963,5.7489,5.7836,5.8343,5.9495,6.0139,6.0549,6.0998,6.1388,6.1681,6.1701,6.1701,6.1701,6.1701,6.1701,6.1701,6.1701,6.1701,6.1701,6.1701,6.1701,6.1701,6.1701,6.1701,6.1701,6.1701,6.1701,6.1701,6.1701,6.1701,6.1701,6.1701,6.1701,6.1701,6.1701,6.1701,6.1701,6.1701,6.1701,6.1701,6.1099,6.1099,6.1099,6.1099,6.1041,6.0383,6.0112,6.0054,0.0,0.0,0.0,5.7605,5.7234,5.6629,5.6629,5.6501,5.6314,5.6346,5.6285,5.6078,5.5413,5.5113,5.5098,5.4458,5.4155,5.4142,5.3967,5.3895,5.3895,5.3698,5.3204,5.2574,5.25,5.2117,5.1409,5.1215,5.1138,5.1099,5.0326,4.9919,4.99,4.9068,4.8624,4.8624,4.7792,4.7328,4.7308,4.5993,4.5278,4.5258,4.4581,4.4194,4.4208,4.4194,4.4523,4.52,4.5272,4.5568,4.6317,4.7198,4.7886,4.8161,5.0374,5.1089,4.958,5.0269,5.0766,5.0757,5.2073,5.3022,5.3344,5.3999,5.5136,5.6875,5.7051,5.7654,5.9084,5.9328,5.9636,6.0432,6.0666,6.09,6.1564,6.1681,6.1701,6.1701,6.1701,6.1701,6.1701,6.1701,6.1701,6.1701,6.1701,6.1701,6.1701,6.1701,6.1701,6.1701,6.1701,6.1701,6.1701,6.1701,6.1701,6.1701,6.1701,6.1701,6.1701,6.1701,6.1701,6.1701,6.1701,6.1701,6.1701,6.1701,6.1701,6.1099,6.1099,6.1099,6.1099,6.1099,6.0983,6.0925,6.0789,5.9279,5.8563,5.8431,5.8428,5.8351,5.8254,5.8254,5.7848,5.7153,5.7151,5.6762,5.6098,5.5962,5.5955,5.6005,5.5904,5.5845,5.5787,5.5075,5.4726,5.4648,5.3925,5.3445,5.3352,5.3336,5.3243,5.3085,5.2372,5.2024,5.2005,5.1177,5.0732,5.0732,4.9939,4.9513,4.9494,4.8662,4.8237,4.8217,4.7966,4.7869,4.785,4.7753,4.769,4.768,4.7613,4.7729,4.7854,4.7865,4.7913,4.8075,4.8868,5.0042,5.1547,5.2733,5.2991,5.218,5.2877,5.3376,5.337,5.366,5.4361,5.5732,5.6064,5.6858,5.8515,5.8769,5.914,6.0096,6.0229,6.0529,6.1334,6.1525,6.1505,6.1661,6.1701,6.1701,6.1701,6.1798,6.1759,6.1798,6.1701,6.1701,6.1701,6.1701,6.1701,6.1896,6.172,6.1857,6.1701,6.1818,6.1915,6.1915,6.1857,6.1837,6.174,6.174,6.1701,6.1701,6.1701,6.1701,6.1701,6.1701,6.1701,6.1701,6.1701,6.1701,6.1099,6.1099,6.1099,6.1099,6.1099,6.1099,6.1099,6.1041,6.0306,5.9706,5.9319,5.93,5.9048,5.8604,5.8584,5.8391,5.8004,5.8004,5.7809,5.7478,5.7458,5.7224,5.6885,5.6866,5.6629,5.6199,5.5761,5.5552,5.5513,5.5075,5.4617,5.4191,5.3749,5.3498,5.3456,5.3111,5.2879,5.2875,5.1583,5.0906,5.0906,5.0538,5.0345,5.0364,4.9552,4.9107,4.9088,4.8662,4.8411,4.8411,4.8411,4.8406,4.8421,4.8851,4.9301,4.9741,5.0201,5.067,5.1141,5.1509,5.2345,5.3668,5.4549,5.5126,5.5244,5.5247,5.5248,5.5303,5.6074,5.6972,5.7779,5.7874,5.8445,5.9715,5.9817,6.0154,6.0918,6.1113,6.1266,6.1633,6.1704,6.1713,6.1701,6.1701,6.1701,6.174,6.2052,6.2384,6.2423,6.2822,6.2924,6.2544,6.2794,6.3086,6.3086,6.3106,6.3111,6.3123,6.3123,6.3103,6.3064,6.2803,6.2442,6.2364,6.2071,6.174,6.174,6.1701,6.1701,6.1701,6.1701,6.1701,6.1701,6.1701,6.1701,6.1099,6.1099,6.1099,6.1099,6.1099,6.1099,6.1099,6.1099,6.1099,6.077,6.0228,6.017,5.9783,5.9203,5.9145,5.9068,5.8913,5.8894,5.8778,5.8604,5.8584,5.8273,5.7727,5.7669,5.724,5.6536,5.6388,5.6295,5.6101,5.6029,5.5683,5.5064,5.4407,5.4058,5.4058,5.3884,5.3788,5.3691,5.2279,5.1486,5.1486,5.1505,5.1486,5.1447,5.0887,5.0538,5.0519,4.99,4.9552,4.9552,4.9552,4.9552,4.9571,5.0171,5.0848,5.147,5.2117,5.2872,5.3691,5.3975,5.4471,5.5393,5.6242,5.7033,5.762,5.7449,5.7137,5.7147,5.8121,5.8958,5.9198,5.9306,5.9728,6.0544,6.0679,6.0945,6.1559,6.1717,6.1699,6.1699,6.1716,6.1709,6.1713,6.1705,6.1807,6.21,6.2744,6.3271,6.3384,6.404,6.4216,6.3915,6.4028,6.4173,6.431,6.4247,6.4208,6.4301,6.4248,6.4133,6.4055,6.3657,6.3353,6.3236,6.2803,6.251,6.2334,6.2349,6.2403,6.2481,6.2501,6.2403,6.2462,6.2442,6.211,6.1137,6.1099,6.1157,6.1099,6.1099,6.1099,6.1099,6.1099,6.1099,6.106,6.0944,6.1002,6.0925,6.0886,6.0809,6.0402,5.9803,5.9764,5.9377,5.872,5.8584,5.8546,5.8505,5.8486,5.806,5.7287,5.7192,5.6824,5.6186,5.6051,5.5954,5.5896,5.5799,5.5702,5.5664,5.5026,5.4677,5.468,5.3732,5.3265,5.3265,5.3265,5.3265,5.3265,5.3185,5.3166,5.2975,5.3069,5.3011,5.3033,5.2917,5.2975,5.2991,5.3072,5.3172,5.3235,5.3346,5.3768,5.466,5.5374,5.6164,5.7105,5.7879,5.8399,5.8606,5.9242,5.9362,5.8921,5.883,5.9367,6.0059,6.0174,6.0531,6.1257,6.1456,6.1627,6.167,6.1704,6.1713,6.1699,6.1699,6.1717,6.1787,6.1882,6.2136,6.282,6.362,6.4184,6.4251,6.4919,6.545,6.5208,6.4864,6.4445,6.447,6.432,6.4525,6.4466,6.4367,6.4512,6.4531,6.4414,6.4178,6.415,6.3991,6.3816,6.3852,6.406,6.393,6.3696,6.3755,6.3945,6.4023,6.3887,6.3399,6.2627,6.2588,6.2085,6.1563,6.1137,6.1099,6.1099,6.1099,6.1099,6.1099,6.1099,6.1099,6.1099,6.1099,6.1099,6.0905,6.0615,6.0615,6.0441,6.0093,6.0074,5.9841,5.9397,5.9377,5.8894,5.812,5.8081,5.7888,5.7501,5.7037,5.6515,5.6051,5.6012,5.6012,5.5973,5.5683,5.5509,5.5492,5.518,5.4987,5.4851,5.4,5.3498,5.3498,5.3514,5.3494,5.3498,5.3498,5.3498,5.3498,5.3498,5.3498,5.3517,5.3981,5.4274,5.4334,5.5221,5.6111,5.7,5.7366,5.7695,5.8097,5.8891,5.9394,5.945,6.0224,6.0552,6.0344,6.0328,6.0572,6.0881,6.0992,6.1169,6.1545,6.1627,6.1648,6.1621,6.1681,6.1717,6.1704,6.1711,6.1932,6.2421,6.2928,6.3338,6.3827,6.451,6.5036,6.5111,6.582,6.6307,6.6327,6.6034,6.5879,6.5781,6.5819,6.5795,6.5815,6.5838,6.582,6.5723,6.5332,6.5078,6.5058,6.4725,6.4452,6.4217,6.4309,6.4298,6.4376,6.4325,6.4297,6.4297,6.4297,6.3887,6.369,6.3594,6.3013,6.2394,6.1795,6.1563,6.1466,6.1408,6.1215,6.1099,6.1099,6.1099,6.1099,6.1099,6.1099,6.1099,6.1099,6.1099,6.1099,6.1099,6.1099,6.0789,6.0248,6.0228,5.9783,5.9068,5.8971,5.8836,5.8565,5.8004,5.7327,5.6786,5.6708,5.6708,5.6708,5.6708,5.6728,5.6728,5.6728,5.6728,5.6553,5.5509,5.4677,5.4252,5.4175,5.4175,5.4194,5.4175,5.4194,5.4194,5.4407,5.4542,5.4544,5.5354,5.5857,5.5935,5.6942,5.7928,5.8566,5.8836,5.8952,5.9029,5.9745,6.0228,6.0344,6.0809,6.1137,6.1171,6.1294,6.1313,6.1421,6.144,6.1495,6.1558,6.1568,6.1576,6.1588,6.1654,6.1783,6.1993,6.2147,6.2373,6.3261,6.4043,6.4627,6.4743,6.5389,6.5956,6.6014,6.6474,6.6867,6.6893,6.6848,6.682,6.6892,6.6757,6.6894,6.6894,6.6776,6.6737,6.6894,6.6269,6.5957,6.5897,6.5312,6.5137,6.5371,6.5212,6.498,6.5019,6.5,6.5,6.5258,6.5075,6.5067,6.369,6.371,6.3671,6.3574,6.3497,6.2685,6.2356,6.2278,6.1485,6.1137,6.1176,6.1099,6.1099,6.1099,6.1099,6.1099,6.1099,6.1099,6.1099,6.1099,6.1099,6.1079,6.106,6.1041,6.0616,5.9881,5.9841,5.9435,5.87,5.8584,5.8526,5.843,5.8333,5.8409,5.8349,5.8312,5.843,5.8294,5.8294,5.8391,5.8391,5.8294,5.7385,5.607,5.5896,5.5896,5.5896,5.5896,5.5896,5.5896,5.6611,5.7076,5.7153,5.7849,5.8273,5.8368,5.847,5.8548,5.878,5.9417,5.9841,5.9919,6.0518,6.1002,6.0925,6.1041,6.1137,6.1192,6.121,6.1259,6.1352,6.14,6.1441,6.1503,6.1518,6.1607,6.1627,6.1829,6.2063,6.2719,6.3008,6.34,6.4159,6.4996,6.5456,6.568,6.627,6.6767,6.6706,6.6823,6.6871,6.6873,6.6856,6.6831,6.6878,6.6881,6.6881,6.6881,6.6878,6.6884,6.6904,6.6855,6.6806,6.6769,6.65,6.6444,6.6679,6.6699,6.6523,6.6445,6.6387,6.6406,6.6133,6.6582,6.6507,6.5006,6.4522,6.4522,6.4213,6.3671,6.3362,6.3226,6.3149,6.2298,6.193,6.1834,6.135,6.1099,6.1099,6.1099,6.1099,6.1099,6.1099,6.1099,6.1099,6.1099,6.1099,6.1099,6.1099,6.0983,6.0731,6.0654,6.0248,5.9532,5.9435,5.9126,5.8662,5.8584,5.8602,5.8583,5.8602,5.8604,5.8586,5.8604,5.8584,5.8642,5.8584,5.8255,5.7714,5.7656,5.7656,5.7675,5.7657,5.7657,5.7675,5.7965,5.8139,5.8159,5.841,5.8873,5.9355,5.9435,5.965,6.0152,6.0499,6.0673,6.0692,6.0905,6.1099,6.1099,6.1099,6.1099,6.1137,6.1156,6.1191,6.1261,6.1306,6.1386,6.1466,6.1933,6.2301,6.2472,6.2844,6.3349,6.3725,6.4171,6.4774,6.5137,6.5876,6.6395,6.6463,6.6692,6.6823,6.6843,6.6837,6.6831,6.6817,6.681,6.681,6.6831,6.6843,6.6843,6.6843,6.6843,6.6843,6.6843,6.6844,6.6789,6.677,6.6859,6.6887,6.6832,6.6836,6.6894,6.6894,6.6894,6.6894,6.6875,6.6894,6.6894,6.5895,6.5431,6.5373,6.5044,6.4503,6.4213,6.4116,6.4,6.3187,6.2839,6.2665,6.1892,6.1524,6.1466,6.1215,6.1099,6.1099,6.1099,6.1099,6.1099,6.1099,6.1099,6.1099,6.1099,6.1099,6.1099,6.1099,6.0809,6.0364,6.0286,5.9977,5.9455,5.9397,5.9397,5.9415,5.9397,5.9416,5.9398,5.9416,5.9416,5.9397,5.9416,5.9397,5.9397,5.9415,5.9124,5.8642,5.8604,5.8604,5.8623,5.8855,5.9126,5.9377,5.9397,5.9648,6.0189,6.0286,6.0519,6.1002,6.1099,6.1099,6.1099,6.1099,6.1099,6.1099,6.1099,6.1215,6.1427,6.1524,6.1601,6.1947,6.2075,6.1989,6.1939,6.2565,6.3099,6.3197,6.3687,6.4159,6.4607,6.534,6.5842,6.6034,6.6517,6.6765,6.6862,6.6837,6.6803,6.6803,6.6795,6.6806,6.6806,6.6778,6.6759,6.6759,6.6759,6.6783,6.6803,6.681,6.6803,6.6803,6.6785,6.6798,6.6804,6.6815,6.6848,6.6881,6.6889,6.6892,6.6893,6.6894,6.6894,6.6894,6.6894,6.6894,6.6205,6.6127,6.6185,6.6089,6.5876,6.5257,6.4986,6.4851,6.4077,6.371,6.3594,6.2781,6.2414,6.224,6.1621,6.1176,6.1215,6.1157,6.1099,6.1099,6.1099,6.1099,6.1099,6.1099,6.1099,6.1099,6.1099,6.1099,6.1002,6.0963,6.0925,6.1002,6.0867,6.0789,6.1021,6.0847,6.0944,6.0886,6.0828,6.0925,6.1079,6.0905,6.0867,6.0925,6.0925,6.0228,5.8797,5.8739,5.8836,5.8874,5.9493,6.0248,6.0789,6.0886,6.1021,6.0963,6.106,6.106,6.1079,6.1099,6.1099,6.1137,6.1137,6.1253,6.1273,6.135,6.166,6.224,6.2433,6.2685,6.3361,6.3573,6.33,6.2751,6.3344,6.388,6.3945,6.4072,6.4496,6.5387,6.6182,6.672,6.6778,6.6772,6.681,6.6803,6.6795,6.6795,6.6787,6.6787,6.6795,6.6787,6.6741,6.6692,6.6671,6.6661,6.6702,6.675,6.6759,6.6759,6.675,6.6767,6.6764,6.6764,6.6805,6.6823,6.6834,6.6848,6.6871,6.6875,6.6894,6.6894,6.6894,6.6894,6.6894,6.6205,6.6205,6.6205,6.6205,6.6166,6.5915,6.5818,6.574,6.4948,6.4599,6.4445,6.369,6.3284,6.3091,6.2394,6.2008,6.195,6.1408,6.1099,6.1137,6.1118,6.1099,6.1099,6.1099,6.1099,6.1099,6.1099,6.1099,6.1099,6.1099,6.1099,6.1099,6.1099,6.1099,6.1099,6.1099,6.1099,6.1099,6.1099,6.1099,6.1099,6.1099,6.1099,6.1099,6.1099,6.0809,6.0364,6.0325,6.0306,6.0267,6.0576,6.0847,6.106,6.1099,6.1099,6.1099,6.1099,6.1099,6.1099,6.1118,6.1137,6.1234,6.164,6.1969,6.2085,6.2511,6.2936,6.3265,6.3284,6.3458,6.371,6.4271,6.4193,6.3436,6.4166,6.4743,6.4866,6.5353,6.5913,6.6234,6.6556,6.672,6.6791,6.6803,6.6787,6.678,6.6751,6.6732,6.6732,6.6692,6.6661,6.6661,6.6638,6.6638,6.6626,6.6613,6.6638,6.6671,6.6682,6.6692,6.6712,6.6722,6.6732,6.6741,6.6767,6.6803,6.6798,6.6824,6.685,6.6848,6.6836,6.6855,6.6894,6.6894,6.6875,6.6205,6.6205,6.6205,6.6205,6.6205,6.6205,6.6205,6.6127,6.5663,6.545,6.5257,6.4541,6.4193,6.4,6.3265,6.2897,6.282,6.2278,6.2066,6.1892,6.1292,6.1118,6.1099,6.1099,6.1099,6.1099,6.1099,6.1099,6.1099,6.1099,6.1099,6.1099,6.1099,6.1099,6.1099,6.1099,6.1099,6.1099,6.1099,6.1099,6.1099,6.1099,6.1099,6.1099,6.1099,6.1099,6.1099,6.1099,6.1099,6.1099,6.1099,6.1099,6.1099,6.1099,6.1099,6.1099,6.1118,6.1215,6.1505,6.164,6.1776,6.2085,6.2588,6.2859,6.2975,6.3458,6.3768,6.4116,6.4174,6.429,6.4677,6.5083,6.5161,6.4716,6.5179,6.5562,6.5763,6.6213,6.6536,6.6599,6.6661,6.6673,6.6702,6.6741,6.6722,6.671,6.668,6.6661,6.6649,6.6626,6.6613,6.6601,6.6588,6.6607,6.6607,6.6575,6.6561,6.6588,6.6601,6.6626,6.6638,6.6649,6.6661,6.6671,6.6702,6.6741,6.6759,6.6789,6.6809,6.681,6.6804,6.682,6.6852,6.6859,6.6855,6.6243,6.6205,6.6205,6.6205,6.6205,6.6205,6.6205,6.6205,6.6166,6.6108,6.5953,6.5354,6.5064,6.487,6.4155,6.3768,6.3729,6.3516,6.34,6.3071,6.2182,6.1427,6.1137,6.1099,6.1099,6.1099,6.1099,6.1099,6.1099,6.1099,6.1099,6.1099,6.1099,6.1099,6.1099,6.1099,6.1099,6.1099,6.1099,6.1099,6.1099,6.1099,6.1099,6.1099,6.1099,6.1099,6.1099,6.1234,6.1215,6.1118,6.1099,6.1099,6.1118,6.1137,6.1253,6.1311,6.1234,6.1776,6.2279,6.2472,6.2723,6.3342,6.3594,6.3768,6.3806,6.4019,6.4406,6.4967,6.5044,6.5334,6.5876,6.6069,6.605,6.6166,6.6071,6.6223,6.6439,6.6524,6.6567,6.6588,6.6581,6.6606,6.6624,6.661,6.6626,6.662,6.662,6.6601,6.6601,6.6588,6.6588,6.6575,6.6581,6.6567,6.6567,6.6533,6.6533,6.6533,6.6567,6.6561,6.6588,6.6601,6.6613,6.6638,6.6649,6.6691,6.6702,6.673,6.677,6.6778,6.6771,6.6792,6.6804,6.682,6.6828,6.6786,6.6205,6.6205,6.6205,6.6205,6.6205,6.6205,6.6205,6.6205,6.6205,6.6127,6.5992,6.5837,6.5779,6.5025,6.4657,6.4522,6.4019,6.369,6.3632,6.3323,6.222,6.1311,6.1118,6.1157,6.1195,6.1215,6.1099,6.1099,6.1118,6.1099,6.1099,6.1099,6.1099,6.1099,6.1099,6.1099,6.1099,6.1099,6.1099,6.1099,6.1137,6.1099,6.1099,6.1137,6.1157,6.1195,6.1737,6.1737,6.1157,6.1099,6.1099,6.1253,6.1718,6.2065,6.2143,6.2627,6.3052,6.3284,6.3362,6.3477,6.3709,6.4348,6.4657,6.4696,6.5199,6.5586,6.5876,6.5876,6.5934,6.6147,6.6205,6.6205,6.6205,6.6245,6.634,6.6411,6.6442,6.6489,6.6567,6.6581,6.6588,6.6594,6.6594,6.6614,6.6645,6.6684,6.6736,6.6892,6.6878,6.698,6.6655,6.6562,6.6543,6.6524,6.6524,6.6489,6.6504,6.6524,6.6519,6.6553,6.6567,6.6594,6.6601,6.662,6.6645,6.6626,6.6645,6.6671,6.6722,6.6741,6.6739,6.6791,6.6805,6.6804,6.7752,6.7307,6.7288,6.7075,6.6766,6.6766,6.6533,6.6243,6.6205,6.6205,6.6205,6.6205,6.6205,6.6127,6.5702,6.5508,6.5412,6.4967,6.4793,6.4696,6.4387,6.3478,6.2491,6.2182,6.2201,6.2124,6.1795,6.166,6.1582,6.1292,6.1118,6.1099,6.1099,6.1099,6.1099,6.1099,6.1118,6.1099,6.1099,6.1099,6.1099,6.1466,6.166,6.1756,6.193,6.2182,6.2278,6.2704,6.2549,6.195,6.1969,6.2182,6.222,6.2646,6.2936,6.2994,6.3458,6.3806,6.4174,6.4251,6.4405,6.4734,6.5296,6.545,6.5566,6.5953,6.6205,6.6166,6.6185,6.6205,6.6205,6.6205,6.6205,6.6205,6.6225,6.6303,6.6415,6.6409,6.6458,6.6524,6.6538,6.6553,6.6561,6.6581,6.6767,6.699,6.7184,6.7413,6.7646,6.7553,6.7499,6.7363,6.7383,6.7577,6.746,6.7383,6.7208,6.7111,6.6878,6.68,6.6737,6.6733,6.6553,6.6561,6.6581,6.6581,6.6594,6.6588,6.6613,6.6649,6.6669,6.6702,6.6741,6.6787,6.6791,6.8852,6.8796,6.8796,6.8352,6.7675,6.7636,6.7172,6.6456,6.6417,6.6321,6.6224,6.6205,6.6205,6.6205,6.6089,6.6147,6.6147,6.5953,6.605,6.5799,6.5392,6.4619,6.4019,6.3478,6.34,6.3323,6.2839,6.2607,6.2414,6.1795,6.1485,6.1621,6.1563,6.1447,6.1679,6.1543,6.1408,6.1563,6.1679,6.1679,6.1776,6.222,6.2511,6.2607,6.3071,6.3381,6.3497,6.369,6.3497,6.2723,6.3342,6.3478,6.3574,6.369,6.3845,6.3903,6.4077,6.4482,6.4966,6.5121,6.5353,6.5876,6.605,6.6205,6.6127,6.6166,6.6205,6.6205,6.6205,6.6282,6.6475,6.6456,6.6688,6.6785,6.663,6.6593,6.661,6.6566,6.6539,6.6629,6.6703,6.678,6.6761,6.6839,6.7091,6.7868,6.7965,6.8136,6.8369,6.8412,6.849,6.8587,6.8703,6.8898,6.8645,6.8373,6.8121,6.7907,6.7557,6.7363,6.7227,6.7072,6.6683,6.6524,6.6538,6.6553,6.6572,6.6581,6.6653,6.6588,6.662,6.6638,6.6671,6.6712,6.6741,6.9396,6.8796,6.8796,6.87,6.8545,6.8506,6.8023,6.7249,6.723,6.6882,6.634,6.6224,6.6224,6.6205,6.6205,6.6205,6.6205,6.6205,6.6205,6.6166,6.6069,6.5876,6.5334,6.4445,6.3787,6.3729,6.3555,6.342,6.3323,6.3149,6.311,6.3033,6.2878,6.311,6.3032,6.2916,6.3129,6.3129,6.3071,6.2994,6.2975,6.3226,6.3458,6.3516,6.3729,6.3729,6.3845,6.4348,6.4599,6.4387,6.4038,6.3903,6.4,6.4406,6.4696,6.4851,6.5276,6.5682,6.5895,6.5895,6.5992,6.6127,6.6263,6.6205,6.6205,6.6301,6.6263,6.6205,6.6205,6.663,6.7152,6.785,6.7984,6.8003,6.8042,6.8141,6.82,6.7733,6.7437,6.76,6.8043,6.8509,6.847,6.8354,6.8529,6.8801,6.8859,6.8917,6.9111,6.9325,6.9461,6.9636,6.9616,6.9713,6.9558,6.9189,6.882,6.8548,6.8218,6.8024,6.7868,6.7577,6.7247,6.6858,6.6508,6.664,6.7082,6.6834,6.698,6.68,6.6756,6.6958,6.71,6.6969,6.7061,7.0344,6.9976,6.9976,6.9725,6.9396,6.9338,6.8874,6.8216,6.8119,6.7617,6.692,6.6804,6.6592,6.6224,6.6205,6.6205,6.6205,6.6205,6.6205,6.6205,6.6185,6.6185,6.6127,6.5412,6.4851,6.4793,6.4464,6.4329,6.4232,6.3922,6.3594,6.369,6.371,6.3594,6.369,6.3748,6.3632,6.3613,6.369,6.369,6.371,6.4116,6.458,6.4811,6.4889,6.4851,6.4967,6.5296,6.5528,6.5431,6.5102,6.4851,6.4909,6.5296,6.5508,6.5683,6.5895,6.6185,6.6185,6.6205,6.6185,6.6243,6.6533,6.6766,6.6959,6.7133,6.7404,6.7424,6.7481,6.7675,6.8061,6.841,6.8777,6.8796,6.8816,6.8819,6.882,6.8489,6.8273,6.8438,6.8762,6.8937,6.9072,6.9325,6.95,6.9539,6.9675,6.9772,7.0432,7.0588,7.051,7.0568,7.0452,7.0413,7.0335,7.0005,6.9461,6.9131,6.8801,6.8703,6.8645,6.8276,6.7888,6.7635,6.746,6.7771,6.8062,6.7732,6.7577,6.7884,6.7991,6.7831,6.7806,6.7989,6.8124,7.1291,7.1291,7.1291,7.0866,7.0266,7.0189,6.9744,6.9048,6.899,6.8487,6.7811,6.7694,6.7365,6.6766,6.6495,6.6379,6.6205,6.6205,6.6205,6.6205,6.6205,6.6205,6.6147,6.6031,6.5934,6.6108,6.5508,6.5199,6.4967,6.4503,6.4425,6.4174,6.4135,6.4348,6.4174,6.4097,6.429,6.4347,6.4367,6.4329,6.4347,6.4889,6.547,6.5837,6.5973,6.5934,6.5934,6.605,6.6147,6.6205,6.6205,6.6282,6.6359,6.6224,6.6185,6.6166,6.6166,6.6321,6.6514,6.6514,6.6533,6.6553,6.723,6.7655,6.7868,6.8177,6.8429,6.8682,6.87,6.8893,6.899,6.9338,6.9338,6.9299,6.9241,6.9206,6.9285,6.9284,6.9398,6.929,6.9675,6.9966,6.9869,6.9927,7.0121,7.0296,7.0413,7.0646,7.1248,7.1539,7.1287,7.119,7.1034,7.0976,7.0918,7.084,7.0296,7.0024,6.9616,6.9616,6.9636,6.9597,6.9364,6.8859,6.8781,6.8917,6.8859,6.8587,6.8645,6.9072,6.8937,6.854,6.8691,6.9041,6.9064,7.1291,7.1291,7.1291,7.1195,7.1079,7.1079,7.0556,6.9879,6.9802,6.9357,6.8661,6.8584,6.8487,6.8118,6.7539,6.694,6.6553,6.6514,6.6417,6.6379,6.6359,6.6301,6.634,6.6224,6.6205,6.6185,6.5973,6.5895,6.5915,6.5857,6.5489,6.5682,6.5644,6.5624,6.5586,6.576,6.5528,6.5449,6.5489,6.5508,6.5586,6.574,6.5934,6.6205,6.6205,6.6205,6.6205,6.6205,6.6205,6.6205,6.6205,6.663,6.7018,6.6669,6.6417,6.6417,6.6456,6.6746,6.7152,6.7307,6.7673,6.8177,6.8487,6.8564,6.8642,6.8796,6.9087,6.9164,6.9493,6.98,6.9821,7.0266,7.075,7.0827,7.0692,7.0735,7.0855,7.0816,7.0601,7.0241,7.0646,7.0976,7.0762,7.0626,7.0801,7.0937,7.1015,7.1093,7.1403,7.1598,7.152,7.1481,7.1501,7.1481,7.1462,7.1403,7.119,7.1073,7.084,7.0821,7.0918,7.1151,7.0937,7.0102,6.9558,6.9403,6.9344,6.9364,6.9442,6.9694,6.9442,6.9189,6.9496,6.9784,6.9546,7.1291,7.1291,7.1291,7.1291,7.1291,7.1291,7.1059,7.0711,7.0653,7.0189,6.9609,6.9415,6.9183,6.8796,6.8429,6.7907,6.7617,6.7559,6.7559,6.7501,6.7114,6.6862,6.6785,6.6475,6.6224,6.6205,6.6205,6.6243,6.6185,6.6166,6.6205,6.6166,6.6205,6.6205,6.6185,6.6127,6.6205,6.6205,6.6205,6.6205,6.6205,6.6205,6.6205,6.6205,6.6224,6.6205,6.6282,6.6727,6.6862,6.6978,6.7326,6.7734,6.7889,6.7831,6.7539,6.754,6.7502,6.7636,6.8081,6.8195,6.8388,6.8717,6.9164,6.9396,6.9551,6.9802,6.9996,7.015,7.0286,7.0672,7.0672,7.1079,7.1233,7.1291,7.1291,7.1375,7.1455,7.1494,7.124,7.094,7.117,7.1345,7.1442,7.1403,7.152,7.1598,7.1598,7.1598,7.1598,7.1598,7.1598,7.1598,7.1598,7.1598,7.1598,7.1598,7.1598,7.1598,7.1598,7.1598,7.1578,7.1539,7.1365,7.086,7.0452,7.0102,7.0413,7.0626,7.0471,7.0335,7.0374,7.0413,7.0432,7.0413,7.0215,7.1291,7.1291,7.1291,7.1291,7.1291,7.1291,7.1291,7.1291,7.1253,7.0885,7.0324,7.0228,6.9938,6.9415,6.9125,6.8932,6.8835,6.8719,6.8661,6.8506,6.8061,6.7771,6.7559,6.7191,6.6901,6.7056,6.6959,6.6514,6.6224,6.6205,6.6205,6.6205,6.6205,6.6205,6.6205,6.6205,6.6205,6.6205,6.6205,6.6205,6.6205,6.6359,6.6456,6.6533,6.663,6.6804,6.6998,6.7443,6.7733,6.7926,6.8313,6.8796,6.9012,6.9049,6.9127,6.9244,6.9012,6.8874,6.9026,6.9043,6.9181,6.9589,6.9957,7.017,7.0363,7.0711,7.1156,7.1291,7.1253,7.1214,7.1156,7.1272,7.1291,7.1291,7.1291,7.1354,7.1455,7.1513,7.1531,7.1448,7.1581,7.1598,7.1598,7.1598,7.1598,7.1598,7.1598,7.1598,7.1598,7.1598,7.1598,7.1598,7.1598,7.1598,7.1598,7.1598,7.1598,7.1598,7.1598,7.1598,7.1598,7.1578,7.1384,7.1248,7.1287,7.1073,7.1481,7.1598,7.1209,7.1093,7.1442,7.1462,7.1151,7.1093,7.1031,7.1291,7.1291,7.1291,7.1291,7.1291,7.1291,7.1291,7.1291,7.1291,7.1253,7.104,7.1098,7.1001,7.0731,7.0112,6.9512,6.9087,6.9028,6.9106,6.9087,6.8796,6.8642,6.8642,6.8603,6.8197,6.8119,6.8255,6.7559,6.6824,6.6475,6.634,6.6417,6.6495,6.6282,6.6572,6.6611,6.6205,6.6243,6.6282,6.6301,6.6437,6.7017,6.7307,6.7539,6.7926,6.8255,6.8197,6.8468,6.8622,6.8661,6.8758,6.9183,6.9707,6.9862,7.0305,7.0305,6.986,6.9125,6.9742,6.9897,7.0109,7.0537,7.0943,7.1117,7.1079,7.1098,7.1291,7.1291,7.1291,7.1291,7.1291,7.1291,7.1291,7.1291,7.1291,7.1375,7.1475,7.1494,7.1512,7.1564,7.1598,7.1598,7.1598,7.1598,7.1598,7.1598,7.1598,7.1598,7.1598,7.1598,7.1598,7.1598,7.1598,7.1598,7.1598,7.1598,7.1598,7.1598,7.1598,7.1598,7.1598,7.1598,7.1598,7.152,7.1598,7.1598,7.1598,7.1598,7.1598,7.1598,7.1598,7.1598,7.1559,7.1598,7.1598,7.1291,7.1291,7.1291,7.1291,7.1291,7.1291,7.1291,7.1291,7.1291,7.1291,7.1291,7.1291,7.1291,7.1175,7.0847,7.0595,7.0266,7.015,7.0208,6.9996,6.9725,6.9473,6.9338,6.9028,6.8796,6.8912,6.8777,6.8506,6.7791,6.7675,6.7675,6.7597,6.7636,6.7752,6.7502,6.7636,6.7694,6.7733,6.7713,6.7675,6.7771,6.8023,6.8236,6.8255,6.8661,6.8835,6.8951,6.9299,6.9454,6.957,6.986,7.0324,7.0634,7.075,7.0943,7.1098,7.0692,7.044,7.0692,7.0731,7.0943,7.1117,7.1291,7.1253,7.1291,7.1291,7.1291,7.1291,7.1291,7.1291,7.1291,7.1291,7.1291,7.1291,7.1291,7.1375,7.1455,7.1475,7.1532,7.1566,7.1598,7.1598,7.1598,7.1598,7.1598,7.1598,7.1598,7.1598,7.1598,7.1598,7.1598,7.1598,7.1598,7.1598,7.1598,7.1598,7.1598,7.1598,7.1598,7.1598,7.1598,7.1598,7.1598,7.1598,7.1598,7.1598,7.1598,7.1598,7.1598,7.1598,7.1598,7.1598,7.1598,7.1598,7.1598,7.1291,7.1291,7.1291,7.1291,7.1291,7.1291,7.1291,7.1291,7.1291,7.1291,7.1291,7.1291,7.1291,7.1291,7.1253,7.1156,7.1233,7.1291,7.1291,7.104,7.0731,7.0382,7.0189,6.9725,6.9531,6.9396,6.9667,6.9531,6.9493,6.9357,6.9203,6.8835,6.8526,6.8642,6.8721,6.8624,6.8564,6.8564,6.8584,6.8622,6.87,6.8951,6.9087,6.9164,6.928,6.9435,6.9531,6.9957,7.0305,7.046,7.0808,7.1098,7.1175,7.1156,7.1195,7.1272,7.1059,7.1079,7.1156,7.1175,7.1291,7.1291,7.1291,7.1291,7.1291,7.1291,7.1291,7.1291,7.1291,7.1291,7.1291,7.1291,7.1291,7.1291,7.1291,7.1375,7.1436,7.1494,7.1532,7.1564,7.1598,7.1598,7.1598,7.1598,7.1598,7.1598,7.1598,7.1598,7.1598,7.1598,7.1598,7.1598,7.1598,7.1598,7.1598,7.1598,7.1598,7.1598,7.1598,7.1598,7.1598,7.1598,7.1598,7.1598,7.1598,7.1598,7.1598,7.1598,7.1598,7.1598,7.1598,7.1598,7.1598,7.1598,7.1598,7.1291,7.1291,7.1291,7.1291,7.1291,7.1291,7.1291,7.1291,7.1291,7.1291,7.1291,7.1291,7.1291,7.1291,7.1291,7.1291,7.1291,7.1291,7.1291,7.1272,7.1214,7.1079,7.0943,7.0885,7.0905,7.0905,7.075,7.0808,7.1001,7.0672,7.0015,6.9067,6.9261,6.897,6.899,6.9243,6.9203,6.9183,6.9183,6.9106,6.9261,6.957,6.9918,7.0092,7.0614,7.1117,7.1098,7.1059,7.104,7.1021,7.1195,7.1291,7.1291,7.1291,7.1291,7.1291,7.1291,7.1291,7.1291,7.1291,7.1291,7.1291,7.1291,7.1291,7.1291,7.1291,7.1291,7.1291,7.1291,7.1291,7.1291,7.1291,7.1291,7.1291,7.1332,7.1395,7.1455,7.1514,7.155,7.1581,7.1598,7.1598,7.1598,7.1598,7.1598,7.1598,7.1598,7.1598,7.1598,7.1598,7.1598,7.1598,7.1598,7.1598,7.1598,7.1598,7.1598,7.1598,7.1598,7.1598,7.1598,7.1598,7.1598,7.1598,7.1598,7.1598,7.1598,7.1598,7.1598,7.1598,7.1598,7.1598,7.1598,7.1598,7.1598,7.1291,7.1291,7.1291,7.1291,7.1291,7.1291,7.1291,7.1291,7.1291,7.1291,7.1291,7.1291,7.1291,7.1291,7.1291,7.1291,7.1291,7.1291,7.1291,7.1291,7.1291,7.1291,7.1291,7.1291,7.1272,7.1291,7.1291,7.1291,7.1233,7.1291,7.1079,7.046,7.0189,7.0363,7.0344,7.017,7.0208,7.0247,7.0286,7.0305,7.0402,7.0556,7.0789,7.0847,7.0982,7.1291,7.1253,7.1272,7.1291,7.1291,7.1291,7.1291,7.1291,7.1291,7.1291,7.1291,7.1291,7.1291,7.1291,7.1291,7.1291,7.1291,7.1291,7.1291,7.1291,7.1291,7.1291,7.1291,7.1291,7.1291,7.1291,7.1291,7.1291,7.1311,7.1354,7.1415,7.1475,7.1533,7.155,7.1581,7.1598,7.1598,7.1598,7.1598,7.1598,7.1598,7.1598,7.1598,7.1598,7.1598,7.1598,7.1598,7.1598,7.1598,7.1598,7.1598,7.1598,7.1598,7.1598,7.1598,7.1598,7.1598,7.1598,7.1598,7.1598,7.1598,7.1598,7.1598,7.1598,7.1598,7.1598,7.1598,7.1598,7.1598,7.1598,7.1291,7.1291,7.1291,7.1291,7.1291,7.1291,7.1291,7.1291,7.1291,7.1291,7.1291,7.1291,7.1291,7.1291,7.1291,7.1291,7.1291,7.1291,7.1291,7.1291,7.1291,7.1291,7.1291,7.1291,7.1291,7.1291,7.1291,7.1291,7.1291,7.1291,7.1195,7.1175,7.1291,7.1195,7.1195,7.1291,7.1291,7.1291,7.1291,7.1291,7.1253,7.1253,7.1233,7.1233,7.1272,7.1291,7.1291,7.1291,7.1291,7.1291,7.1291,7.1291,7.1291,7.1291,7.1291,7.1291,7.1291,7.1291,7.1291,7.1291,7.1291,7.1291,7.1291,7.1291,7.1291,7.1311,7.1291,7.1291,7.1291,7.1311,7.1349,7.1291,7.1313,7.1354,7.1375,7.1435,7.1494,7.1569,7.1586,7.1598,7.1598,7.1598,7.1598,7.1598,7.1598,7.1598,7.1598,7.1598,7.1598,7.1598,7.1598,7.1598,7.1598,7.1598,7.1598,7.1598,7.1598,7.1598,7.1598,7.1598,7.1598,7.1598,7.1598,7.1598,7.1598,7.1598,7.1598,7.1598,7.1598,7.1598,7.1598,7.1598,7.1598,7.1598,7.1598,7.1291,7.1291,7.1291,7.1291,7.1291,7.1291,7.1291,7.1291,7.1291,7.1291,7.1291,7.1291,7.1291,7.1291,7.1291,7.1291,7.1291,7.1291,7.1291,7.1291,7.1291,7.1291,7.1291,7.1291,7.1291,7.1291,7.1291,7.1291,7.1291,7.1291,7.1291,7.1291,7.1291,7.1291,7.1291,7.1291,7.1291,7.1291,7.1291,7.1291,7.1291,7.1291,7.1291,7.1291,7.1291,7.1291,7.1291,7.1291,7.1291,7.1291,7.1291,7.1291,7.1291,7.1291,7.1291,7.1291,7.1291,7.1291,7.1291,7.1291,7.139,7.139,7.1429,7.1565,7.1449,7.1427,7.1661,7.1973,7.1739,7.1584,7.1446,7.1468,7.1625,7.1763,7.1881,7.1785,7.192,7.1879,7.1952,7.1675,7.1598,7.1598,7.1598,7.1598,7.1598,7.1598,7.1598,7.1598,7.1598,7.1598,7.1598,7.1598,7.1598,7.1598,7.1598,7.1598,7.1598,7.1598,7.1598,7.1598,7.1598,7.1598,7.1598,7.1598,7.1598,7.1598,7.1598,7.1598,7.1598,7.1598,7.1598,7.1598,7.1598,7.1598,7.1598,7.1291,7.1291,7.1291,7.1291,7.1291,7.1291,7.1291,7.1291,7.1291,7.1291,7.1291,7.1291,7.1291,7.1291,7.1291,7.1291,7.1291,7.1291,7.1291,7.1291,7.1291,7.1291,7.1291,7.1291,7.1291,7.1291,7.1291,7.1291,7.1291,7.1291,7.1291,7.1291,7.1291,7.1291,7.1291,7.1291,7.1291,7.1291,7.1291,7.1291,7.1291,7.1291,7.1291,7.1291,7.1291,7.1291,7.1291,7.1291,7.1291,7.1291,7.1291,7.1291,7.1291,7.1291,7.1291,7.1291,7.1311,7.1291,7.1507,7.1702,7.1897,7.1801,7.1936,7.2228,7.2287,7.2846,7.3001,7.2983,7.2827,7.2867,7.312,7.3121,7.3219,7.3258,7.3219,7.289,7.2791,7.2613,7.2455,7.187,7.1598,7.1617,7.1636,7.1598,7.1598,7.1598,7.1598,7.1598,7.1598,7.1598,7.1598,7.1598,7.1598,7.1598,7.1598,7.1598,7.1598,7.1598,7.1598,7.1598,7.1598,7.1598,7.1598,7.1598,7.1598,7.1598,7.1598,7.1598,7.1598,7.1598,7.1598,7.1598,7.1598,7.1598,7.1598,7.1291,7.1291,7.1291,7.1291,7.1291,7.1291,7.1291,7.1291,7.1291,7.1291,7.1291,7.1291,7.1291,7.1291,7.1291,7.1291,7.1291,7.1291,7.1291,7.1291,7.1291,7.1291,7.1291,7.1291,7.1291,7.1291,7.1291,7.1291,7.1291,7.1291,7.1291,7.1291,7.1291,7.1291,7.1291,7.1291,7.1291,7.1291,7.1291,7.1291,7.1291,7.1291,7.1291,7.1291,7.1291,7.1291,7.1291,7.1291,7.1291,7.1291,7.1291,7.1291,7.1291,7.1291,7.1291,7.1311,7.164,7.1698,7.1988,7.2672,7.2809,7.2559,7.2928,7.3142,7.3258,7.3567,7.3761,7.3878,7.4091,7.4052,7.4053,7.4112,7.415,7.4169,7.4053,7.3683,7.3564,7.3368,7.3054,7.2413,7.2064,7.1967,7.1714,7.1617,7.1598,7.1598,7.1598,7.1598,7.1598,7.1598,7.1598,7.1598,7.1598,7.1598,7.1598,7.1598,7.1598,7.1598,7.1598,7.1598,7.1598,7.1598,7.1598,7.1598,7.1598,7.1598,7.1598,7.1598,7.1598,7.1598,7.1598,7.1598,7.1598,7.1598,7.1598,7.1291,7.1291,7.1291,7.1291,7.1291,7.1291,7.1291,7.1291,7.1291,7.1291,7.1291,7.1291,7.1291,7.1291,7.1291,7.1291,7.1291,7.1291,7.1291,7.1291,7.1291,7.1291,7.1291,7.1291,7.1291,7.1291,7.1291,7.1291,7.1291,7.1291,7.1291,7.1291,7.1291,7.1291,7.1291,7.1291,7.1291,7.1291,7.1291,7.1291,7.1291,7.1291,7.1291,7.1291,7.1291,7.1291,7.1291,7.1291,7.1291,7.1291,7.1291,7.1291,7.1291,7.1291,7.1291,7.1562,7.2159,7.2371,7.2803,7.3564,7.3935,7.384,7.4112,7.4112,7.415,7.4383,7.4674,7.4654,7.4693,7.4461,7.4344,7.4421,7.4497,7.4517,7.4536,7.4379,7.43,7.4065,7.3734,7.3346,7.3035,7.2724,7.2103,7.187,7.1947,7.1598,7.1598,7.1598,7.1598,7.1598,7.1598,7.1598,7.1598,7.1598,7.1598,7.1598,7.1598,7.1598,7.1598,7.1598,7.1598,7.1598,7.1598,7.1598,7.1598,7.1598,7.1598,7.1598,7.1598,7.1598,7.1598,7.1598,7.1598,7.1598,7.1598,7.1375,7.1375,7.1332,7.1291,7.1291,7.1291,7.1291,7.1291,7.1291,7.1291,7.1291,7.1291,7.1291,7.1291,7.1291,7.1291,7.1291,7.1291,7.1291,7.1291,7.1291,7.1291,7.1291,7.1291,7.1291,7.1291,7.1291,7.1291,7.1291,7.1291,7.1291,7.1291,7.1291,7.1291,7.1291,7.1291,7.1291,7.1291,7.1291,7.1291,7.1291,7.1291,7.1291,7.1291,7.1291,7.1291,7.1291,7.1291,7.1291,7.1291,7.1291,7.1291,7.1291,7.133,7.1427,7.2184,7.2549,7.2819,7.3584,7.4439,7.4945,7.512,7.5449,7.5486,7.5428,7.541,7.5701,7.5583,7.5525,7.5429,7.5429,7.5447,7.5465,7.5465,7.5447,7.5368,7.5269,7.5016,7.4647,7.4084,7.3793,7.3326,7.2666,7.2549,7.2549,7.1947,7.1617,7.1656,7.1598,7.1598,7.1598,7.1598,7.1598,7.1598,7.1598,7.1598,7.1598,7.1598,7.1598,7.1598,7.1598,7.1598,7.1598,7.1598,7.1598,7.1598,7.1598,7.1598,7.1598,7.1598,7.1598,7.1598,7.1598,7.1598,7.1598,7.1126,7.1396,7.1375,7.1332,7.1291,7.1291,7.1291,7.1291,7.1291,7.1291,7.1291,7.1291,7.1291,7.1291,7.1291,7.1291,7.1291,7.1291,7.1291,7.1291,7.1291,7.1291,7.1291,7.1291,7.1291,7.1291,7.1291,7.1291,7.1291,7.1291,7.1291,7.1291,7.1291,7.1291,7.1291,7.1291,7.1291,7.1291,7.1291,7.1291,7.1291,7.1291,7.1291,7.1291,7.1291,7.1291,7.1291,7.1291,7.1291,7.1291,7.1291,7.1291,7.1407,7.1601,7.1913,7.2648,7.3466,7.3872,7.4536,7.5333,7.5721,7.5993,7.636,7.63,7.6279,7.6222,7.6397,7.6436,7.6551,7.6629,7.6648,7.6667,7.6648,7.6629,7.6531,7.6434,7.6221,7.6007,7.5463,7.4841,7.4375,7.3948,7.3637,7.3482,7.3152,7.2569,7.2122,7.1967,7.1792,7.1598,7.1598,7.1598,7.1598,7.1598,7.1598,7.1598,7.1598,7.1598,7.1598,7.1598,7.1598,7.1598,7.1598,7.1598,7.1598,7.1598,7.1598,7.1598,7.1598,7.1598,7.1598,7.1598,7.1598,7.1598,7.1598,7.0661,7.1397,7.1396,7.1375,7.1332,7.1313,7.1291,7.1291,7.1291,7.1291,7.1291,7.1291,7.1291,7.1291,7.1291,7.1291,7.1291,7.1291,7.1291,7.1291,7.1291,7.1291,7.1291,7.1291,7.1291,7.1291,7.1291,7.1291,7.1291,7.1291,7.1291,7.1291,7.1291,7.1291,7.1291,7.1291,7.1291,7.1291,7.1291,7.1291,7.1291,7.1291,7.1291,7.1291,7.1291,7.1291,7.1291,7.1291,7.1291,7.1291,7.1291,7.1291,7.1736,7.228,7.2629,7.3228,7.424,7.4865,7.5371,7.6051,7.64,7.6574,7.667,7.6611,7.659,7.659,7.6667,7.6687,7.6687,7.6687,7.6687,7.6687,7.6687,7.6687,7.6648,7.659,7.6493,7.6337,7.6104,7.558,7.5288,7.4861,7.4453,7.4278,7.3967,7.3288,7.2899,7.2647,7.218,7.1889,7.1675,7.1656,7.1598,7.1598,7.1598,7.1598,7.1598,7.1598,7.1598,7.1598,7.1598,7.1598,7.1598,7.1598,7.1598,7.1598,7.1598,7.1598,7.1598,7.1598,7.1598,7.1598,7.1598,7.1598,7.1598,7.0386,7.0638,7.1223,7.1435,7.1375,7.1375,7.1354,7.1291,7.1291,7.1291,7.1291,7.1291,7.1291,7.1291,7.1291,7.1291,7.1291,7.1291,7.1291,7.1291,7.1291,7.1291,7.1291,7.1291,7.1291,7.1291,7.1291,7.1291,7.1291,7.1291,7.1291,7.1291,7.1291,7.1291,7.1291,7.1291,7.1291,7.1291,7.1291,7.1291,7.1291,7.1291,7.1291,7.1291,7.1291,7.1291,7.1291,7.1291,7.1291,7.1291,7.1291,7.164,7.2278,7.3112,7.387,7.4505,7.4953,7.5564,7.609,7.6458,7.6632,7.669,7.6688,7.6706,7.6687,7.6687,7.6687,7.6687,7.6687,7.6687,7.6687,7.6687,7.6687,7.6687,7.6687,7.6687,7.6687,7.6648,7.659,7.6395,7.6143,7.5774,7.5347,7.5016,7.4649,7.4336,7.4006,7.3618,7.2918,7.2472,7.1928,7.1831,7.1636,7.1598,7.1598,7.1598,7.1598,7.1598,7.1598,7.1598,7.1598,7.1598,7.1598,7.1598,7.1598,7.1598,7.1598,7.1598,7.1598,7.1598,7.1598,7.1598,7.1598,7.1633,7.1598,6.9991,7.0382,7.1201,7.1494,7.1455,7.1455,7.1395,7.1354,7.1334,7.1313,7.1291,7.1291,7.1291,7.1291,7.1291,7.1291,7.1291,7.1291,7.1291,7.1291,7.1291,7.1291,7.1291,7.1291,7.1291,7.1291,7.1291,7.1291,7.1291,7.1291,7.1291,7.1291,7.1291,7.1291,7.1291,7.1291,7.1291,7.1291,7.1291,7.1291,7.1291,7.1291,7.1291,7.1291,7.1291,7.1291,7.1291,7.1291,7.1291,7.1485,7.1659,7.2375,7.3148,7.4002,7.4621,7.513,7.558,7.6109,7.6516,7.669,7.6691,7.6688,7.6687,7.6687,7.6687,7.6687,7.6687,7.6687,7.6687,7.6687,7.6687,7.6687,7.6687,7.6687,7.6687,7.6687,7.6687,7.6667,7.6648,7.659,7.6434,7.6357,7.6046,7.6026,7.5638,7.5057,7.4803,7.4123,7.3501,7.3016,7.2491,7.1967,7.1753,7.1617,7.1598,7.1598,7.1598,7.1598,7.1598,7.1598,7.1598,7.1598,7.1598,7.1598,7.1598,7.1598,7.1598,7.1598,7.1598,7.1598,7.1598,7.1598,7.1614,7.1633,7.163,6.9461,7.0358,7.1217,7.1569,7.1533,7.1514,7.1475,7.1416,7.1395,7.1375,7.1332,7.1291,7.1291,7.1291,7.1291,7.1291,7.1291,7.1291,7.1291,7.1291,7.1291,7.1291,7.1291,7.1291,7.1291,7.1291,7.1291,7.1291,7.1291,7.1291,7.1291,7.1291,7.1291,7.1291,7.1291,7.1291,7.1291,7.1291,7.1291,7.1291,7.1291,7.1291,7.1291,7.1291,7.1291,7.1291,7.1291,7.1291,7.1291,7.193,7.2491,7.3322,7.406,7.4857,7.5227,7.5694,7.6129,7.6477,7.6706,7.6706,7.6688,7.6687,7.6687,7.6687,7.6687,7.6687,7.6687,7.6687,7.6687,7.6687,7.6687,7.6687,7.6687,7.6687,7.6687,7.6687,7.6687,7.6687,7.6687,7.6687,7.6687,7.6667,7.6667,7.6667,7.6376,7.5795,7.5251,7.4492,7.3851,7.3482,7.3035,7.2355,7.1831,7.1714,7.1617,7.1598,7.1598,7.1598,7.1598,7.1598,7.1598,7.1598,7.1598,7.1598,7.1598,7.1598,7.1598,7.1598,7.1598,7.1598,7.1614,7.1649,7.1649,7.1665,7.168,6.8937,7.0374,7.1231,7.1603,7.1569,7.1569,7.1533,7.1475,7.1416,7.1395,7.1375,7.1313,7.1291,7.1291,7.1291,7.1291,7.1291,7.1291,7.1291,7.1291,7.1291,7.1291,7.1291,7.1291,7.1291,7.1291,7.1291,7.1291,7.1291,7.1291,7.1291,7.1291,7.1291,7.1291,7.1291,7.1291,7.1291,7.1291,7.1291,7.1291,7.1291,7.1291,7.1291,7.1291,7.1291,7.1291,7.1291,7.1291,7.1717,7.2549,7.3651,7.4405,7.5047,7.5614,7.5985,7.6126,7.6555,7.663,7.6687,7.6687,7.6687,7.6687,7.6687,7.6687,7.6687,7.6687,7.6687,7.6687,7.6687,7.6687,7.6687,7.6687,7.6687,7.6687,7.6687,7.6687,7.6687,7.6687,7.6687,7.6687,7.6687,7.6687,7.6687,7.6687,7.6667,7.6298,7.6279,7.5541,7.4803,7.422,7.3618,7.2821,7.2064,7.1734,7.1598,7.1598,7.1598,7.1598,7.1598,7.1598,7.1598,7.1598,7.1598,7.1598,7.1598,7.1598,7.1598,7.1598,7.1614,7.1614,7.1665,7.1665,7.1699,7.1695,7.1724]},{"header":{"parameterUnit":"m.s-1","parameterCategory":1,"la1":31.0,"la2":29.5877,"lo1":-88.7671,"lo2":-86.6584,"dy":0.0162,"dx":0.0185,"nx":115,"ny":88,"refTime":"2023-11-20T06:00:00:Z","depth":0,"parameterNumber":3,"parameterNumberName":"V-component_of_WINDS"},"data":[0.0,0.0,0.0,0.0,0.0,0.0,0.0,0.0,0.0,0.0,0.0,0.0,0.0,0.0,0.0,0.0,0.0,0.0,0.0,0.0,0.0,0.0,0.0,0.0,0.0,0.0,0.0,0.0,0.0,0.0,0.0,0.0,0.0,0.0,0.0,0.0,0.0,0.0,0.0,0.0,0.0,0.0,0.0,0.0,0.0,0.0,0.0,0.0,0.0,0.0,0.0,0.0,0.0,0.0,0.0,0.0,0.0,0.0,0.0,0.0,0.0,0.0,0.0,0.0,0.0,0.0,0.0,0.0,0.0,0.0,0.0,0.0,0.0,0.0,0.0,0.0,0.0,0.0,0.0,0.0,0.0,0.0,0.0,0.0,0.0,0.0,0.0,0.0,0.0,0.0,0.0,0.0,0.0,0.0,0.0,0.0,0.0,0.0,0.0,0.0,0.0,0.0,0.0,0.0,0.0,0.0,0.0,0.0,0.0,0.0,0.0,0.0,0.0,0.0,0.0,0.0,0.0,0.0,0.0,0.0,0.0,0.0,0.0,0.0,0.0,0.0,0.0,0.0,0.0,0.0,0.0,0.0,0.0,0.0,0.0,0.0,0.0,0.0,0.0,0.0,0.0,0.0,0.0,0.0,0.0,0.0,0.0,0.0,0.0,0.0,0.0,0.0,0.0,0.0,0.0,0.0,0.0,0.0,0.0,0.0,0.0,0.0,0.0,0.0,0.0,0.0,0.0,0.0,0.0,0.0,0.0,0.0,0.0,0.0,0.0,0.0,0.0,0.0,0.0,0.0,0.0,0.0,0.0,0.0,0.0,0.0,0.0,0.0,0.0,0.0,0.0,0.0,0.0,0.0,0.0,0.0,0.0,0.0,0.0,0.0,0.0,0.0,0.0,0.0,0.0,0.0,0.0,0.0,0.0,0.0,0.0,0.0,0.0,0.0,0.0,0.0,0.0,0.0,0.0,0.0,0.0,0.0,0.0,0.0,0.0,0.0,0.0,0.0,0.0,0.0,0.0,0.0,0.0,0.0,0.0,0.0,0.0,0.0,0.0,0.0,0.0,0.0,0.0,0.0,0.0,0.0,0.0,0.0,0.0,0.0,0.0,0.0,0.0,0.0,0.0,0.0,0.0,0.0,0.0,0.0,0.0,0.0,0.0,0.0,0.0,0.0,0.0,0.0,0.0,0.0,0.0,0.0,0.0,0.0,0.0,0.0,0.0,0.0,0.0,0.0,0.0,0.0,0.0,0.0,0.0,0.0,0.0,0.0,0.0,0.0,0.0,0.0,0.0,0.0,0.0,0.0,0.0,0.0,0.0,0.0,0.0,0.0,0.0,0.0,0.0,0.0,0.0,0.0,0.0,0.0,0.0,0.0,0.0,0.0,0.0,0.0,0.0,0.0,0.0,0.0,0.0,0.0,0.0,0.0,0.0,0.0,0.0,0.0,0.0,0.0,0.0,0.0,0.0,0.0,0.0,0.0,0.0,0.0,0.0,0.0,0.0,0.0,0.0,0.0,0.0,0.0,0.0,0.0,0.0,0.0,0.0,0.0,0.0,0.0,0.0,0.0,0.0,0.0,0.0,0.0,0.0,0.0,0.0,0.0,0.0,0.0,0.0,0.0,0.0,0.0,0.0,0.0,0.0,0.0,0.0,0.0,0.0,0.0,0.0,0.0,0.0,0.0,0.0,0.0,0.0,0.0,0.0,0.0,0.0,0.0,0.0,0.0,0.0,0.0,0.0,0.0,0.0,0.0,0.0,0.0,0.0,0.0,0.0,0.0,0.0,0.0,0.0,0.0,0.0,0.0,0.0,0.0,0.0,0.0,0.0,0.0,0.0,0.0,0.0,0.0,0.0,0.0,0.0,0.0,0.0,0.0,0.0,0.0,0.0,0.0,0.0,0.0,0.0,0.0,0.0,0.0,0.0,0.0,0.0,0.0,0.0,0.0,0.0,0.0,0.0,0.0,0.0,0.0,0.0,0.0,0.0,0.0,0.0,0.0,0.0,0.0,0.0,0.0,0.0,0.0,0.0,0.0,0.0,0.0,0.0,0.0,0.0,0.0,0.0,0.0,0.0,0.0,0.0,0.0,0.0,0.0,0.0,0.0,0.0,0.0,0.0,0.0,0.0,0.0,0.0,0.0,0.0,0.0,0.0,0.0,0.0,0.0,0.0,0.0,0.0,0.0,0.0,0.0,0.0,0.0,0.0,0.0,0.0,0.0,0.0,0.0,0.0,0.0,0.0,0.0,0.0,0.0,0.0,0.0,0.0,0.0,0.0,0.0,0.0,0.0,0.0,0.0,0.0,0.0,0.0,0.0,0.0,0.0,0.0,0.0,0.0,0.0,0.0,0.0,0.0,0.0,0.0,0.0,0.0,0.0,0.0,0.0,0.0,0.0,0.0,0.0,0.0,0.0,0.0,0.0,0.0,0.0,0.0,0.0,0.0,0.0,0.0,0.0,0.0,0.0,0.0,0.0,0.0,0.0,0.0,0.0,0.0,0.0,0.0,0.0,0.0,0.0,0.0,0.0,0.0,0.0,0.0,0.0,0.0,0.0,0.0,0.0,0.0,0.0,0.0,0.0,0.0,0.0,0.0,0.0,0.0,0.0,0.0,0.0,0.0,0.0,0.0,0.0,0.0,0.0,0.0,0.0,0.0,0.0,0.0,0.0,0.0,0.0,0.0,0.0,0.0,0.0,0.0,0.0,0.0,0.0,0.0,0.0,0.0,0.0,0.0,0.0,0.0,0.0,0.0,0.0,0.0,0.0,0.0,0.0,0.0,0.0,0.0,0.0,0.0,0.0,0.0,0.0,0.0,0.0,0.0,0.0,0.0,0.0,0.0,0.0,0.0,0.0,0.0,0.0,0.0,0.0,0.0,0.0,0.0,0.0,0.0,0.0,0.0,0.0,0.0,0.0,0.0,0.0,0.0,0.0,0.0,0.0,0.0,0.0,0.0,0.0,0.0,0.0,0.0,0.0,0.0,0.0,0.0,0.0,0.0,0.0,0.0,0.0,0.0,0.0,0.0,0.0,0.0,0.0,0.0,0.0,0.0,0.0,0.0,0.0,0.0,0.0,0.0,0.0,0.0,0.0,0.0,0.0,0.0,0.0,0.0,0.0,0.0,0.0,0.0,0.0,0.0,0.0,0.0,0.0,0.0,0.0,0.0,0.0,0.0,0.0,0.0,0.0,0.0,0.0,0.0,0.0,0.0,0.0,0.0,0.0,0.0,0.0,0.0,0.0,0.0,0.0,0.0,0.0,0.0,0.0,0.0,0.0,0.0,0.0,0.0,0.0,0.0,0.0,0.0,0.0,0.0,0.0,0.0,0.0,0.0,0.0,0.0,0.0,0.0,0.0,0.0,0.0,0.0,0.0,0.0,0.0,0.0,0.0,0.0,0.0,0.0,0.0,0.0,0.0,0.0,0.0,0.0,0.0,0.0,0.0,0.0,0.0,0.0,0.0,0.0,0.0,0.0,0.0,0.0,0.0,0.0,0.0,0.0,0.0,0.0,0.0,0.0,0.0,0.0,0.0,0.0,0.0,0.0,0.0,0.0,0.0,0.0,0.0,0.0,0.0,0.0,0.0,0.0,0.0,0.0,0.0,0.0,0.0,0.0,0.0,0.0,0.0,0.0,0.0,0.0,0.0,0.0,0.0,0.0,0.0,0.0,0.0,0.0,0.0,0.0,0.0,0.0,0.0,0.0,0.0,0.0,0.0,0.0,0.0,0.0,0.0,0.0,0.0,0.0,0.0,0.0,0.0,0.0,0.0,0.0,0.0,0.0,0.0,0.0,0.0,0.0,0.0,0.0,0.0,0.0,0.0,0.0,0.0,0.0,0.0,0.0,0.0,0.0,0.0,0.0,0.0,0.0,0.0,0.0,0.0,0.0,0.0,0.0,0.0,0.0,0.0,0.0,0.0,0.0,0.0,0.0,0.0,0.0,0.0,0.0,0.0,0.0,0.0,0.0,0.0,0.0,0.0,0.0,0.0,0.0,0.0,0.0,0.0,0.0,0.0,0.0,0.0,0.0,0.0,0.0,0.0,0.0,0.0,0.0,0.0,0.0,0.0,0.0,0.0,0.0,0.0,0.0,0.0,0.0,0.0,0.0,0.0,0.0,0.0,0.0,0.0,0.0,0.0,0.0,0.0,0.0,0.0,0.0,0.0,0.0,0.0,0.0,0.0,0.0,0.0,0.0,0.0,0.0,0.0,0.0,0.0,0.0,0.0,0.0,0.0,0.0,0.0,0.0,0.0,-0.0897,0.0,0.0,0.0,0.0,0.0,0.0,0.0,0.0,0.0,0.0,0.0,0.0,0.0,0.0,0.0,0.0,0.0,0.0,0.0,0.0,0.0,0.0,0.0,0.0,0.0,0.0,0.0,0.0,0.0,0.0,0.0,0.0,0.0,0.0,0.0,0.0,0.0,0.0,0.0,0.0,0.0,0.0,0.0,0.0,0.0,0.0,0.0,0.0,0.0,0.0,0.0,0.0,0.0,0.0,0.0,0.0,0.0,0.0,0.0,0.0,0.0,0.0,0.0,0.0,0.0,0.0,0.0,0.0,0.0,0.0,0.0,0.0,0.0,0.0,0.0,0.0,0.0,0.0,0.0,0.0,0.0,0.0,0.0,0.0,0.0,0.0,0.0,0.0,0.0,0.0,0.0,0.0,0.0,0.0,0.0,0.0,0.0,0.0,0.0,0.0,0.0,0.0,0.0,0.0,0.0,0.0,0.0,0.0,0.0,0.0,-0.0897,-0.0897,-0.0897,-0.0897,-0.0897,0.0,0.0,0.0,0.0,0.0,0.0,0.0,0.0,0.0,0.0,0.0,0.0,0.0,0.0,0.0,0.0,0.0,0.0,0.0,0.0,0.0,0.0,0.0,0.0,0.0,0.0,0.0,0.0,0.0,0.0,0.0,0.0,0.0,0.0,0.0,0.0,0.0,0.0,0.0,0.0,0.0,0.0,0.0,0.0,0.0,0.0,0.0,0.0,0.0,0.0,0.0,0.0,0.0,0.0,0.0,0.0,0.0,0.0,0.0,0.0,0.0,0.0,0.0,0.0,0.0,0.0,0.0,0.0,0.0,0.0,0.0,0.0,0.0,0.0,0.0,0.0,0.0,0.0,0.0,0.0,0.0,0.0,0.0,0.0,0.0,0.0,0.0,0.0,0.0,0.0,0.0,0.0,0.0,0.0,0.0,0.0,0.0,0.0,0.0,0.0,0.0,0.0,0.0,0.0,0.0,0.0,0.0,0.0,0.0,0.0,0.0,0.0,-0.0897,-0.0897,-0.0897,0.0,0.0,0.0,0.0,0.0,0.0,0.0,0.0,0.0,0.0,0.0,0.0,0.0,0.0,0.0,0.0,0.0,0.0,0.0,0.0,0.0,0.0,0.0,0.0,0.0,0.0,0.0,0.0,0.0,0.0,0.0,0.0,0.0,0.0,0.0,0.0,0.0,0.0,0.0,0.0,0.0,0.0,0.0,0.0,0.0,0.0,0.0,0.0,0.0,0.0,0.0,0.0,0.0,0.0,0.0,0.0,0.0,0.0,0.0,0.0,0.0,0.0,0.0,0.0,0.0,0.0,0.0,0.0,0.0,0.0,0.0,0.0,0.0,0.0,0.0,0.0,0.0,0.0,0.0,0.0,0.0,0.0,0.0,0.0,0.0,0.0,0.0,0.0,0.0,0.0,0.0,0.0,0.0,0.0,0.0,0.0,0.0,0.0,0.0,0.0,0.0,0.0,0.0,0.0,0.0,0.0,0.0,0.0,0.0,0.0,-0.0897,-0.0897,-0.0897,0.0,-0.0897,0.0,0.0,0.0,0.0,0.0,0.0,0.0,0.0,0.0,0.0,0.0,0.0,0.0,0.0,0.0,0.0,0.0,0.0,0.0,0.0,0.0,0.0,0.0,0.0,0.0,0.0,0.0,0.0,0.0,0.0,0.0,0.0,0.0,0.0,0.0,0.0,0.0,0.0,0.0,0.0,0.0,0.0,0.0,0.0,0.0,0.0,0.0,0.0,0.0,0.0,0.0,0.0,0.0,0.0,0.0,0.0,0.0,0.0,0.0,0.0,0.0,0.0,0.0,0.0,0.0,0.0,0.0,0.0,0.0,0.0,0.0,0.0,0.0,0.0,0.0,0.0,0.0,0.0,0.0,0.0,0.0,0.0,0.0,0.0,0.0,0.0,0.0,0.0,0.0,0.0,0.0,0.0,0.0,0.0,0.0,0.0,0.0,0.0,0.0,0.0,0.0,0.0,0.0,0.0,0.0,0.0,0.0,0.0,0.0,0.0,-0.0897,-0.0897,-0.0897,-0.0897,0.0,0.0,0.0,0.0,0.0,0.0,0.0,0.0,0.0,0.0,0.0,0.0,0.0,0.0,0.0,0.0,0.0,0.0,0.0,0.0,0.0,0.0,0.0,0.0,0.0,0.0,0.0,0.0,0.0,0.0,0.0,0.0,0.0,0.0,0.0,0.0,0.0,0.0,0.0,0.0,0.0,0.0,0.0,0.0,0.0,0.0,0.0,0.0,0.0,0.0,0.0,0.0,0.0,0.0,0.0,0.0,0.0,0.0,0.0,0.0,0.0,0.0,0.0,0.0,0.0,0.0,0.0,0.0,0.0,0.0,0.0,0.0,0.0,0.0,0.0,0.0,0.0,0.0,0.0,0.0,0.0,0.0,0.0,0.0,0.0,0.0,0.0,0.0,0.0,0.0,0.0,0.0,0.0,0.0,0.0,0.0,0.0,0.0,0.0,0.0,0.0,0.0,0.0,0.0,0.0,0.0,0.0,0.0,0.0,0.0,-0.0897,-0.0897,-0.0897,-0.0897,-0.0897,-0.0897,0.0,0.0,0.0,0.0,0.0,0.0,0.0,0.0,0.0,0.0,0.0,0.0,0.0,0.0,0.0,0.0,0.0,0.0,0.0,0.0,0.0,0.0,0.0,0.0,0.0,0.0,0.0,0.0,0.0,0.0,0.0,0.0,0.0,0.0,0.0,0.0,0.0,0.0,0.0,0.0,0.0,0.0,0.0,0.0,0.0,0.0,0.0,0.0,0.0,0.0,0.0,0.0,0.0,0.0,0.0,0.0,0.0,0.0,0.0,0.0,0.0,0.0,0.0,0.0,0.0,0.0,0.0,0.0,0.0,0.0,0.0,0.0,0.0,0.0,0.0,0.0,0.0,0.0,0.0,0.0,0.0,0.0,0.0,0.0,0.0,0.0,0.0,0.0,0.0,0.0,0.0,0.0,0.0,0.0,0.0,0.0,0.0,0.0,0.0,0.0,0.0,0.0,0.0,0.0,0.0,0.0,0.0,0.0,-0.0898,-0.0898,-0.0898,-0.0898,-0.0898,-0.0898,0.0,0.0,0.0,0.0,0.0,0.0,0.0,0.0,0.0,0.0,0.0,0.0,0.0,0.0,0.0,0.0,0.0,0.0,0.0,0.0,0.0,0.0,0.0,0.0,0.0,0.0,0.0,0.0,0.0,0.0,0.0,0.0,0.0,0.0,0.0,0.0,0.0,0.0,0.0,0.0,0.0,0.0,0.0,0.0,0.0,0.0,0.0,0.0,0.0,0.0,0.0,0.0,0.0,0.0,0.0,0.0,0.0,0.0,0.0,0.0,0.0,0.0,0.0,0.0,0.0,0.0,0.0,0.0,0.0,0.0,0.0,0.0,0.0,0.0,0.0,0.0,0.0,0.0,0.0,0.0,0.0,0.0,0.0,0.0,0.0,0.0,0.0,0.0,0.0,0.0,0.0,0.0,0.0,0.0,0.0,0.0,0.0,0.0,0.0,0.0,0.0,0.0,0.0,0.0,0.0,0.0,0.0,0.0,0.0,-0.0926,-0.0945,-0.0946,-0.0928,-0.0985,-0.0917,0.0,0.0,0.0,0.0,0.0,0.0,0.0,0.0,0.0,0.0,0.0,0.0,0.0,0.0,0.0,0.0,0.0,0.0,0.0,0.0,0.0,0.0,0.0,0.0,0.0,0.0,0.0,0.0,0.0,0.0,0.0,0.0,0.0,0.0,0.0,0.0,0.0,0.0,0.0,0.0,0.0,0.0,0.0,0.0,0.0,0.0,0.0,0.0,0.0,0.0,0.0,0.0,0.0,0.0,0.0,0.0,0.0,0.0,0.0,0.0,0.0,0.0,0.0,0.0,0.0,0.0,0.0,0.0,0.0,0.0,0.0,0.0,0.0,0.0,0.0,0.0,0.0,0.0,0.0,0.0,0.0,0.0,0.0,0.0,0.0,0.0,0.0,0.0,0.0,0.0,0.0,0.0,0.0,0.0,0.0,0.0,0.0,0.0,0.0,0.0,0.0,0.0,0.0,0.0,0.0,0.0,0.0,0.0,0.0,-0.0956,0.0,-0.0978,-0.1018,-0.1007,-0.0991,0.0,0.0,0.0,0.0,0.0,0.0,0.0,0.0,0.0,0.0,0.0,0.0,0.0,0.0,0.0,0.0,0.0,0.0,0.0,0.0,0.0,0.0,0.0,0.0,0.0,0.0,0.0,0.0,0.0,0.0,0.0,0.0,0.0,0.0,0.0,0.0,0.0,0.0,0.0,0.0,0.0,0.0,0.0,0.0,0.0,0.0,0.0,0.0,0.0,0.0,0.0,0.0,0.0,0.0,0.0,0.0,0.0,0.0,0.0,0.0,0.0,0.0,0.0,0.0,0.0,0.0,0.0,0.0,0.0,0.0,0.0,0.0,0.0,0.0,0.0,0.0,0.0,0.0,0.0,0.0,0.0,0.0,0.0,0.0,0.0,0.0,0.0,0.0,0.0,0.0,0.0,0.0,0.0,0.0,0.0,0.0,0.0,0.0,0.0,0.0,0.0,0.0,0.0,0.0,0.0,0.0,0.0,0.0,-0.1019,-0.0988,-0.0992,-0.0994,-0.0988,-0.0963,-0.0945,0.0,0.0,0.0,0.0,0.0,0.0,0.0,0.0,0.0,0.0,0.0,0.0,0.0,0.0,0.0,0.0,0.0,0.0,0.0,0.0,0.0,0.0,0.0,0.0,0.0,0.0,0.0,0.0,0.0,0.0,0.0,0.0,0.0,0.0,0.0,0.0,0.0,0.0,0.0,0.0,0.0,0.0,0.0,0.0,0.0,0.0,0.0,0.0,0.0,0.0,0.0,0.0,0.0,0.0,0.0,0.0,0.0,0.0,0.0,0.0,0.0,0.0,0.0,0.0,0.0,0.0,0.0,0.0,0.0,0.0,0.0,0.0,0.0,0.0,0.0,0.0,0.0,0.0,0.0,0.0,0.0,0.0,0.0,0.0,0.0,0.0,0.0,0.0,0.0,0.0,0.0,0.0,0.0,0.0,0.0,0.0,0.0,0.0,0.0,0.0,0.0,0.0,0.0,0.0,0.0,0.0,0.0,0.0,0.0,-0.1048,-0.1069,-0.1071,-0.1051,-0.0781,-0.0566,0.0,0.0,0.0,0.0,0.0,0.0,0.0,0.0,0.0,0.0,0.0,0.0,0.0,0.0,0.0,0.0,0.0,0.0,0.0,0.0,0.0,0.0,0.0,0.0,0.0,0.0,0.0,0.0,0.0,0.0,0.0,0.0,0.0,0.0,0.0,0.0,0.0,0.0,0.0,0.0,0.0,0.0,0.0,0.0,0.0,0.0,0.0,0.0,0.0,0.0,0.0,0.0,0.0,0.0,0.0,0.0,0.0,0.0,0.0,0.0,0.0,0.0,0.0,0.0,0.0,0.0,0.0,0.0,0.0,0.0,0.0,0.0,0.0,0.0,0.0,0.0,0.0,0.0,0.0,0.0,0.0,0.0,0.0,0.0,0.0,0.0,0.0,0.0,0.0,0.0,0.0,0.0,0.0,0.0,0.0,0.0,0.0,0.0,0.0,0.0,0.0,0.0,0.0,0.0,0.0,0.0,0.0,0.0,0.0,-0.1126,-0.1134,-0.1129,-0.1112,-0.075,-0.0327,0.0,0.0,0.0,0.0,0.0,0.0,0.0,0.0,0.0,0.0,0.0,0.0,0.0,0.0,0.0,0.0,0.0,0.0,0.0,0.0,0.0,0.0,0.0,0.0,0.0,0.0,0.0,0.0,0.0,0.0,0.0,0.0,0.0,0.0,0.0,0.0,0.0,0.0,0.0,0.0,0.0,0.0,0.0,0.0,0.0,0.0,0.0,0.0,0.0,0.0,0.0,0.0,0.0,0.0,0.0,0.0,0.0,0.0,0.0,0.0,0.0,0.0,0.0,0.0,0.0,0.0,0.0,0.0,0.0,0.0,0.0,0.0,0.0,0.0,0.0,0.0,0.0,0.0,0.0,0.0,0.0,0.0,0.0,0.0,0.0,0.0,0.0,0.0,0.0,0.0,0.0,0.0,0.0,0.0,0.0,0.0,0.0,0.0,0.0,0.0,0.0,0.0,0.0,0.0,0.0,0.0,0.0,0.0,0.0,-0.1213,-0.1188,-0.1246,-0.1168,-0.0766,-0.0401,0.0,0.0,0.0,0.0,0.0,0.0,0.0,0.0,0.0,0.0,0.0,0.0,0.0,0.0,0.0,0.0,0.0,0.0,0.0,0.0,0.0,0.0,0.0,0.0,0.0,0.0,0.0,0.0,0.0,0.0,0.0,0.0,0.0,0.0,0.0,0.0,0.0,0.0,0.0,0.0,0.0,0.0,0.0,0.0,0.0,0.0,0.0,0.0,0.0,0.0,0.0,0.0,0.0,0.0,0.0,0.0,0.0,0.0,0.0,0.0,0.0,0.0,0.0,0.0,0.0,0.0,0.0,0.0,0.0,0.0,0.0,0.0,0.0,0.0,0.0,0.0,0.0,0.0,0.0,0.0,0.0,0.0,0.0,0.0,0.0,0.0,0.0,0.0,0.0,0.0,0.0,0.0,0.0,0.0,0.0,0.0,0.0,0.0,0.0,0.0,0.0,0.0,0.0,0.0,0.0,0.0,0.0,0.0,0.0,-0.1245,-0.1259,-0.1245,-0.1277,-0.1164,-0.077,0.0,0.0,0.0,0.0,0.0,0.0,0.0,0.0,0.0,0.0,0.0,0.0,0.0,0.0,0.0,0.0,0.0,0.0,0.0,0.0,0.0,0.0,0.0,0.0,0.0,0.0,0.0,0.0,0.0,0.0,0.0,0.0,0.0,0.0,0.0,0.0,0.0,0.0,0.0,0.0,0.0,0.0,0.0,0.0,0.0,0.0,0.0,0.0,0.0,0.0,0.0,0.0,0.0,0.0,0.0,0.0,0.0,0.0,0.0,0.0,0.0,0.0,0.0,0.0,0.0,0.0,0.0,0.0,0.0,0.0,0.0,0.0,0.0,0.0,0.0,0.0,0.0,0.0,0.0,0.0,0.0,0.0,0.0,0.0,0.0,0.0,0.0,0.0,0.0,0.0,0.0,0.0,0.0,0.0,0.0,0.0,0.0,0.0,0.0,0.0,0.0,0.0,0.0,0.0,0.0,0.0,0.0,0.0,-0.1349,-0.1294,-0.1313,-0.1299,-0.133,-0.1284,-0.0723,0.0,0.0,0.0,0.0,0.0,0.0,0.0,0.0,0.0,0.0,0.0,0.0,0.0,0.0,0.0,0.0,0.0,0.0,0.0,0.0,0.0,0.0,0.0,0.0,0.0,0.0,0.0,0.0,0.0,0.0,0.0,0.0,0.0,0.0,0.0,0.0,0.0,0.0,0.0,0.0,0.0,0.0,0.0,0.0,0.0,0.0,0.0,0.0,0.0,0.0,0.0,0.0,0.0,0.0,0.0,0.0,0.0,0.0,0.0,0.0,0.0,0.0,0.0,0.0,0.0,0.0,0.0,0.0,0.0,0.0,0.0,0.0,0.0,0.0,0.0,0.0,0.0,0.0,0.0,0.0,0.0,0.0,0.0,0.0,0.0,0.0,0.0,0.0,0.0,0.0,0.0,0.0,0.0,0.0,0.0,0.0,0.0,0.0,0.0,0.0,0.0,0.0,0.0,0.0,0.0,0.0,0.0,0.0,-0.1376,-0.1351,-0.1352,-0.1337,-0.1303,-0.1246,-0.0445,0.0,0.0,0.0,0.0,0.0,0.0,0.0,0.0,0.0,0.0,0.0,0.0,0.0,0.0,0.0,0.0,0.0,0.0,0.0,0.0,0.0,0.0,0.0,0.0,0.0,0.0,0.0,0.0,0.0,0.0,0.0,0.0,0.0,0.0,0.0,0.0,0.0,0.0,0.0,0.0,0.0,0.0,0.0,0.0,0.0,0.0,0.0,0.0,0.0,0.0,0.0,0.0,0.0,0.0,0.0,0.0,0.0,0.0,0.0,0.0,0.0,0.0,0.0,0.0,0.0,0.0,0.0,0.0,0.0,0.0,0.0,0.0,0.0,0.0,0.0,0.0,0.0,0.0,0.0,0.0,0.0,0.0,0.0,0.0,0.0,0.0,0.0,0.0,0.0,0.0,0.0,0.0,0.0,0.0,0.0,0.0,0.0,0.0,0.0,0.0,0.0,0.0,0.0,0.0,0.0,0.0,0.0,0.0,-0.1346,-0.1382,-0.1384,-0.1358,-0.1304,-0.0633,0.0152,0.0,0.0,0.0,0.0,0.0,0.0,0.0,0.0,0.0,0.0,0.0,0.0,0.0,0.0,0.0,0.0,0.0,0.0,0.0,0.0,0.0,0.0,0.0,0.0,0.0,0.0,0.0,0.0,0.0,0.0,0.0,0.0,0.0,0.0,0.0,0.0,0.0,0.0,0.0,0.0,0.0,0.0,0.0,0.0,0.0,0.0,0.0,0.0,-0.228,0.0,0.0,0.0,0.0,0.0,0.0,0.0,0.0,0.0,0.0,0.0,0.0,0.0,0.0,0.0,0.0,0.0,0.0,0.0,0.0,0.0,0.0,0.0,0.0,0.0,0.0,0.0,0.0,0.0,0.0,0.0,0.0,0.0,0.0,0.0,0.0,0.0,0.0,0.0,0.0,0.0,0.0,0.0,0.0,0.0,0.0,0.0,0.0,0.0,0.0,0.0,0.0,0.0,0.0,0.0,0.0,0.0,0.0,0.0,-0.1384,-0.1412,-0.1413,-0.0957,-0.0084,0.0411,0.0707,0.0,0.0,0.0,0.0,0.0,0.0,0.0,0.0,0.0,0.0,0.0,0.0,0.0,0.0,0.0,0.0,0.0,0.0,0.0,0.0,0.0,0.0,0.0,0.0,0.0,0.0,0.0,0.0,0.0,0.0,0.0,0.0,0.0,0.0,0.0,0.0,0.0,0.0,0.0,0.0,0.0,0.0,0.0,0.0,0.0,0.0,0.0,0.0,0.0,0.0,0.0,0.0,0.0,0.0,0.0,0.0,0.0,0.0,0.0,0.0,0.0,0.0,0.0,0.0,0.0,0.0,0.0,0.0,0.0,0.0,0.0,0.0,0.0,0.0,0.0,0.0,0.0,0.0,0.0,0.0,0.0,0.0,0.0,0.0,0.0,0.0,0.0,0.0,0.0,0.0,0.0,0.0,0.0,0.0,0.0,0.0,0.0,0.0,0.0,0.0,0.0,0.0,0.0,0.0,0.0,0.0,0.0,-0.1277,-0.1231,-0.1165,-0.1076,-0.0178,0.1307,0.1363,0.1051,0.0663,0.0,0.0,0.0,0.0,0.0,0.0,0.0,0.0,0.0,0.0,0.0,0.0,0.0,0.0,0.0,0.0,0.0,0.0,0.0,0.0,0.0,0.0,0.0,0.0,0.0,0.0,0.0,0.0,0.0,0.0,0.0,0.0,0.0,0.0,0.0,0.0,0.0,0.0,-0.2522,-0.2966,0.0,0.0,0.0,0.0,0.0,0.0,0.0,0.0,-0.167,0.0,0.0,0.0,0.0,0.0,0.0,0.0,0.0,0.0,0.0,0.0,0.0,0.0,0.0,0.0,0.0,0.0,0.0,0.0,0.0,0.0,0.0,0.0,0.0,0.0,0.0,0.0,0.0,0.0,0.0,0.0,0.0,0.0,0.0,0.0,0.0,0.0,0.0,0.0,0.0,0.0,0.0,0.0,0.0,0.0,0.0,0.0,0.0,0.0,0.0,0.0,0.0,0.0,0.0,0.0,0.0,-0.1383,-0.0937,-0.0616,-0.0269,0.0538,0.1066,0.1394,0.1364,0.1221,0.1134,0.0,0.0,0.0,0.0,0.0,0.0,0.0,0.0,0.0,0.0,0.0,0.0,0.0,0.0,0.0,0.0,0.0,0.0,0.0,0.0,0.0,0.0,0.0,0.0,0.0,0.0,0.0,0.0,0.0,0.0,0.0,0.0,0.0,0.0,0.0,0.0,0.0,0.0,0.0,-0.3334,-0.3295,0.0,0.0,0.0,0.0,0.0,0.0,0.0,0.0,-0.1701,0.0,0.0,0.0,0.0,0.0,0.0,0.0,0.0,0.0,0.0,0.0,0.0,0.0,0.0,0.0,0.0,0.0,0.0,0.0,0.0,0.0,0.0,0.0,0.0,0.0,0.0,0.0,0.0,0.0,0.0,0.0,0.0,0.0,0.0,0.0,0.0,0.0,0.0,0.0,0.0,0.0,0.0,0.0,0.0,0.0,0.0,0.0,0.0,0.0,0.0,0.0,0.0,0.0,0.0,0.0,-0.1325,-0.0692,0.0089,0.0718,0.0897,0.125,0.168,0.1541,0.1557,0.0,0.0,0.0,0.0,0.0,0.0,0.0,0.0,0.0,0.0,0.0,0.0,0.0,0.0,0.0,0.0,0.0,0.0,0.0,0.0,0.0,0.0,0.0,0.0,0.0,0.0,0.0,0.0,0.0,0.0,0.0,0.0,0.0,0.0,0.0,0.0,0.0,0.0,0.0,0.0,-0.3485,-0.336,-0.3325,0.0,0.0,0.0,0.0,0.0,0.0,-0.1517,-0.1505,0.0,0.0,0.0,0.0,0.0,0.0,0.0,0.0,0.0,0.0,0.0,0.0,0.0,0.0,0.0,0.0,0.0,0.0,0.0,0.0,0.0,0.0,0.0,0.0,0.0,0.0,0.0,0.0,0.0,0.0,0.0,0.0,0.0,0.0,0.0,0.0,0.0,0.0,0.0,0.0,0.0,0.0,0.0,0.0,0.0,0.0,0.0,0.0,0.0,0.0,0.0,0.0,0.0,0.0,0.0,-0.0758,-0.0263,0.0538,0.1525,0.1166,0.1256,0.1973,0.1893,0.1894,0.0,0.0,0.0,0.0,0.0,0.0,0.0,0.0,0.0,0.0,0.0,0.0,0.0,0.0,0.0,0.0,0.0,0.0,0.0,0.0,0.0,0.0,0.0,0.0,0.0,0.0,0.0,0.0,0.0,0.0,0.0,0.0,0.0,0.0,0.0,0.0,0.0,0.0,0.0,0.0,0.0,-0.3304,-0.3256,-0.2831,0.0,0.0,0.0,0.0,-0.1524,-0.1359,0.0,0.0,0.0,0.0,0.0,0.0,0.0,0.0,0.0,0.0,0.0,0.0,0.0,0.0,0.0,0.0,0.0,0.0,0.0,0.0,0.0,0.0,0.0,0.0,0.0,0.0,0.0,0.0,0.0,0.0,0.0,0.0,0.0,0.0,0.0,0.0,0.0,0.0,0.0,0.0,0.0,0.0,0.0,0.0,0.0,0.0,0.0,0.0,0.0,0.0,0.0,0.0,0.0,0.0,0.0,0.0,0.101,0.0351,0.0718,0.2064,0.1885,0.1974,0.2333,0.2239,0.2221,0.0,0.0,0.0,0.0,0.0,0.0,0.0,0.0,0.0,0.0,0.0,0.0,0.0,0.0,0.0,0.0,0.0,0.0,0.0,0.0,0.0,0.0,0.0,0.0,0.0,0.0,0.0,0.0,0.0,0.0,0.0,0.0,0.0,0.0,0.0,0.0,0.0,0.0,0.0,0.0,0.0,-0.3028,-0.2738,-0.2676,-0.2445,0.0,0.0,-0.1596,-0.1456,-0.1354,0.0,0.0,0.0,0.0,0.0,0.0,0.0,0.0,0.0,0.0,0.0,0.0,0.0,0.0,0.0,0.0,0.0,0.0,0.0,0.0,0.0,0.0,0.0,0.0,0.0,0.0,0.0,0.0,0.0,0.0,0.0,0.0,0.0,0.0,0.0,0.0,0.0,0.0,0.0,0.0,0.0,0.0,0.0,0.0,0.0,0.0,0.0,0.0,0.0,0.0,0.0,0.0,0.0,0.0,0.0,0.0482,0.0589,0.0879,0.1436,0.2155,0.2244,0.2423,0.269,0.2838,0.2879,0.0,0.0,0.0,0.0,0.0,0.0,0.0,0.0,0.0,0.0,0.0,0.0,0.0,0.0,0.0,0.0,0.0,0.0,0.0,0.0,0.0,0.0,0.0,0.0,0.0,0.0,0.0,0.0,0.0,0.0,0.0,0.0,0.0,0.0,0.0,0.0,0.0,0.0,0.0,0.0,0.0,0.0,-0.2654,-0.2334,0.0,0.0,0.0,-0.1543,-0.1466,0.0,0.0,0.0,0.0,0.0,0.0,0.0,0.0,0.0,0.0,0.0,0.0,0.0,0.0,0.0,0.0,0.0,0.0,0.0,0.0,0.0,0.0,0.0,0.0,0.0,0.0,0.0,0.0,0.0,0.0,0.0,0.0,0.0,0.0,0.0,0.0,0.0,0.0,0.0,0.0,0.0,0.0,0.0,0.0,0.0,0.0,0.0,0.0,0.0,0.0,0.0,0.0,0.0,0.0,0.0,0.0,0.0,0.0337,0.1406,0.2063,0.2333,0.2512,0.278,0.3045,0.3353,0.0,0.0,0.0,0.0,0.0,0.0,0.0,0.0,0.0,0.0,0.0,0.0,0.0,0.0,0.0,0.0,0.0,0.0,0.0,0.0,0.0,0.0,0.0,0.0,0.0,0.0,0.0,-0.0778,0.0,0.0,0.0,0.0,0.0,0.0,0.0,0.0,0.0,0.0,0.0,0.0,0.0,0.0,-0.2355,-0.2414,-0.2087,-0.1923,0.0,0.0,-0.1538,-0.1538,-0.1511,-0.1482,0.0,0.0,0.0,0.0,0.0,0.0,0.0,0.0,0.0,0.0,0.0,0.0,0.0,0.0,0.0,0.0,0.0,0.0,0.0,0.0,0.0,0.0,0.0,0.0,0.0,0.0,0.0,0.0,0.0,0.0,0.0,0.0,0.0,0.0,0.0,0.0,0.0,0.0,0.0,0.0,0.0,0.0,0.0,0.0,0.0,0.0,0.0,0.0,0.0,0.0,0.0,0.0,0.0,0.0,0.0,0.1263,0.167,0.2242,0.2868,0.2867,0.3048,0.3494,0.3787,0.3906,0.0,0.0,0.0,0.0,0.0,0.0,0.0,0.0,0.0,0.0,0.0,0.0,0.0,0.0,0.0,0.0,0.0,0.0,0.0,0.0,0.0,0.0,0.0,0.0,0.0,0.0,0.0,0.0,0.0,0.0,0.0,0.0,0.0,0.0,0.0,0.0,0.0,0.0,0.0,0.0,0.0,-0.2094,-0.1988,-0.1936,-0.1863,0.0,0.0,-0.1568,-0.1568,-0.1543,-0.1513,-0.1483,0.0,0.0,0.0,0.0,0.0,0.0,0.0,0.0,0.0,0.0,0.0,0.0,0.0,0.0,0.0,0.0,0.0,0.0,0.0,0.0,0.0,0.0,0.0,0.0,0.0,0.0,0.0,0.0,0.0,0.0,0.0,0.0,0.0,0.0,0.0,0.0,0.0,0.0,0.0,0.0,0.0,0.0,0.0,0.0,0.0,0.0,0.0,0.0,0.0,0.0,0.0,0.0,0.0,0.1466,0.143,0.2107,0.2778,0.3317,0.3406,0.3676,0.4032,0.4297,0.4408,0.0,0.0,0.0,0.0,0.0,0.0,0.0,0.0,0.0,0.0,0.0,0.0,0.0,0.0,0.0,0.0,0.0,0.0,0.0,0.0,0.0,0.0,0.0,0.0,0.0,0.0,0.0,0.0,-0.0954,-0.0954,-0.0954,0.0,0.0,0.0,0.0,0.0,0.0,0.0,0.0,0.0,0.0,-0.1751,-0.1678,-0.1725,0.0,0.0,-0.1654,-0.1654,-0.1654,-0.1613,-0.1578,-0.1566,-0.1508,0.0,0.0,0.0,0.0,0.0,0.0,0.0,0.0,0.0,0.0,0.0,0.0,0.0,0.0,0.0,0.0,0.0,0.0,0.0,0.0,0.0,0.0,0.0,0.0,0.0,0.0,0.0,0.0,0.0,0.0,0.0,0.0,0.0,0.0,0.0,0.0,0.0,0.0,0.0,0.0,0.0,0.0,0.0,0.0,0.0,0.0,0.0,0.0,0.0,0.0,0.0,0.0,0.1979,0.1867,0.2567,0.3256,0.3801,0.3982,0.4162,0.4426,0.4685,0.4868,0.0,0.0,0.0,0.0,0.0,0.0,0.0,0.0,0.0,0.0,0.0,0.0,0.0,0.0,0.0,0.0,0.0,0.0,0.0,0.0,0.0,0.0,0.0,0.0,0.0,0.0,0.0,0.0,-0.0988,-0.0933,-0.0823,0.0,0.0,0.0,0.0,0.0,0.0,0.0,0.0,0.0,0.0,-0.1623,-0.1641,-0.1686,-0.1714,-0.1705,-0.1712,-0.1715,-0.1705,-0.1669,-0.164,-0.1632,0.0,0.0,0.0,0.0,0.0,0.0,0.0,0.0,0.0,0.0,0.0,0.0,0.0,0.0,0.0,0.0,0.0,0.0,0.0,0.0,0.0,0.0,0.0,0.0,0.0,0.0,0.0,0.0,0.0,0.0,0.2153,0.0,0.0,0.0,0.0,0.0,0.0,0.0,0.0,0.0,0.0,0.0,0.0,0.0,0.0,0.0,0.0,0.0,0.0,0.0,0.0,0.0,0.0,0.2244,0.2869,0.2985,0.3416,0.4248,0.434,0.4524,0.4798,0.5051,0.5145,0.503,0.0,0.0,0.0,0.0,0.0,0.0,0.0,0.0,0.0,0.0,0.0,0.0,0.0,0.0,0.0,0.0,0.0,0.0,0.0,0.0,0.0,0.0,0.0,0.0,0.0,0.0,-0.0992,-0.099,-0.0824,0.0,0.0,0.0,0.0,0.0,0.0,0.0,0.0,0.0,0.0,-0.1697,-0.1639,-0.1695,-0.1729,-0.1741,-0.1711,-0.1731,-0.174,-0.1713,-0.1705,-0.1693,0.0,0.0,0.0,0.0,0.0,0.0,0.0,0.0,0.0,0.0,0.0,0.0,0.0,0.0,0.0,0.0,0.0,0.0,0.0,0.0,0.0,0.0,0.0,0.0,0.0,0.0,0.0,0.1496,0.142,0.0,0.0,0.0,0.0,0.0,0.0,0.0,0.0,0.0,0.0,0.0,0.14,0.14,0.0,0.0,0.0,0.0,0.0,0.0,0.0,0.0,0.0,0.0,0.0,0.0,0.2719,0.2925,0.3463,0.3999,0.462,0.4712,0.4866,0.508,0.5305,0.5243,0.4988,0.0,0.0,0.0,0.0,0.0,0.0,0.0,0.0,0.0,0.0,0.0,0.0,0.0,0.0,0.0,0.0,0.0,0.0,0.0,0.0,0.0,0.0,0.0,0.0,0.0,-0.113,0.0,0.0,0.0,0.0,0.0,0.0,0.0,0.0,0.0,0.0,0.0,-0.1552,-0.1724,-0.1674,-0.1713,-0.1732,-0.1778,-0.1806,0.0,0.0,0.0,0.0,0.0,0.0,0.0,0.0,0.0,0.0,0.0,0.0,0.0,0.0,-0.1508,-0.1447,-0.142,-0.1406,-0.1406,0.0,0.0,0.0,0.0,0.0,0.0,0.0,0.0,0.0,0.0,0.0,0.0,0.0,0.0,0.1732,0.0,0.2042,0.0,0.0,0.0,0.0,0.0,0.0,0.0,0.0,0.1514,0.1429,0.141,0.1498,0.1673,0.0,0.1796,0.1826,0.0,0.0,0.0,0.0,0.0,0.0,0.0,0.0,0.3503,0.4078,0.428,0.4557,0.5097,0.519,0.5443,0.5563,0.5564,0.5389,0.5214,0.5083,0.4874,0.0,0.0,0.0,0.0,0.0,0.0,0.0,0.0,0.0,0.0,0.0,0.0,0.0,0.0,0.0,0.0,0.0,0.0,0.0,0.0,0.0,0.0,0.0,-0.1195,0.0,0.0,0.0,0.0,0.0,0.0,0.0,0.0,0.0,-0.1608,-0.1672,-0.164,-0.1807,-0.175,-0.1785,-0.1795,0.0,0.0,0.0,0.0,0.0,0.0,0.0,-0.1856,-0.1856,-0.184,-0.1813,-0.1774,-0.1735,-0.171,-0.171,0.0,0.0,-0.1549,-0.1512,-0.1498,-0.1498,-0.1539,-0.1573,-0.1573,-0.1613,-0.165,0.0,0.0,0.0,0.0,0.0,0.0,0.0,0.0,0.234,0.2157,0.0,0.2374,0.0,0.0,0.0,0.0,0.0,0.2318,0.0,0.0,0.1606,0.1527,0.1524,0.1809,0.1907,0.1903,0.2106,0.2157,0.2144,0.2181,0.0,0.0,0.0,0.0,0.0,0.0,0.4538,0.623,0.5286,0.4994,0.5591,0.5784,0.5974,0.6158,0.5831,0.5593,0.5464,0.5222,0.5029,0.501,0.4678,0.0,0.0,0.0,0.0,0.0,0.0,0.0,0.0,0.0,0.0,0.0,0.0,0.0,0.0,0.0,0.0,0.0,0.0,0.0,0.0,-0.1135,0.0,0.0,0.0,0.0,0.0,0.0,0.0,0.0,0.0,0.0,-0.1787,-0.176,-0.1731,-0.1902,0.0,0.0,0.0,0.0,-0.1887,-0.1889,-0.1889,-0.1892,-0.1893,-0.1892,-0.1891,-0.1891,0.0,0.0,-0.1886,-0.1885,-0.1879,-0.1883,-0.1854,-0.1796,-0.1654,-0.1626,-0.1622,-0.1622,-0.1647,-0.1667,-0.167,-0.1695,-0.1722,0.4376,0.0,0.0,0.0,0.0,0.3224,0.2812,0.2487,0.2582,0.2469,0.225,0.2701,0.0,0.0,0.0,0.0,0.0,0.0,0.2574,0.2179,0.2122,0.2126,0.2099,0.2194,0.2194,0.2193,0.2263,0.2251,0.2247,0.2601,0.2656,0.2537,0.0,0.0,0.0,0.0,0.4872,0.6263,0.5654,0.5525,0.62,0.5996,0.6057,0.6271,0.5999,0.5798,0.5596,0.5499,0.5279,0.5029,0.4917,0.0,0.0,0.0,0.0,0.0,0.0,0.0,0.0,0.0,0.0,0.0,0.0,0.0,0.0,0.0,0.0,0.0,0.0,0.0,-0.1166,-0.1209,-0.124,0.0,0.0,0.0,0.0,0.0,0.0,0.0,0.0,0.0,-0.1979,-0.1785,-0.1816,0.0,0.0,-0.1876,-0.1885,-0.1904,-0.1926,-0.1947,-0.1967,0.0,-0.2009,-0.1994,-0.198,-0.198,-0.1946,-0.1917,-0.1918,-0.19,-0.1885,-0.1886,-0.1879,-0.1857,-0.182,-0.1773,-0.1746,-0.1746,-0.1768,-0.1789,-0.1791,-0.1812,-0.1835,0.5414,0.5145,0.4796,0.4431,0.4121,0.3711,0.3484,0.3144,0.3347,0.3327,0.3093,0.3365,0.3625,0.3681,0.4035,0.0,0.0,0.0,0.3006,0.2795,0.2623,0.2421,0.2397,0.2497,0.2585,0.2567,0.2645,0.2722,0.2798,0.3026,0.3217,0.3279,0.0,0.0,0.3447,0.4238,0.5204,0.6274,0.5927,0.5879,0.6342,0.6242,0.6187,0.6271,0.6078,0.592,0.5803,0.5553,0.545,0.5238,0.5135,0.5041,0.0,0.0,0.0,0.0,0.0,0.0,0.0,0.0,0.0,0.0,0.0,0.1107,0.0203,0.0,0.0,0.0,-0.1136,-0.1171,-0.1226,-0.1278,0.0,0.0,0.0,0.0,0.0,0.0,0.0,-0.0756,-0.1444,-0.1941,-0.2004,-0.1904,-0.1909,-0.1904,-0.1924,-0.1939,-0.1939,0.0,-0.199,-0.2009,-0.2025,-0.2043,-0.2061,-0.2048,-0.2037,-0.2037,-0.2009,-0.1985,-0.1984,-0.1968,-0.1957,-0.1956,-0.1956,-0.1956,-0.1956,-0.1926,-0.1883,-0.1841,-0.1845,-0.1857,-0.1859,-0.1873,-0.1888,0.6481,0.6208,0.5286,0.4828,0.4721,0.4509,0.44,0.4288,0.4286,0.4281,0.4264,0.4299,0.4371,0.4671,0.4595,0.0,0.4573,0.3847,0.3564,0.3512,0.2983,0.2664,0.277,0.2983,0.3065,0.3013,0.3169,0.3417,0.3558,0.3592,0.3847,0.4227,0.4246,0.4009,0.3532,0.4616,0.5591,0.6396,0.6192,0.6139,0.6437,0.6437,0.6385,0.6285,0.6165,0.6043,0.5918,0.5697,0.5483,0.5459,0.5336,0.5159,0.5034,0.0,0.0,0.0,0.0,0.0,0.0,0.0,0.0,0.0,0.0,0.0,0.0,0.0,0.0,0.0,-0.123,0.0,-0.1346,-0.1348,0.0,0.0,0.0,-0.1549,-0.1682,-0.1869,-0.1847,-0.1798,0.0,0.0,-0.2096,-0.2004,-0.2002,-0.1949,-0.1988,-0.2022,-0.2022,-0.2043,-0.2065,-0.2065,-0.2067,-0.2069,-0.2076,-0.2201,-0.2195,-0.2062,-0.2065,-0.2059,-0.2058,-0.2059,-0.2062,-0.2056,-0.2063,-0.2061,-0.2063,-0.2052,-0.203,-0.1921,-0.1903,-0.1902,-0.1906,-0.1909,-0.1919,0.6897,0.6929,0.6392,0.5858,0.5402,0.5177,0.4797,0.4629,0.4627,0.4564,0.4346,0.4539,0.482,0.497,0.495,0.4847,0.4652,0.4441,0.4135,0.3833,0.362,0.362,0.3621,0.362,0.3826,0.4022,0.4005,0.4093,0.4076,0.4264,0.446,0.4562,0.5056,0.4939,0.4353,0.507,0.5726,0.641,0.6329,0.6337,0.6437,0.6437,0.6426,0.6396,0.6285,0.6168,0.6045,0.5899,0.5738,0.5475,0.5408,0.5282,0.4994,0.4956,0.0,0.0,0.0,0.0,0.0,0.0,0.0,0.0,0.0,0.127,0.0462,0.0,-0.0934,0.0,-0.1304,-0.1335,-0.1357,-0.153,0.0,0.0,-0.1575,-0.1651,-0.1808,-0.1747,-0.1806,-0.1889,-0.1932,-0.1969,-0.2129,-0.2035,-0.2048,-0.2034,-0.2044,-0.2053,-0.2054,-0.2059,-0.2073,-0.2093,-0.2098,-0.2107,-0.2125,-0.2113,-0.2091,-0.2068,-0.2065,-0.2065,-0.2065,-0.2065,-0.2065,-0.2065,-0.2065,-0.2065,-0.2066,-0.2065,-0.2057,-0.2028,-0.2022,-0.2022,-0.2022,-0.202,-0.2022,0.7503,0.7565,0.725,0.6858,0.6602,0.5952,0.5504,0.534,0.5222,0.5056,0.4974,0.5083,0.517,0.5347,0.5345,0.5345,0.5347,0.5014,0.4792,0.4679,0.4422,0.4187,0.4186,0.4155,0.4233,0.4312,0.4312,0.44,0.4471,0.468,0.4786,0.5104,0.5422,0.5446,0.5286,0.5588,0.6027,0.6603,0.6548,0.6518,0.6516,0.6464,0.6437,0.6434,0.6325,0.6238,0.6168,0.5999,0.5841,0.5714,0.5608,0.5403,0.5355,0.5235,0.5146,0.0,0.0,0.0,0.0,0.0,0.0,0.0,0.0,0.0,0.0,0.0,-0.0588,-0.1275,-0.1314,-0.1344,-0.1449,-0.1533,-0.1592,-0.1606,-0.1675,-0.1739,-0.1785,-0.1829,-0.188,-0.1943,-0.1977,-0.2011,-0.2181,-0.2074,-0.209,-0.2102,-0.2104,-0.2099,-0.2089,-0.2095,-0.2111,-0.2127,-0.2129,-0.2134,-0.2153,-0.214,-0.2124,-0.2109,-0.2104,-0.2104,-0.2104,-0.2104,-0.2104,-0.2104,-0.2104,-0.2104,-0.2104,-0.2104,-0.2104,-0.2104,-0.2105,-0.2094,-0.207,-0.2065,-0.2065,0.8247,0.8236,0.7845,0.7714,0.7684,0.6696,0.6303,0.6171,0.592,0.5671,0.5779,0.5766,0.576,0.576,0.576,0.5879,0.6118,0.5649,0.553,0.5639,0.5099,0.4723,0.4719,0.4653,0.4589,0.4527,0.4517,0.4584,0.4834,0.4824,0.5139,0.5563,0.5672,0.5882,0.609,0.6197,0.6401,0.6801,0.6698,0.6643,0.6641,0.6524,0.6458,0.6453,0.635,0.6285,0.6265,0.6064,0.5942,0.592,0.573,0.5621,0.5706,0.5504,0.5352,0.0,0.4994,0.0,0.0,0.0,0.0,0.0,0.0,0.0,0.0,0.0539,-0.0182,-0.1003,-0.1227,-0.1255,-0.1259,-0.1322,-0.148,-0.1614,-0.1773,-0.182,-0.1855,-0.1905,-0.195,-0.186,-0.2013,-0.2051,-0.223,-0.2112,-0.2126,-0.2146,-0.2149,-0.214,-0.2123,-0.2136,-0.2151,-0.2155,-0.2155,-0.2152,-0.2155,-0.2155,-0.2153,-0.2153,-0.2151,-0.2155,-0.2151,-0.2152,-0.2153,-0.2153,-0.2151,-0.2152,-0.2155,-0.2153,-0.2153,-0.2151,-0.215,-0.2135,-0.2093,-0.2081,-0.2076,0.8587,0.8497,0.8236,0.8106,0.8098,0.7625,0.7163,0.6955,0.6505,0.6426,0.6465,0.6384,0.6464,0.6347,0.6464,0.6464,0.6467,0.635,0.6113,0.576,0.551,0.5387,0.5039,0.5022,0.524,0.5334,0.538,0.5336,0.5318,0.547,0.5656,0.5766,0.621,0.6428,0.6313,0.0,0.0,0.0,0.6779,0.6768,0.6763,0.6649,0.6584,0.6584,0.6467,0.0,0.6274,0.6225,0.6154,0.6056,0.6007,0.0,0.0,0.0,0.0,0.0,0.0,0.0,0.0,0.0,0.0,0.0,0.3202,0.2512,0.1506,0.0581,0.0,-0.0099,-0.0202,-0.0309,-0.0522,-0.0433,-0.0445,-0.0906,-0.15,-0.1889,-0.1943,-0.1962,-0.1988,-0.1913,-0.2074,-0.2095,-0.224,-0.213,-0.2148,-0.2153,-0.2155,-0.2153,-0.2146,-0.215,-0.2155,-0.2155,-0.2155,-0.2155,-0.2155,-0.2155,-0.2155,-0.2155,-0.2155,-0.2155,-0.2155,-0.2155,-0.2155,-0.2155,-0.2155,-0.2155,-0.2155,-0.2155,-0.2155,-0.2155,-0.2155,-0.2151,-0.214,-0.2137,-0.2138,0.8601,0.0,0.841,0.8407,0.0,0.8086,0.7899,0.7709,0.6967,0.6991,0.7263,0.696,0.6784,0.6739,0.6739,0.6858,0.6975,0.6858,0.6616,0.6494,0.6327,0.6068,0.5712,0.5669,0.5649,0.5643,0.5714,0.5811,0.5807,0.6104,0.6284,0.6348,0.6686,0.6768,0.671,0.7041,0.7207,0.7086,0.6921,0.6893,0.6888,0.6774,0.6711,0.6706,0.6589,0.0,0.0,0.0,0.0,0.0,0.0,0.0,0.0,0.593,0.0,0.6078,0.5839,0.586,0.5973,0.5259,0.4738,0.4427,0.3964,0.3146,0.2023,0.1242,0.0946,0.1052,0.0969,0.0768,0.0332,0.0113,-0.0116,-0.0356,-0.072,-0.1221,-0.1882,-0.202,-0.2037,-0.2078,-0.21,-0.2114,-0.213,-0.2144,-0.2154,-0.2155,-0.2155,-0.2155,-0.2155,-0.2155,-0.2155,-0.2155,-0.2155,-0.2155,-0.2155,-0.2155,-0.2155,-0.2155,-0.2155,-0.2155,-0.2155,-0.2155,-0.2155,-0.2155,-0.2155,-0.2155,-0.2155,-0.2155,-0.2155,-0.2155,-0.2155,-0.2155,-0.2155,-0.2155,-0.2155,0.8587,0.8587,0.8587,0.8587,0.8579,0.8486,0.8448,0.844,0.0,0.0,0.0,0.7456,0.7281,0.7079,0.7079,0.7313,0.7539,0.7293,0.716,0.7383,0.7049,0.6767,0.6399,0.6325,0.6051,0.581,0.6149,0.626,0.626,0.6593,0.6768,0.6921,0.7028,0.7093,0.7225,0.7198,0.7187,0.7182,0.7073,0.7016,0.7013,0.6896,0.6834,0.6834,0.6717,0.6651,0.6649,0.6464,0.6363,0.6361,0.6265,0.6211,0.6115,0.6211,0.6257,0.6352,0.6262,0.6404,0.6819,0.6004,0.535,0.5168,0.4629,0.3797,0.2598,0.2085,0.1884,0.2105,0.1932,0.162,0.128,0.0707,0.0241,0.0,0.0,-0.0503,-0.1418,-0.1813,-0.1952,-0.211,-0.2119,-0.2127,-0.215,-0.2154,-0.2155,-0.2155,-0.2155,-0.2155,-0.2155,-0.2155,-0.2155,-0.2155,-0.2155,-0.2155,-0.2155,-0.2155,-0.2155,-0.2155,-0.2155,-0.2155,-0.2155,-0.2155,-0.2155,-0.2155,-0.2155,-0.2155,-0.2155,-0.2155,-0.2155,-0.2155,-0.2155,-0.2155,-0.2155,-0.2155,-0.2155,0.8587,0.8587,0.8587,0.8587,0.8587,0.8571,0.8562,0.8543,0.8199,0.81,0.8342,0.8082,0.8071,0.8057,0.8057,0.8001,0.8032,0.7905,0.7725,0.7385,0.7368,0.7118,0.6877,0.674,0.6733,0.6726,0.6762,0.6719,0.671,0.698,0.7036,0.7142,0.7259,0.7364,0.7225,0.7244,0.7196,0.7193,0.7192,0.713,0.713,0.7018,0.6959,0.6956,0.6839,0.6779,0.6777,0.6741,0.6728,0.6725,0.6711,0.6596,0.6383,0.6586,0.6602,0.6406,0.662,0.684,0.7078,0.7194,0.6699,0.5645,0.5194,0.452,0.3306,0.2771,0.2564,0.268,0.2343,0.1898,0.1824,0.1835,0.1365,0.0255,0.0,-0.0,-0.0393,-0.0788,-0.1453,-0.2008,-0.2148,-0.2148,-0.2153,-0.2155,-0.2155,-0.2155,-0.2158,-0.2157,-0.2158,-0.2155,-0.2155,-0.2155,-0.2155,-0.2155,-0.2161,-0.2155,-0.216,-0.2155,-0.2159,-0.2162,-0.2162,-0.216,-0.2159,-0.2156,-0.2156,-0.2155,-0.2155,-0.2155,-0.2155,-0.2155,-0.2155,-0.2155,-0.2155,-0.2155,-0.2155,0.8587,0.8587,0.8587,0.8587,0.8587,0.8587,0.8587,0.8579,0.8475,0.8391,0.8337,0.8334,0.8299,0.8236,0.8233,0.8206,0.8152,0.8152,0.7996,0.7822,0.782,0.7661,0.7237,0.7234,0.7079,0.69,0.7094,0.719,0.7185,0.7373,0.7554,0.7496,0.7554,0.7519,0.7394,0.7464,0.7432,0.7314,0.7249,0.7154,0.7154,0.7103,0.7076,0.7078,0.6964,0.6902,0.6899,0.6839,0.6804,0.6804,0.6804,0.6695,0.659,0.6757,0.6929,0.688,0.6832,0.7008,0.7301,0.7354,0.7008,0.6352,0.6215,0.5794,0.5198,0.3984,0.3379,0.3746,0.3307,0.2986,0.2902,0.2527,0.1913,0.1173,0.0914,0.0525,0.0,-0.0267,-0.0668,-0.0941,-0.1346,-0.1751,-0.2155,-0.2155,-0.2155,-0.2156,-0.2167,-0.2178,-0.218,-0.1919,-0.1785,-0.2047,-0.2193,-0.2203,-0.2203,-0.2204,-0.2066,-0.1653,-0.1653,-0.1652,-0.1651,-0.1919,-0.2181,-0.2178,-0.2168,-0.2156,-0.2156,-0.2155,-0.2155,-0.2155,-0.2155,-0.2155,-0.2155,-0.2155,-0.2155,0.8587,0.8587,0.8587,0.8587,0.8587,0.8587,0.8587,0.8587,0.8587,0.8541,0.8465,0.8456,0.8402,0.832,0.8312,0.8301,0.828,0.8277,0.8261,0.8236,0.8233,0.806,0.7728,0.772,0.7536,0.7192,0.7424,0.7536,0.751,0.775,0.7826,0.7739,0.7646,0.7597,0.7597,0.7573,0.7559,0.7546,0.7347,0.7236,0.7236,0.7239,0.7236,0.723,0.7152,0.7103,0.71,0.7013,0.6964,0.6964,0.6964,0.6964,0.6967,0.7051,0.7146,0.7348,0.7093,0.7196,0.7546,0.7346,0.7171,0.7047,0.703,0.7003,0.6692,0.5532,0.4622,0.4749,0.4574,0.4381,0.375,0.3238,0.2608,0.2247,0.1721,0.1197,0.0672,0.0404,0.0135,-0.0,-0.0539,-0.1077,-0.1751,-0.202,-0.1888,-0.1897,-0.1917,-0.1933,-0.2075,-0.1677,-0.1682,-0.1953,-0.2096,-0.1821,-0.1824,-0.1963,-0.1962,-0.1403,-0.1121,-0.0979,-0.0978,-0.1389,-0.1797,-0.1794,-0.1919,-0.191,-0.1904,-0.2041,-0.2179,-0.2182,-0.2183,-0.2179,-0.2181,-0.2181,-0.2169,0.8592,0.8587,0.8595,0.8587,0.8587,0.8587,0.8587,0.8587,0.8587,0.8581,0.8565,0.8573,0.8562,0.8557,0.8546,0.8489,0.8405,0.8399,0.8345,0.8253,0.8233,0.8228,0.8092,0.809,0.8031,0.7924,0.8038,0.7986,0.7896,0.7877,0.7864,0.7856,0.7842,0.7828,0.7823,0.7733,0.7684,0.7806,0.7671,0.7486,0.7486,0.7486,0.7486,0.7486,0.7356,0.7354,0.7445,0.734,0.7332,0.7453,0.7437,0.7445,0.733,0.7459,0.7591,0.7837,0.7616,0.7557,0.7804,0.7782,0.7768,0.7518,0.762,0.7559,0.7326,0.7274,0.6763,0.5933,0.6054,0.5586,0.4331,0.4076,0.3702,0.2942,0.2415,0.2017,0.1884,0.1346,0.0808,0.0135,-0.0,-0.0404,-0.1079,-0.1215,-0.122,-0.1234,-0.1249,-0.14,-0.1823,-0.17,-0.1571,-0.185,-0.1557,-0.0984,-0.0563,-0.1403,-0.1831,-0.1829,-0.0983,0.0,0.0,0.0,-0.042,-0.112,-0.1257,-0.1253,-0.1393,-0.1677,-0.2093,-0.2085,-0.2087,-0.2233,-0.2236,-0.2231,-0.2214,0.8802,0.8796,0.8725,0.8652,0.8592,0.8587,0.8587,0.8587,0.8587,0.8587,0.8587,0.8587,0.8587,0.8587,0.8587,0.856,0.8519,0.8519,0.8494,0.8446,0.8443,0.841,0.8348,0.8345,0.8277,0.8168,0.8163,0.8136,0.8081,0.8016,0.7943,0.7877,0.7872,0.7872,0.7867,0.7826,0.7801,0.7922,0.7755,0.7728,0.7709,0.7589,0.7519,0.7519,0.7402,0.7399,0.7519,0.7519,0.7519,0.7519,0.7519,0.7519,0.7521,0.7587,0.7748,0.7878,0.7884,0.8011,0.8138,0.8062,0.8108,0.7907,0.8015,0.8083,0.7959,0.8062,0.7972,0.7276,0.674,0.6099,0.5326,0.4934,0.4411,0.3764,0.3365,0.2961,0.269,0.2154,0.1616,0.1346,0.0943,0.0405,-0.0272,-0.0412,-0.0415,-0.0418,-0.0422,-0.0568,-0.0852,-0.0144,0.0434,0.0434,0.0432,0.0144,0.0,-0.0431,-0.0861,-0.0862,-0.0431,0.0,0.0,0.0,0.0,0.0,-0.0424,-0.0422,-0.042,-0.0982,-0.1543,-0.1545,-0.1965,-0.2245,-0.2245,-0.2245,-0.2231,0.8951,0.8938,0.8856,0.8769,0.8685,0.8652,0.8638,0.863,0.8603,0.8587,0.8587,0.8587,0.8587,0.8587,0.8587,0.8587,0.8587,0.8587,0.8587,0.8587,0.8587,0.8543,0.8467,0.8465,0.8402,0.8301,0.8288,0.8269,0.8231,0.8152,0.8057,0.7981,0.797,0.797,0.797,0.797,0.7973,0.7973,0.7973,0.7973,0.7948,0.7801,0.7684,0.7625,0.7614,0.7614,0.7616,0.7614,0.7616,0.7616,0.7646,0.7665,0.7787,0.778,0.785,0.7861,0.8129,0.827,0.8361,0.8269,0.8285,0.8296,0.8397,0.8465,0.8481,0.8546,0.8456,0.8053,0.739,0.6715,0.6049,0.5646,0.5245,0.471,0.4305,0.3901,0.3362,0.2827,0.2562,0.2165,0.1627,0.1089,0.0276,0.014,0.0423,0.0565,0.0428,0.0288,0.0432,0.116,0.1897,0.2336,0.1896,0.1458,0.0584,0.0291,0.0292,0.0292,0.0437,0.0437,0.0292,0.0,0.0,0.0431,0.0142,-0.0,-0.0143,-0.0569,0.0,0.0,0.0,0.0,-0.1424,-0.1704,-0.1988,0.8951,0.8954,0.8948,0.8935,0.8924,0.881,0.8764,0.8753,0.8641,0.8592,0.8598,0.8587,0.8587,0.8587,0.8587,0.8587,0.8587,0.8587,0.8587,0.8587,0.8587,0.8584,0.8581,0.8579,0.8654,0.8549,0.841,0.8353,0.825,0.8233,0.8225,0.8212,0.8198,0.8079,0.7941,0.8066,0.8212,0.8193,0.8193,0.8206,0.8206,0.8193,0.8065,0.788,0.7856,0.7856,0.7856,0.7856,0.7856,0.7856,0.7956,0.8021,0.8032,0.813,0.806,0.7944,0.8347,0.862,0.8523,0.8483,0.841,0.8421,0.8505,0.8573,0.8562,0.8579,0.8456,0.8192,0.8058,0.7522,0.6719,0.6453,0.6051,0.5381,0.4977,0.4578,0.4309,0.3917,0.3253,0.2601,0.22,0.1522,0.028,0.0709,0.1285,0.172,0.1591,0.1165,0.131,0.1312,0.1751,0.2335,0.2773,0.2918,0.1459,0.1313,0.1313,0.1313,0.1459,0.1167,0.1168,0.0,0.1166,0.102,0.0725,0.0435,0.0145,0.0,0.0,0.0,0.0,0.0,0.0,0.0,-0.1451,0.9136,0.9068,0.9068,0.9024,0.8948,0.8905,0.8886,0.8875,0.8755,0.8704,0.869,0.8622,0.8587,0.8587,0.8587,0.8587,0.8587,0.8587,0.8587,0.8587,0.8587,0.8587,0.8587,0.8587,0.8571,0.8535,0.8524,0.8467,0.8367,0.8353,0.831,0.8244,0.8233,0.8106,0.8103,0.8106,0.8236,0.8364,0.8236,0.8233,0.8242,0.8233,0.8187,0.8111,0.8103,0.8103,0.8106,0.8232,0.8232,0.8106,0.8147,0.8171,0.8174,0.8209,0.8143,0.8078,0.8353,0.8649,0.8588,0.8503,0.8527,0.853,0.856,0.8587,0.8587,0.8587,0.8587,0.8456,0.8459,0.8056,0.7658,0.7121,0.6587,0.6189,0.5827,0.5451,0.5054,0.4532,0.4013,0.3619,0.2942,0.1979,0.1563,0.1725,0.2029,0.2321,0.2475,0.2625,0.2626,0.2772,0.2918,0.3209,0.3355,0.3355,0.2918,0.2626,0.2626,0.2626,0.2626,0.2626,0.2626,0.2042,0.1895,0.1894,0.1459,0.1022,0.0729,0.0,0.0,0.0,0.0,0.0,0.0,0.0,0.0,0.9261,0.9196,0.9188,0.9141,0.9065,0.9024,0.9011,0.8995,0.888,0.8831,0.8807,0.8698,0.8647,0.8638,0.8603,0.8587,0.8587,0.8587,0.8587,0.8587,0.8587,0.8587,0.8587,0.8587,0.8587,0.8587,0.8587,0.8546,0.8484,0.8473,0.8429,0.8356,0.8348,0.8348,0.8218,0.8348,0.835,0.848,0.835,0.835,0.8348,0.835,0.8348,0.8348,0.8218,0.8178,0.8242,0.8236,0.8236,0.8239,0.8272,0.831,0.8345,0.8348,0.8383,0.8325,0.8473,0.864,0.8573,0.8587,0.8587,0.8587,0.8587,0.8587,0.8587,0.8587,0.8603,0.8633,0.8647,0.852,0.8293,0.7759,0.7337,0.692,0.6576,0.6354,0.5946,0.5292,0.4768,0.4235,0.3424,0.2731,0.2306,0.2468,0.2623,0.2627,0.321,0.3501,0.3501,0.3647,0.3794,0.3794,0.3938,0.3937,0.3937,0.3937,0.35,0.3501,0.3355,0.3501,0.3501,0.3062,0.277,0.2625,0.2333,0.1896,0.1313,0.0876,0.0584,0.0438,0.0,0.0,0.0,0.0,0.0,0.9304,0.9294,0.9302,0.9288,0.9258,0.9171,0.9133,0.9114,0.9005,0.8954,0.8938,0.8823,0.8772,0.8747,0.866,0.8598,0.8603,0.8595,0.8587,0.8587,0.8587,0.8587,0.8587,0.8587,0.8587,0.8587,0.8587,0.8587,0.8573,0.8568,0.8562,0.8573,0.8554,0.8543,0.8576,0.8552,0.8565,0.8557,0.8549,0.8562,0.8584,0.856,0.8554,0.8562,0.8562,0.8465,0.8263,0.8255,0.8269,0.8274,0.8361,0.8467,0.8543,0.8557,0.8576,0.8568,0.8581,0.8581,0.8584,0.8587,0.8587,0.8592,0.8592,0.8609,0.8611,0.8622,0.8666,0.8747,0.8774,0.881,0.8764,0.8511,0.8193,0.7705,0.7357,0.7137,0.6721,0.6028,0.5218,0.4286,0.3758,0.3205,0.277,0.2915,0.3355,0.3501,0.3647,0.3647,0.3792,0.3792,0.3647,0.3792,0.4228,0.4664,0.4955,0.51,0.4518,0.4083,0.3937,0.3937,0.4083,0.3791,0.3499,0.3499,0.3063,0.2625,0.2334,0.1896,0.1751,0.0,0.0,0.0,0.0,0.0,0.0,0.9304,0.9304,0.9304,0.9304,0.9299,0.9264,0.925,0.9239,0.9128,0.9079,0.9057,0.8951,0.8894,0.8867,0.8769,0.8715,0.8706,0.863,0.8587,0.8592,0.859,0.8587,0.8587,0.8587,0.8587,0.8587,0.8587,0.8587,0.8587,0.8587,0.8587,0.8587,0.8587,0.8587,0.8587,0.8587,0.8587,0.8587,0.8587,0.8587,0.8587,0.8587,0.8587,0.8587,0.8587,0.8546,0.8484,0.8478,0.8475,0.847,0.8513,0.8552,0.8581,0.8587,0.8587,0.8587,0.8587,0.8587,0.8587,0.859,0.8592,0.8606,0.8663,0.8709,0.8725,0.8785,0.8845,0.8891,0.8894,0.8918,0.8954,0.889,0.8736,0.8211,0.7879,0.7663,0.7104,0.6581,0.5622,0.4777,0.4362,0.3935,0.3354,0.3501,0.3792,0.4231,0.4375,0.4374,0.4374,0.4664,0.51,0.51,0.5391,0.5391,0.5536,0.5682,0.5391,0.4955,0.4809,0.4664,0.4665,0.4519,0.4374,0.4228,0.3791,0.3501,0.3209,0.3064,0.2919,0.248,0.0,0.0,0.0,0.0,0.0,0.9304,0.9304,0.9304,0.9304,0.9304,0.9304,0.9304,0.9294,0.9228,0.9198,0.9171,0.9071,0.9022,0.8995,0.8891,0.884,0.8829,0.8753,0.8723,0.8698,0.8614,0.859,0.8587,0.8587,0.8587,0.8587,0.8587,0.8587,0.8587,0.8587,0.8587,0.8587,0.8587,0.8587,0.8587,0.8587,0.8587,0.8587,0.8587,0.8587,0.8587,0.8587,0.8587,0.8587,0.8587,0.8587,0.8587,0.8587,0.8587,0.8587,0.8587,0.8587,0.8587,0.8587,0.8587,0.8587,0.859,0.8603,0.8644,0.8663,0.8682,0.8725,0.8796,0.8834,0.8851,0.8918,0.8962,0.9011,0.9019,0.9035,0.909,0.9147,0.9013,0.8807,0.8436,0.805,0.7347,0.6813,0.6114,0.5388,0.51,0.4662,0.4226,0.4228,0.4519,0.4957,0.5101,0.51,0.5245,0.5536,0.5682,0.5827,0.5972,0.5974,0.5974,0.6117,0.6263,0.5972,0.5827,0.5536,0.5391,0.5245,0.51,0.4955,0.4518,0.4228,0.3937,0.4085,0.4086,0.3355,0.2625,0.2187,0.1751,0.1459,0.0,0.931,0.9304,0.9304,0.9304,0.9304,0.9304,0.9304,0.9304,0.9299,0.9291,0.9269,0.9185,0.9144,0.9117,0.9016,0.8962,0.8957,0.8927,0.891,0.8864,0.8739,0.8633,0.8592,0.8587,0.8587,0.8587,0.8587,0.8587,0.8587,0.8587,0.8587,0.8587,0.8587,0.8587,0.8587,0.8587,0.8587,0.8587,0.8587,0.8587,0.8587,0.8587,0.8587,0.8587,0.8587,0.8587,0.8587,0.8606,0.8603,0.859,0.8587,0.8587,0.859,0.8592,0.8609,0.8617,0.8606,0.8682,0.8891,0.8919,0.8955,0.8902,0.8938,0.8962,0.8967,0.8997,0.9052,0.913,0.9141,0.9182,0.9258,0.9285,0.9283,0.9299,0.8845,0.8278,0.7276,0.6845,0.641,0.5972,0.5825,0.5535,0.4805,0.5242,0.5536,0.5829,0.5829,0.5827,0.5827,0.5972,0.5972,0.6117,0.6264,0.641,0.641,0.6553,0.6553,0.6553,0.641,0.6263,0.5972,0.5827,0.5682,0.5391,0.5245,0.4956,0.481,0.4959,0.4669,0.3938,0.3353,0.2916,0.2625,0.2187,0.1896,0.9238,0.9304,0.9304,0.9304,0.9304,0.9304,0.9304,0.9304,0.9304,0.9304,0.9294,0.9275,0.9253,0.9245,0.9139,0.9087,0.9068,0.8997,0.8951,0.8943,0.8899,0.8745,0.8617,0.859,0.8595,0.86,0.8603,0.8587,0.8587,0.859,0.8587,0.8587,0.8587,0.8587,0.8587,0.8587,0.8587,0.8587,0.8587,0.8587,0.8587,0.8592,0.8587,0.8587,0.8592,0.8595,0.86,0.8677,0.8677,0.8595,0.8587,0.8587,0.8609,0.8674,0.8585,0.8595,0.8941,0.9002,0.8753,0.8905,0.9062,0.9096,0.9044,0.9087,0.9092,0.9163,0.9217,0.9258,0.9258,0.9266,0.9296,0.9304,0.9304,0.9304,0.9016,0.844,0.786,0.7423,0.6988,0.641,0.6264,0.5972,0.568,0.568,0.6121,0.6417,0.6421,0.6279,0.6294,0.644,0.6597,0.6712,0.6849,0.6847,0.6845,0.6845,0.6988,0.6843,0.6845,0.6698,0.6555,0.641,0.6119,0.5827,0.5829,0.5538,0.5536,0.5538,0.4955,0.4519,0.4228,0.3936,0.3354,0.3063,0.2625,0.9522,0.9459,0.9457,0.9427,0.9383,0.9383,0.9351,0.931,0.9304,0.9304,0.9304,0.9304,0.9304,0.9294,0.9234,0.9207,0.9193,0.913,0.9106,0.9092,0.9049,0.8921,0.8783,0.8739,0.8742,0.8731,0.8685,0.8666,0.8655,0.8614,0.859,0.8587,0.8587,0.8587,0.8587,0.8587,0.859,0.8587,0.8587,0.8587,0.8587,0.8638,0.8666,0.8679,0.8704,0.8739,0.8753,0.8812,0.8791,0.8706,0.8709,0.8739,0.8745,0.8665,0.8705,0.8713,0.906,0.9109,0.9019,0.903,0.9195,0.9242,0.9177,0.9198,0.9215,0.9269,0.9304,0.9299,0.9302,0.9304,0.9304,0.9304,0.9304,0.9304,0.916,0.8729,0.8155,0.7713,0.7278,0.6845,0.67,0.6555,0.6263,0.6264,0.6576,0.6893,0.6913,0.6788,0.6812,0.6951,0.7094,0.708,0.7082,0.7103,0.709,0.7082,0.7064,0.7054,0.7029,0.7021,0.6867,0.672,0.6555,0.6263,0.6264,0.6264,0.6119,0.5972,0.5682,0.5245,0.5247,0.481,0.4228,0.3792,0.3354,0.983,0.9669,0.9669,0.9606,0.9511,0.9506,0.944,0.934,0.9334,0.9321,0.9307,0.9304,0.9304,0.9304,0.9288,0.9296,0.9296,0.9269,0.9283,0.9247,0.919,0.9082,0.8997,0.8921,0.891,0.8899,0.8831,0.8799,0.8772,0.8685,0.8641,0.866,0.8652,0.8636,0.8668,0.8649,0.863,0.8652,0.8668,0.8668,0.8682,0.8745,0.8785,0.8938,0.8864,0.8908,0.8924,0.8951,0.8924,0.8815,0.8902,0.8921,0.8935,0.8809,0.8831,0.8981,0.9148,0.9349,0.9275,0.9297,0.933,0.9258,0.9283,0.9304,0.9294,0.9299,0.9304,0.9304,0.9304,0.9315,0.9343,0.934,0.9372,0.9386,0.9364,0.8915,0.8326,0.7879,0.7434,0.715,0.7011,0.7019,0.7017,0.7025,0.7052,0.7133,0.7143,0.7011,0.7035,0.719,0.7199,0.7209,0.7221,0.7241,0.7215,0.7186,0.716,0.7137,0.7101,0.708,0.7066,0.705,0.7009,0.6845,0.67,0.6555,0.6557,0.6264,0.6125,0.5972,0.5829,0.5391,0.4955,0.4665,0.4228,0.9753,0.9669,0.9669,0.9655,0.9633,0.9628,0.956,0.9451,0.9449,0.94,0.9323,0.9307,0.9307,0.9304,0.9304,0.9304,0.9304,0.9304,0.9304,0.9299,0.9285,0.9258,0.9182,0.9057,0.8965,0.8957,0.8932,0.8913,0.8899,0.8875,0.887,0.8859,0.8837,0.8729,0.8578,0.8702,0.8732,0.8591,0.8724,0.8713,0.871,0.8745,0.8918,0.9068,0.8957,0.8957,0.8973,0.9044,0.9079,0.9049,0.9,0.8981,0.8995,0.9052,0.8949,0.897,0.9174,0.9377,0.9261,0.9261,0.9275,0.9294,0.9313,0.9304,0.9304,0.9318,0.9313,0.9304,0.9304,0.9364,0.9438,0.9385,0.9555,0.9557,0.9563,0.9274,0.8525,0.8317,0.7833,0.7254,0.7152,0.7201,0.7197,0.7184,0.7203,0.7231,0.7237,0.7243,0.7264,0.7286,0.7301,0.7319,0.7317,0.7327,0.7311,0.7272,0.7233,0.7205,0.717,0.715,0.7133,0.7103,0.7068,0.7027,0.699,0.6857,0.6755,0.6877,0.6597,0.6432,0.6281,0.6005,0.5723,0.5418,0.4983,0.9886,0.9835,0.9835,0.9799,0.9753,0.9745,0.968,0.9587,0.9574,0.9503,0.9405,0.9389,0.9359,0.9307,0.9304,0.9304,0.9304,0.9304,0.9304,0.9304,0.9302,0.9302,0.9294,0.9193,0.9114,0.9106,0.906,0.9041,0.9027,0.8984,0.8938,0.8951,0.8954,0.8796,0.8809,0.8817,0.8943,0.894,0.8951,0.8951,0.8954,0.9011,0.9076,0.9253,0.912,0.9114,0.913,0.9177,0.9209,0.9196,0.915,0.9114,0.9122,0.9177,0.9207,0.9085,0.9261,0.9302,0.9302,0.9304,0.9302,0.931,0.9351,0.9383,0.941,0.9435,0.9473,0.9326,0.9484,0.9511,0.9565,0.9614,0.9666,0.9669,0.9671,0.9366,0.8755,0.8409,0.8081,0.7495,0.7227,0.7246,0.726,0.7286,0.7305,0.7309,0.7323,0.7333,0.7403,0.7419,0.7411,0.7417,0.7405,0.7401,0.7393,0.7358,0.7301,0.7266,0.7231,0.7221,0.7215,0.7176,0.7135,0.7109,0.709,0.7123,0.7154,0.7119,0.7103,0.6985,0.6697,0.6531,0.638,0.6098,0.5661,1.0019,1.0019,1.0019,0.996,0.9875,0.9864,0.9802,0.9704,0.9696,0.9625,0.9379,0.9514,0.9468,0.9383,0.9345,0.9329,0.9304,0.9304,0.9304,0.9304,0.9304,0.9304,0.9296,0.928,0.9266,0.9291,0.9207,0.9163,0.913,0.9065,0.9054,0.9019,0.9014,0.9044,0.9019,0.9008,0.9035,0.9187,0.9046,0.9041,0.9187,0.912,0.9201,0.9253,0.9272,0.9266,0.9266,0.9283,0.9296,0.9304,0.9304,0.9315,0.9326,0.9307,0.9302,0.9299,0.9299,0.9321,0.9348,0.9348,0.9351,0.9353,0.9449,0.9508,0.9538,0.9582,0.9617,0.95,0.9655,0.9682,0.9696,0.9745,0.9745,0.9739,0.9731,0.9418,0.8814,0.8507,0.8214,0.7435,0.7323,0.7354,0.7344,0.735,0.737,0.7388,0.7401,0.7425,0.7488,0.7519,0.7493,0.7482,0.7466,0.746,0.7454,0.7446,0.7388,0.736,0.7317,0.7317,0.7319,0.7315,0.729,0.7237,0.7229,0.7243,0.7237,0.7209,0.7215,0.726,0.7246,0.6902,0.6765,0.68,0.6346,1.0019,1.0019,1.0019,1.0006,0.9989,0.9989,0.9916,0.9821,0.981,0.9748,0.965,0.9639,0.9625,0.9725,0.9492,0.9408,0.9353,0.9348,0.9334,0.9329,0.9326,0.9318,0.9323,0.9307,0.9304,0.9302,0.9272,0.9261,0.9264,0.9256,0.9204,0.9231,0.9226,0.9223,0.9217,0.9242,0.9209,0.9344,0.9204,0.9207,0.9217,0.9239,0.9266,0.9304,0.9304,0.9304,0.9304,0.9304,0.9304,0.9304,0.9304,0.9364,0.927,0.937,0.9334,0.9334,0.934,0.9381,0.9438,0.9459,0.9661,0.9582,0.9625,0.9636,0.9647,0.9669,0.9709,0.972,0.9767,0.9965,0.9813,0.9875,0.9943,0.9954,0.9935,0.9627,0.9014,0.8695,0.8356,0.7538,0.7425,0.746,0.7437,0.7423,0.7442,0.7456,0.7464,0.7472,0.7505,0.7525,0.7517,0.7513,0.7515,0.7513,0.7511,0.7505,0.7482,0.747,0.7446,0.7444,0.7454,0.7478,0.7456,0.7368,0.7311,0.7295,0.7288,0.729,0.7299,0.7325,0.7299,0.7272,0.7151,0.7027,0.685,1.0019,1.0019,1.0019,1.0019,1.0019,1.0019,0.9987,0.9938,0.993,0.9864,0.9783,0.9756,0.9723,0.9669,0.9617,0.9544,0.9503,0.9495,0.9495,0.9487,0.9432,0.9397,0.9386,0.9343,0.9307,0.9304,0.9304,0.931,0.9302,0.9299,0.9304,0.9299,0.9304,0.9304,0.9302,0.9294,0.9304,0.9304,0.9304,0.9304,0.9304,0.9304,0.9304,0.9304,0.9307,0.9304,0.9315,0.9378,0.9397,0.9413,0.9462,0.9369,0.939,0.9382,0.9492,0.9342,0.9337,0.9506,0.9568,0.9736,0.9764,0.981,0.972,0.9753,0.9775,0.981,0.9837,0.9859,0.9878,0.9932,0.9932,0.9989,1.0011,1.0019,1.0019,0.9555,0.909,0.8778,0.8274,0.7613,0.748,0.7499,0.7509,0.7505,0.7517,0.7525,0.7525,0.7525,0.7525,0.7525,0.7525,0.7525,0.7525,0.7525,0.7525,0.7525,0.7525,0.7525,0.7525,0.7525,0.7523,0.7519,0.7501,0.7448,0.7405,0.7368,0.7401,0.7423,0.7407,0.7393,0.7397,0.7401,0.7403,0.7401,0.7225,1.0019,1.0019,1.0019,1.0019,1.0019,1.0019,1.0019,1.0019,1.0014,0.9962,0.9883,0.987,0.9829,0.9756,0.9715,0.9688,0.9674,0.9658,0.965,0.9628,0.9565,0.9525,0.9495,0.9443,0.9402,0.9424,0.941,0.9348,0.9307,0.9304,0.9304,0.9304,0.9304,0.9304,0.9304,0.9304,0.9304,0.9304,0.9304,0.9304,0.9304,0.9326,0.934,0.9351,0.9364,0.9389,0.9416,0.9478,0.9519,0.9546,0.9601,0.9669,0.9392,0.9551,0.9561,0.9424,0.9392,0.968,0.9855,1.0011,0.9877,0.978,0.9832,0.9862,0.9889,0.9938,1.0,1.0019,1.0014,1.0008,1.0,1.0017,1.0019,1.0019,1.0019,0.9711,0.909,0.8622,0.8308,0.7825,0.7681,0.7525,0.7525,0.7525,0.7525,0.7525,0.7525,0.7525,0.7525,0.7525,0.7525,0.7525,0.7525,0.7525,0.7525,0.7525,0.7525,0.7525,0.7525,0.7525,0.7525,0.7523,0.7503,0.7488,0.7493,0.747,0.7513,0.7525,0.7484,0.7472,0.7509,0.7511,0.7478,0.7472,0.7309,1.0019,1.0019,1.0019,1.0019,1.0019,1.0019,1.0019,1.0019,1.0019,1.0014,0.9984,0.9992,0.9979,0.9941,0.9854,0.9769,0.9709,0.9701,0.9712,0.9709,0.9669,0.9647,0.9647,0.9642,0.9584,0.9574,0.9593,0.9495,0.9391,0.9343,0.9323,0.9334,0.9345,0.9315,0.9356,0.9362,0.9304,0.931,0.9315,0.9318,0.9337,0.9419,0.9459,0.9492,0.9546,0.9593,0.9584,0.9622,0.9644,0.965,0.9663,0.9723,0.9642,0.9663,0.9881,0.9881,0.9818,0.9715,0.9957,0.9979,1.0009,0.9913,0.997,0.9995,0.9989,0.9992,1.0019,1.0019,1.0019,1.0019,1.0019,1.0019,1.0019,1.0019,1.0019,0.9555,0.8934,0.8778,0.8464,0.7838,0.7525,0.7525,0.7525,0.7525,0.7525,0.7525,0.7525,0.7525,0.7525,0.7525,0.7525,0.7525,0.7525,0.7525,0.7525,0.7525,0.7525,0.7525,0.7525,0.7525,0.7525,0.7525,0.7525,0.7517,0.7525,0.7525,0.7525,0.7525,0.7525,0.7525,0.7525,0.7525,0.7521,0.7525,0.7525,1.0019,1.0019,1.0019,1.0019,1.0019,1.0019,1.0019,1.0019,1.0019,1.0019,1.0019,1.0019,1.0019,1.0003,0.9957,0.9921,0.9875,0.9859,0.9867,0.9837,0.9799,0.9764,0.9745,0.9701,0.9669,0.9685,0.9666,0.9628,0.9527,0.9511,0.9511,0.95,0.9506,0.9522,0.9337,0.9506,0.9514,0.9519,0.9516,0.9511,0.9525,0.956,0.959,0.9593,0.965,0.9674,0.969,0.9739,0.9761,0.9777,0.9818,0.9883,0.9927,0.9943,0.997,0.9992,0.9935,0.99,0.9935,0.9941,0.997,0.9995,1.0019,1.0014,1.0019,1.0019,1.0019,1.0019,1.0019,1.0019,1.0019,1.0019,1.0019,1.0019,1.0019,0.9555,0.909,0.8934,0.8466,0.7996,0.7525,0.7525,0.7525,0.7525,0.7525,0.7525,0.7525,0.7525,0.7525,0.7525,0.7525,0.7525,0.7525,0.7525,0.7525,0.7525,0.7525,0.7525,0.7525,0.7525,0.7525,0.7525,0.7525,0.7525,0.7525,0.7525,0.7525,0.7525,0.7525,0.7525,0.7525,0.7525,0.7525,0.7525,0.7525,1.0019,1.0019,1.0019,1.0019,1.0019,1.0019,1.0019,1.0019,1.0019,1.0019,1.0019,1.0019,1.0019,1.0019,1.0014,1.0,1.0011,1.0019,1.0019,0.9984,0.9941,0.9892,0.9864,0.9799,0.9772,0.9753,0.9791,0.9772,0.9767,0.9748,0.9726,0.9674,0.9631,0.9647,0.9505,0.9492,0.9636,0.9636,0.9639,0.9644,0.9655,0.969,0.9709,0.972,0.9737,0.9758,0.9772,0.9832,0.9881,0.9902,0.9951,0.9992,1.0003,1.0,1.0006,1.0017,0.9987,0.9989,1.0,1.0003,1.0019,1.0019,1.0019,1.0019,1.0019,1.0019,1.0019,1.0019,1.0019,1.0019,1.0019,1.0019,1.0019,1.0019,1.0019,0.9555,0.9088,0.8778,0.8466,0.7838,0.7525,0.7525,0.7525,0.7525,0.7525,0.7525,0.7525,0.7525,0.7525,0.7525,0.7525,0.7525,0.7525,0.7525,0.7525,0.7525,0.7525,0.7525,0.7525,0.7525,0.7525,0.7525,0.7525,0.7525,0.7525,0.7525,0.7525,0.7525,0.7525,0.7525,0.7525,0.7525,0.7525,0.7525,0.7525,1.0019,1.0019,1.0019,1.0019,1.0019,1.0019,1.0019,1.0019,1.0019,1.0019,1.0019,1.0019,1.0019,1.0019,1.0019,1.0019,1.0019,1.0019,1.0019,1.0017,1.0008,0.9989,0.997,0.9962,0.9965,0.9965,0.9943,0.9951,0.9979,0.9932,0.984,0.9707,0.9734,0.9693,0.9696,0.9577,0.9726,0.9723,0.9723,0.9712,0.9734,0.9777,0.9826,0.9851,0.9924,0.9995,0.9992,0.9987,0.9984,0.9981,1.0006,1.0019,1.0019,1.0019,1.0019,1.0019,1.0019,1.0019,1.0019,1.0019,1.0019,1.0019,1.0019,1.0019,1.0019,1.0019,1.0019,1.0019,1.0019,1.0019,1.0019,1.0019,1.0019,1.0019,0.9866,0.9399,0.909,0.8781,0.831,0.7681,0.7525,0.7525,0.7525,0.7525,0.7525,0.7525,0.7525,0.7525,0.7525,0.7525,0.7525,0.7525,0.7525,0.7525,0.7525,0.7525,0.7525,0.7525,0.7525,0.7525,0.7525,0.7525,0.7525,0.7525,0.7525,0.7525,0.7525,0.7525,0.7525,0.7525,0.7525,0.7525,0.7525,0.7525,0.7525,1.0019,1.0019,1.0019,1.0019,1.0019,1.0019,1.0019,1.0019,1.0019,1.0019,1.0019,1.0019,1.0019,1.0019,1.0019,1.0019,1.0019,1.0019,1.0019,1.0019,1.0019,1.0019,1.0019,1.0019,1.0017,1.0019,1.0019,1.0019,1.0011,1.0019,0.9989,0.9902,0.9864,0.9889,0.9886,0.9862,0.9867,0.9873,0.9878,0.9881,0.9894,0.9916,0.9949,0.9957,0.9976,1.0019,1.0014,1.0017,1.0019,1.0019,1.0019,1.0019,1.0019,1.0019,1.0019,1.0019,1.0019,1.0019,1.0019,1.0019,1.0019,1.0019,1.0019,1.0019,1.0019,1.0019,1.0019,1.0019,1.0019,1.0019,1.0019,1.0019,1.0019,1.0022,0.9711,0.9402,0.8934,0.8625,0.831,0.7681,0.7525,0.7525,0.7525,0.7525,0.7525,0.7525,0.7525,0.7525,0.7525,0.7525,0.7525,0.7525,0.7525,0.7525,0.7525,0.7525,0.7525,0.7525,0.7525,0.7525,0.7525,0.7525,0.7525,0.7525,0.7525,0.7525,0.7525,0.7525,0.7525,0.7525,0.7525,0.7525,0.7525,0.7525,0.7525,1.0019,1.0019,1.0019,1.0019,1.0019,1.0019,1.0019,1.0019,1.0019,1.0019,1.0019,1.0019,1.0019,1.0019,1.0019,1.0019,1.0019,1.0019,1.0019,1.0019,1.0019,1.0019,1.0019,1.0019,1.0019,1.0019,1.0019,1.0019,1.0019,1.0019,1.0006,1.0003,1.0019,1.0006,1.0006,1.0019,1.0019,1.0019,1.0019,1.0019,1.0014,1.0014,1.0011,1.0011,1.0017,1.0019,1.0019,1.0019,1.0019,1.0019,1.0019,1.0019,1.0019,1.0019,1.0019,1.0019,1.0019,1.0019,1.0019,1.0019,1.0019,1.0019,1.0019,1.0019,1.0019,1.0022,1.0019,1.0019,1.0019,1.0022,1.0028,1.0019,0.9864,0.9711,0.9555,0.9246,0.8778,0.8313,0.7998,0.7525,0.7525,0.7525,0.7525,0.7525,0.7525,0.7525,0.7525,0.7525,0.7525,0.7525,0.7525,0.7525,0.7525,0.7525,0.7525,0.7525,0.7525,0.7525,0.7525,0.7525,0.7525,0.7525,0.7525,0.7525,0.7525,0.7525,0.7525,0.7525,0.7525,0.7525,0.7525,0.7525,0.7525,0.7525,0.7525,1.0019,1.0019,1.0019,1.0019,1.0019,1.0019,1.0019,1.0019,1.0019,1.0019,1.0019,1.0019,1.0019,1.0019,1.0019,1.0019,1.0019,1.0019,1.0019,1.0019,1.0019,1.0019,1.0019,1.0019,1.0019,1.0019,1.0019,1.0019,1.0019,1.0019,1.0019,1.0019,1.0019,1.0019,1.0019,1.0019,1.0019,1.0019,1.0019,1.0019,1.0019,1.0019,1.0019,1.0019,1.0019,1.0019,1.0019,1.0019,1.0019,1.0019,1.0019,1.0019,1.0019,1.0019,1.0019,1.0019,1.0019,1.0019,1.0019,1.0019,0.9874,0.9874,0.988,0.9899,0.9883,1.0038,0.9912,0.9795,0.9923,0.9901,1.0041,0.9885,0.9748,0.9448,0.9304,0.9132,0.8512,0.819,0.788,0.7533,0.7525,0.7525,0.7525,0.7525,0.7525,0.7525,0.7525,0.7525,0.7525,0.7525,0.7525,0.7525,0.7525,0.7525,0.7525,0.7525,0.7525,0.7525,0.7525,0.7525,0.7525,0.7525,0.7525,0.7525,0.7525,0.7525,0.7525,0.7525,0.7525,0.7525,0.7525,0.7525,0.7525,0.7525,0.7525,1.0019,1.0019,1.0019,1.0019,1.0019,1.0019,1.0019,1.0019,1.0019,1.0019,1.0019,1.0019,1.0019,1.0019,1.0019,1.0019,1.0019,1.0019,1.0019,1.0019,1.0019,1.0019,1.0019,1.0019,1.0019,1.0019,1.0019,1.0019,1.0019,1.0019,1.0019,1.0019,1.0019,1.0019,1.0019,1.0019,1.0019,1.0019,1.0019,1.0019,1.0019,1.0019,1.0019,1.0019,1.0019,1.0019,1.0019,1.0019,1.0019,1.0019,1.0019,1.0019,1.0019,1.0019,1.0019,1.0019,1.0022,1.0019,0.9891,0.9758,0.9625,0.9612,0.963,0.9509,0.9356,0.9752,0.9773,0.9608,0.975,0.9593,0.9464,0.9302,0.9152,0.9157,0.899,0.8627,0.8293,0.7952,0.7775,0.7554,0.7525,0.7527,0.7529,0.7525,0.7525,0.7525,0.7525,0.7525,0.7525,0.7525,0.7525,0.7525,0.7525,0.7525,0.7525,0.7525,0.7525,0.7525,0.7525,0.7525,0.7525,0.7525,0.7525,0.7525,0.7525,0.7525,0.7525,0.7525,0.7525,0.7525,0.7525,0.7525,0.7525,0.7525,0.7525,1.0019,1.0019,1.0019,1.0019,1.0019,1.0019,1.0019,1.0019,1.0019,1.0019,1.0019,1.0019,1.0019,1.0019,1.0019,1.0019,1.0019,1.0019,1.0019,1.0019,1.0019,1.0019,1.0019,1.0019,1.0019,1.0019,1.0019,1.0019,1.0019,1.0019,1.0019,1.0019,1.0019,1.0019,1.0019,1.0019,1.0019,1.0019,1.0019,1.0019,1.0019,1.0019,1.0019,1.0019,1.0019,1.0019,1.0019,1.0019,1.0019,1.0019,1.0019,1.0019,1.0019,1.0019,1.0019,1.0022,1.0068,1.0076,1.0117,0.9729,0.9585,0.9392,0.9278,0.9143,0.8995,0.9359,0.9384,0.9235,0.9261,0.9257,0.9093,0.8936,0.8776,0.8614,0.8601,0.8395,0.8057,0.7873,0.7678,0.7611,0.7574,0.7564,0.7537,0.7527,0.7525,0.7525,0.7525,0.7525,0.7525,0.7525,0.7525,0.7525,0.7525,0.7525,0.7525,0.7525,0.7525,0.7525,0.7525,0.7525,0.7525,0.7525,0.7525,0.7525,0.7525,0.7525,0.7525,0.7525,0.7525,0.7525,0.7525,0.7525,0.7525,0.7525,0.7525,1.0019,1.0019,1.0019,1.0019,1.0019,1.0019,1.0019,1.0019,1.0019,1.0019,1.0019,1.0019,1.0019,1.0019,1.0019,1.0019,1.0019,1.0019,1.0019,1.0019,1.0019,1.0019,1.0019,1.0019,1.0019,1.0019,1.0019,1.0019,1.0019,1.0019,1.0019,1.0019,1.0019,1.0019,1.0019,1.0019,1.0019,1.0019,1.0019,1.0019,1.0019,1.0019,1.0019,1.0019,1.0019,1.0019,1.0019,1.0019,1.0019,1.0019,1.0019,1.0019,1.0019,1.0019,1.0019,1.0057,1.0302,1.0332,1.007,0.9685,0.9406,0.9066,0.8936,0.8936,0.894,0.8804,0.8838,0.8671,0.8675,0.8813,0.8799,0.8479,0.8323,0.8325,0.8328,0.8146,0.7973,0.7784,0.775,0.7709,0.7676,0.7644,0.7578,0.7554,0.7562,0.7525,0.7525,0.7525,0.7525,0.7525,0.7525,0.7525,0.7525,0.7525,0.7525,0.7525,0.7525,0.7525,0.7525,0.7525,0.7525,0.7525,0.7525,0.7525,0.7525,0.7525,0.7525,0.7525,0.7525,0.7525,0.7525,0.7525,0.7525,0.7525,0.7525,0.9555,0.9555,0.9866,1.0019,1.0019,1.0019,1.0019,1.0019,1.0019,1.0019,1.0019,1.0019,1.0019,1.0019,1.0019,1.0019,1.0019,1.0019,1.0019,1.0019,1.0019,1.0019,1.0019,1.0019,1.0019,1.0019,1.0019,1.0019,1.0019,1.0019,1.0019,1.0019,1.0019,1.0019,1.0019,1.0019,1.0019,1.0019,1.0019,1.0019,1.0019,1.0019,1.0019,1.0019,1.0019,1.0019,1.0019,1.0019,1.0019,1.0019,1.0019,1.0019,1.0019,1.0025,1.0038,0.9984,1.0196,1.0234,0.9687,0.947,0.9202,0.8891,0.8596,0.8267,0.8261,0.8425,0.8458,0.8278,0.8271,0.8427,0.8427,0.8263,0.8098,0.8098,0.8263,0.8088,0.7911,0.7885,0.7846,0.7787,0.7756,0.7707,0.7638,0.7625,0.7625,0.7562,0.7527,0.7531,0.7525,0.7525,0.7525,0.7525,0.7525,0.7525,0.7525,0.7525,0.7525,0.7525,0.7525,0.7525,0.7525,0.7525,0.7525,0.7525,0.7525,0.7525,0.7525,0.7525,0.7525,0.7525,0.7525,0.7525,0.7525,0.7525,0.7525,0.9048,0.9241,0.9555,0.9866,1.0019,1.0019,1.0019,1.0019,1.0019,1.0019,1.0019,1.0019,1.0019,1.0019,1.0019,1.0019,1.0019,1.0019,1.0019,1.0019,1.0019,1.0019,1.0019,1.0019,1.0019,1.0019,1.0019,1.0019,1.0019,1.0019,1.0019,1.0019,1.0019,1.0019,1.0019,1.0019,1.0019,1.0019,1.0019,1.0019,1.0019,1.0019,1.0019,1.0019,1.0019,1.0019,1.0019,1.0019,1.0019,1.0019,1.0019,1.0019,1.0036,1.0063,0.9947,1.0048,0.9835,0.9889,0.9482,0.925,0.8962,0.8658,0.8363,0.8188,0.8017,0.8179,0.8198,0.8202,0.8046,0.8054,0.8056,0.8058,0.8056,0.8054,0.8044,0.8034,0.8011,0.7989,0.7931,0.7866,0.7817,0.7772,0.774,0.7723,0.7689,0.7627,0.758,0.7564,0.7546,0.7525,0.7525,0.7525,0.7525,0.7525,0.7525,0.7525,0.7525,0.7525,0.7525,0.7525,0.7525,0.7525,0.7525,0.7525,0.7525,0.7525,0.7525,0.7525,0.7525,0.7525,0.7525,0.7525,0.7525,0.7525,0.7525,0.8676,0.8766,0.9241,0.9555,0.9866,0.9864,1.0019,1.0019,1.0019,1.0019,1.0019,1.0019,1.0019,1.0019,1.0019,1.0019,1.0019,1.0019,1.0019,1.0019,1.0019,1.0019,1.0019,1.0019,1.0019,1.0019,1.0019,1.0019,1.0019,1.0019,1.0019,1.0019,1.0019,1.0019,1.0019,1.0019,1.0019,1.0019,1.0019,1.0019,1.0019,1.0019,1.0019,1.0019,1.0019,1.0019,1.0019,1.0019,1.0019,1.0019,1.0019,1.0019,1.0082,0.9998,1.0046,1.0129,0.9939,0.9524,0.9254,0.9001,0.8705,0.8555,0.8397,0.8221,0.805,0.805,0.8058,0.806,0.806,0.806,0.806,0.806,0.806,0.806,0.8056,0.805,0.804,0.8023,0.7999,0.7944,0.7913,0.7868,0.7825,0.7807,0.7774,0.7703,0.7662,0.7635,0.7586,0.7556,0.7533,0.7531,0.7525,0.7525,0.7525,0.7525,0.7525,0.7525,0.7525,0.7525,0.7525,0.7525,0.7525,0.7525,0.7525,0.7525,0.7525,0.7525,0.7525,0.7525,0.7525,0.7525,0.7525,0.7525,0.7525,0.8175,0.8204,0.8745,0.9246,0.9555,0.9555,0.9711,1.0019,1.0019,1.0019,1.0019,1.0019,1.0019,1.0019,1.0019,1.0019,1.0019,1.0019,1.0019,1.0019,1.0019,1.0019,1.0019,1.0019,1.0019,1.0019,1.0019,1.0019,1.0019,1.0019,1.0019,1.0019,1.0019,1.0019,1.0019,1.0019,1.0019,1.0019,1.0019,1.0019,1.0019,1.0019,1.0019,1.0019,1.0019,1.0019,1.0019,1.0019,1.0019,1.0019,1.0019,1.0068,1.0158,1.0113,1.0053,1.0305,1.0201,0.9445,0.8838,0.8711,0.8562,0.8399,0.8229,0.8062,0.806,0.806,0.806,0.806,0.806,0.806,0.806,0.806,0.806,0.806,0.806,0.806,0.806,0.8056,0.805,0.8029,0.8003,0.7964,0.7919,0.7885,0.8011,0.7813,0.7778,0.7738,0.7664,0.7617,0.756,0.755,0.7529,0.7525,0.7525,0.7525,0.7525,0.7525,0.7525,0.7525,0.7525,0.7525,0.7525,0.7525,0.7525,0.7525,0.7525,0.7525,0.7525,0.7525,0.7525,0.7525,0.7525,0.7371,0.7525,0.7665,0.7864,0.827,0.8778,0.909,0.909,0.9399,0.9711,0.9708,0.9864,1.0019,1.0019,1.0019,1.0019,1.0019,1.0019,1.0019,1.0019,1.0019,1.0019,1.0019,1.0019,1.0019,1.0019,1.0019,1.0019,1.0019,1.0019,1.0019,1.0019,1.0019,1.0019,1.0019,1.0019,1.0019,1.0019,1.0019,1.0019,1.0019,1.0019,1.0019,1.0019,1.0019,1.0019,1.0019,1.0019,1.0019,1.0019,1.0019,1.0047,1.0071,1.0172,1.028,1.0236,1.0321,1.0058,0.9783,0.9176,0.8549,0.8399,0.8568,0.8229,0.806,0.806,0.806,0.806,0.806,0.806,0.806,0.806,0.806,0.806,0.806,0.806,0.806,0.806,0.806,0.8058,0.8056,0.805,0.8034,0.8025,0.7993,0.7991,0.795,0.8054,0.7862,0.7791,0.7725,0.7674,0.7619,0.7564,0.7542,0.7527,0.7525,0.7525,0.7525,0.7525,0.7525,0.7525,0.7525,0.7525,0.7525,0.7525,0.7525,0.7525,0.7525,0.7525,0.7525,0.7525,0.7525,0.7525,0.7369,0.7371,0.7213,0.7301,0.755,0.7957,0.8313,0.8625,0.8781,0.8934,0.9244,0.9399,0.9555,0.9866,1.0019,1.0019,1.0019,1.0019,1.0019,1.0019,1.0019,1.0019,1.0019,1.0019,1.0019,1.0019,1.0019,1.0019,1.0019,1.0019,1.0019,1.0019,1.0019,1.0019,1.0019,1.0019,1.0019,1.0019,1.0019,1.0019,1.0019,1.0019,1.0019,1.0019,1.0019,1.0019,1.0019,1.0019,1.0019,1.0019,1.0019,1.0019,1.0109,1.0188,1.0305,1.0244,1.0188,1.0071,0.9965,0.901,0.8544,0.8062,0.8062,0.8229,0.806,0.806,0.806,0.806,0.806,0.806,0.806,0.806,0.806,0.806,0.806,0.806,0.806,0.806,0.806,0.806,0.806,0.806,0.806,0.806,0.8058,0.8058,0.8058,0.8027,0.8134,0.8075,0.7829,0.7762,0.7723,0.7676,0.7605,0.755,0.7537,0.7527,0.7525,0.7525,0.7525,0.7525,0.7525,0.7525,0.7525,0.7525,0.7525,0.7525,0.7525,0.7525,0.7525,0.7525,0.7525,0.7369,0.7215,0.7215,0.7058,0.6902,0.7246,0.7397,0.7644,0.7842,0.8313,0.8313,0.8625,0.8934,0.9244,0.9399,0.9555,0.9864,1.0019,1.0019,1.0019,1.0019,1.0019,1.0019,1.0019,1.0019,1.0019,1.0019,1.0019,1.0019,1.0019,1.0019,1.0019,1.0019,1.0019,1.0019,1.0019,1.0019,1.0019,1.0019,1.0019,1.0019,1.0019,1.0019,1.0019,1.0019,1.0019,1.0019,1.0019,1.0019,1.0019,1.0019,1.0019,1.0019,1.0079,1.0196,1.0351,1.0457,1.038,1.0123,1.0004,0.9516,0.8722,0.8223,0.806,0.806,0.806,0.806,0.806,0.806,0.806,0.806,0.806,0.806,0.806,0.806,0.806,0.806,0.806,0.806,0.806,0.806,0.806,0.806,0.806,0.806,0.806,0.806,0.806,0.806,0.8058,0.8019,0.8017,0.794,0.7862,0.7801,0.7738,0.7654,0.7574,0.754,0.7525,0.7525,0.7525,0.7525,0.7525,0.7525,0.7525,0.7525,0.7525,0.7525,0.7525,0.7525,0.7525,0.7525,0.7369,0.7369,0.7058,0.7058,0.6904,0.6746,0.6433]}]]